GFSSW_925_thetae_000.txt.gz
Theta_e
314 315 315 315 314 315 316 317 317 317 317 318 317 317 317 316 316 317 320 318 329 326 325 325 324 324 326 322 320 317 320 318 317 318 320 318 320 322 322 322 321 324 324 326 326
313 313 313 314 314 314 315 315 316 316 316 316 316 317 317 315 316 318 317 317 328 331 324 323 324 324 322 321 320 320 321 322 318 318 321 319 320 321 323 322 323 328 331 328 329
312 312 312 313 313 314 314 314 314 315 315 315 315 316 316 315 316 315 315 318 322 332 329 326 323 322 323 322 322 320 323 321 322 321 320 320 320 320 322 324 323 323 329 329 328
311 312 312 312 312 312 313 313 314 314 314 314 314 315 314 315 315 313 315 314 323 330 333 330 323 324 325 326 324 326 322 321 323 323 321 321 321 321 319 321 321 320 322 328 328
311 311 311 311 311 310 312 313 313 313 313 314 314 314 313 314 314 314 318 318 315 331 333 327 324 324 326 324 325 325 325 323 322 321 318 318 320 321 319 318 317 318 326 330 328
311 312 311 311 311 311 311 312 312 313 313 313 313 312 314 314 311 313 316 318 322 331 332 327 324 323 325 326 326 324 321 320 319 319 319 320 320 320 319 317 317 320 322 326 328
311 310 308 310 311 311 311 311 311 312 312 313 313 313 314 312 311 311 313 320 325 330 331 326 323 325 324 327 323 321 322 320 319 320 321 320 319 319 317 316 317 318 316 318 322
311 308 309 311 310 311 311 311 311 310 311 312 313 313 313 311 311 313 315 316 324 329 330 327 324 325 326 323 318 320 320 322 319 320 319 319 321 319 317 315 316 316 314 314 313
310 310 310 309 308 308 310 311 311 311 312 312 311 312 312 312 315 310 314 318 319 326 330 328 325 325 324 324 321 319 321 320 319 317 320 319 320 318 317 316 317 316 313 313 314
310 310 312 311 311 310 308 309 310 311 311 312 312 313 313 316 315 316 312 316 324 326 330 330 329 327 322 321 328 322 321 319 318 318 318 318 319 317 316 315 315 310 312 313 314
309 309 311 312 313 311 310 309 311 310 313 313 313 314 314 315 318 318 320 320 325 328 333 331 334 333 329 322 319 318 319 318 316 316 319 318 319 318 316 312 311 312 313 314 315
308 308 310 312 313 313 309 314 312 311 314 311 312 313 317 316 318 320 323 326 327 330 330 332 334 330 326 320 318 318 318 317 317 319 320 319 318 317 313 313 314 314 314 316 316
307 309 311 312 313 313 313 313 313 311 312 314 314 313 317 317 322 323 324 326 326 329 331 333 332 328 324 319 321 318 317 318 321 320 319 320 320 317 316 316 316 315 315 315 316
309 310 312 312 312 315 316 313 312 314 318 315 316 316 318 321 324 321 321 326 327 328 330 329 321 326 325 321 317 319 317 320 322 320 322 319 322 316 315 317 317 314 314 314 314
309 310 313 312 315 314 315 314 313 313 324 315 317 317 319 322 323 321 319 324 329 327 324 329 322 324 322 320 316 319 320 320 319 318 318 319 320 316 315 318 317 314 313 313 312
311 310 314 314 315 314 314 315 314 322 324 320 320 323 317 322 321 320 323 322 325 323 320 320 316 317 318 318 318 318 318 316 315 316 321 318 320 318 317 317 316 315 313 312 312
310 312 311 315 316 315 315 316 321 328 319 324 323 321 321 323 323 324 325 327 328 325 324 320 314 312 315 315 314 315 317 322 324 323 324 317 318 319 315 315 317 315 313 311 311
310 312 312 312 315 316 315 322 330 324 324 322 322 321 324 322 322 323 324 324 320 316 318 321 320 313 312 316 316 315 317 322 329 326 325 317 319 318 313 314 314 314 312 311 312
310 314 312 312 315 316 319 329 328 325 322 323 322 324 326 324 322 322 323 321 319 317 321 319 319 314 314 313 315 316 319 318 322 320 322 321 319 316 314 315 315 314 312 312 312
312 314 317 317 316 316 326 329 327 323 320 323 326 324 328 322 321 322 321 323 327 321 321 319 319 317 314 314 313 316 314 320 318 326 325 320 320 320 318 317 316 315 314 312 311
314 316 316 314 316 322 329 328 327 320 323 328 327 326 322 322 320 323 326 325 326 324 322 319 319 321 316 317 317 315 315 314 315 317 322 321 319 313 313 314 316 315 314 312 310
312 318 315 315 320 319 326 327 324 326 324 326 321 321 325 328 326 327 327 326 322 324 326 324 319 321 322 317 315 315 316 314 317 319 315 314 318 312 313 311 312 314 314 312 311
313 317 316 317 325 321 321 322 323 325 324 327 328 326 325 327 328 325 324 322 321 324 324 323 323 324 326 321 319 321 318 315 315 315 320 319 319 312 314 312 315 315 314 311 311
312 318 314 311 312 319 321 322 323 321 322 321 323 324 324 324 322 324 324 322 319 320 319 319 319 322 326 323 319 322 322 317 316 318 317 317 318 317 315 316 316 315 314 310 311
309 313 314 318 315 315 316 319 320 321 320 319 322 322 324 324 322 323 321 320 319 318 317 316 319 318 317 317 316 319 319 319 319 317 318 317 316 316 313 312 311 310 310 311 308
312 312 310 312 313 314 313 316 317 316 318 321 319 316 317 319 319 323 321 320 322 318 318 315 317 314 312 312 313 313 312 312 314 317 317 316 316 313 312 311 315 314 310 310 306
309 309 307 311 311 313 314 314 315 315 314 312 316 314 312 311 310 311 313 314 316 317 316 314 312 311 311 313 314 317 315 312 310 309 310 312 311 312 314 314 314 313 310 308 304

GFSSW_925_thetae_003.txt.gz
Theta_e
313 314 315 315 315 316 316 317 317 317 317 318 318 317 318 317 316 316 318 317 321 327 328 329 328 325 325 324 319 314 320 320 319 316 316 317 319 318 319 321 320 324 325 325 325
312 313 313 314 314 315 315 316 316 317 317 316 317 317 317 316 316 316 314 317 320 328 330 325 324 323 323 323 319 319 321 322 318 315 318 320 319 319 321 319 322 323 330 327 327
312 312 313 313 314 314 315 315 315 316 315 316 316 315 316 315 314 313 311 316 319 325 331 324 323 323 324 320 320 319 322 320 321 318 320 321 319 319 321 321 322 321 321 328 328
312 312 312 313 312 313 314 314 314 314 315 315 314 315 314 314 314 315 314 314 313 321 326 331 326 322 324 325 323 324 321 321 322 322 322 321 319 319 318 319 319 318 317 328 327
312 312 312 312 311 310 312 313 313 314 314 314 314 314 313 314 313 315 316 318 317 321 326 330 322 322 325 323 324 325 324 324 322 322 320 319 318 318 318 317 316 316 319 326 327
311 311 311 312 311 312 311 311 311 313 313 313 312 313 312 312 311 311 312 316 320 320 329 330 322 321 324 324 325 324 324 323 319 318 318 319 319 318 319 316 316 316 317 321 327
311 311 310 309 311 312 311 311 312 312 310 311 313 311 312 312 311 312 311 313 319 320 330 331 325 324 323 327 323 322 323 320 319 320 319 319 320 318 317 314 314 313 313 314 317
310 311 310 309 311 311 311 311 311 310 310 310 313 311 312 311 311 311 314 314 319 323 329 330 326 324 325 323 317 319 319 322 319 319 318 319 322 319 317 316 315 313 312 310 311
312 311 310 311 311 309 308 309 311 311 310 310 311 311 313 311 311 310 312 316 318 322 328 328 324 325 325 325 324 320 321 320 318 316 318 319 320 318 316 315 314 313 311 313 314
306 308 310 311 313 312 310 310 310 310 309 309 310 311 311 312 312 312 311 314 322 321 328 329 328 327 324 327 337 324 322 319 318 317 318 318 317 318 316 315 312 310 312 313 314
308 308 308 310 313 313 311 309 309 311 310 312 313 313 312 312 313 313 312 314 321 324 331 331 332 333 329 326 325 320 319 319 315 314 316 316 317 317 315 313 310 311 312 314 314
309 307 308 311 313 312 312 310 311 310 313 311 311 312 312 315 318 315 314 318 323 325 328 332 333 329 327 323 319 319 319 319 317 317 316 317 317 315 313 312 311 312 313 314 314
309 309 310 312 313 312 309 309 310 311 314 312 311 313 313 315 317 319 318 321 321 325 330 331 329 330 329 328 323 319 320 319 318 318 317 318 319 318 314 315 314 314 314 314 314
309 309 312 313 312 313 313 311 310 312 313 313 315 314 313 314 318 319 319 322 322 323 328 331 326 331 329 326 328 331 317 318 318 320 322 317 322 316 314 316 315 313 312 313 312
309 311 312 313 315 314 313 312 312 313 312 314 315 314 316 316 319 320 320 324 323 323 328 328 327 330 333 329 319 325 316 317 318 318 317 318 319 317 313 316 315 312 311 311 312
308 311 312 314 314 313 314 313 312 318 323 318 316 316 318 318 320 321 323 321 321 325 321 321 322 328 328 322 315 317 316 315 315 315 320 317 319 319 314 316 314 313 310 311 311
308 310 312 314 315 314 313 315 319 325 315 321 317 317 318 321 323 325 327 328 326 328 328 317 317 315 314 315 315 315 317 322 323 323 323 316 317 320 316 312 315 313 310 310 311
310 311 312 313 316 314 314 316 323 321 320 319 320 318 319 322 324 327 327 328 324 322 324 321 325 312 311 315 315 314 318 321 326 325 321 314 319 318 312 310 312 312 309 309 310
310 313 313 313 313 314 316 319 327 324 322 321 319 320 324 323 325 326 325 325 322 320 324 319 319 313 312 312 314 314 318 316 321 319 321 319 317 315 313 313 312 311 310 310 310
311 312 314 315 313 315 320 327 326 321 320 319 323 323 326 323 325 324 324 322 320 315 316 316 316 315 313 312 311 314 313 320 317 326 325 318 317 319 317 316 313 312 311 310 309
312 315 314 314 315 319 328 326 322 320 322 323 322 324 322 322 322 324 324 322 323 322 320 315 315 319 314 316 315 312 313 312 315 316 320 320 318 312 314 314 314 312 311 310 309
310 318 314 315 322 321 326 327 320 321 324 326 322 319 319 318 320 324 324 323 322 322 325 321 316 318 318 316 313 313 313 312 316 317 313 313 317 309 311 312 313 313 312 310 309
311 317 314 314 325 323 324 325 324 326 325 325 320 319 323 321 327 323 323 321 322 322 324 321 320 323 324 320 317 319 315 312 312 313 315 317 317 310 310 310 312 313 312 310 308
311 318 314 316 313 321 321 325 325 322 322 321 324 323 323 323 321 323 324 320 319 320 319 318 318 319 322 322 318 320 318 314 315 316 315 315 316 316 313 314 315 315 314 309 309
307 312 313 315 315 317 317 321 324 324 321 320 324 325 324 324 322 322 321 319 318 317 316 315 319 317 315 315 317 319 320 315 315 314 316 315 315 315 314 312 310 309 309 310 309
311 312 309 311 312 314 314 316 317 315 322 323 324 320 322 323 320 323 320 321 322 317 317 312 316 313 311 311 311 313 313 317 317 317 315 316 315 311 312 311 314 313 309 310 306
308 308 308 311 311 313 314 315 315 313 312 315 316 315 317 312 309 311 311 311 313 316 314 311 310 310 312 312 314 314 312 310 309 309 310 310 310 311 313 313 313 313 309 309 304

GFSSW_925_thetae_006.txt.gz
Theta_e
313 313 314 315 316 316 316 317 318 317 317 318 318 318 319 318 318 316 317 316 317 328 332 330 330 327 325 324 318 313 319 321 320 316 316 316 319 318 318 319 318 320 323 323 327
312 312 313 313 314 315 315 315 316 317 317 316 316 317 316 317 317 316 314 315 318 321 327 327 326 323 322 324 318 318 320 322 318 314 316 318 320 319 319 317 319 320 325 327 326
313 312 312 313 313 314 315 315 315 316 316 315 315 315 315 316 314 313 313 314 317 319 325 328 325 322 324 320 319 318 322 319 320 317 316 321 321 319 319 319 319 319 318 322 327
312 312 312 312 313 313 313 314 315 315 315 315 314 315 314 314 314 317 318 316 317 319 322 329 327 323 324 324 321 323 320 320 321 321 322 322 319 319 318 318 317 316 316 317 325
311 312 312 312 312 312 312 312 313 314 314 312 313 312 313 313 312 315 314 314 318 319 322 327 323 321 325 323 323 324 324 323 321 321 321 320 318 318 317 316 315 313 313 314 320
312 312 311 311 312 312 312 311 310 312 311 311 313 312 312 314 310 310 311 311 317 318 321 325 325 320 322 323 324 323 324 323 322 321 318 319 319 317 317 316 314 313 313 312 317
312 312 312 311 311 311 312 311 311 313 312 310 310 311 312 311 310 311 312 311 312 319 320 324 328 323 322 326 322 324 325 322 319 319 320 316 320 318 316 315 314 312 309 312 311
313 311 310 311 310 310 311 312 312 312 310 310 310 311 310 310 309 310 311 313 311 318 319 327 328 323 324 321 317 321 319 323 321 318 318 318 319 316 315 316 315 312 309 312 313
312 309 311 311 311 312 311 308 311 310 311 309 310 310 311 310 310 310 310 311 317 319 322 325 325 326 325 325 323 319 324 319 319 316 317 318 318 315 315 314 314 312 313 313 313
312 310 309 309 311 311 312 310 309 309 309 309 309 309 308 311 311 310 309 310 317 319 321 328 328 328 326 326 335 327 323 320 319 318 316 317 316 316 315 315 313 311 313 313 312
310 309 308 309 310 313 313 311 308 308 309 310 309 310 311 309 312 311 311 311 316 319 326 328 332 333 328 329 325 322 320 323 317 315 315 314 314 315 314 313 312 310 313 313 312
310 311 309 310 312 313 312 309 307 309 310 309 311 309 310 311 315 313 312 316 320 316 324 332 332 328 325 325 327 320 321 319 318 316 315 315 316 314 313 313 311 310 312 314 312
309 309 309 311 313 313 310 308 309 310 312 311 310 312 312 312 314 314 314 317 319 314 324 329 330 327 328 324 326 321 322 322 322 316 316 315 317 316 313 313 311 311 312 313 312
307 308 310 313 313 313 311 310 310 308 313 313 311 312 313 312 315 314 314 318 319 315 323 330 327 330 329 329 327 331 319 320 319 319 321 316 321 316 313 314 313 312 312 312 312
308 308 310 313 313 314 313 310 309 310 314 311 312 311 313 314 315 317 314 317 320 319 325 329 329 331 331 330 326 330 319 320 319 317 316 317 318 316 312 315 314 311 311 311 311
308 307 310 312 313 313 313 311 311 316 317 314 315 314 315 314 317 317 319 320 319 321 323 323 323 327 330 326 323 320 318 316 314 314 320 317 318 317 315 313 314 312 309 310 310
309 309 310 311 315 313 312 311 315 319 313 317 315 315 316 317 318 319 318 320 323 325 326 319 327 320 323 320 316 318 320 326 324 322 323 315 316 317 315 312 313 312 309 309 309
310 311 311 311 314 311 312 312 320 318 315 316 316 315 317 317 320 319 322 326 323 319 324 326 328 316 314 324 323 320 319 321 327 324 321 313 319 317 313 310 309 311 309 309 309
311 311 311 312 314 311 311 317 320 320 318 320 317 316 318 319 322 323 323 324 323 318 322 325 325 311 312 312 321 315 320 316 319 317 321 319 315 314 313 311 310 310 309 309 309
310 310 312 312 314 312 314 318 321 321 318 317 318 318 324 321 324 322 324 325 324 318 315 316 315 314 311 311 310 314 313 320 317 327 326 320 316 319 315 316 312 309 309 309 309
310 312 314 314 315 316 318 316 323 319 317 320 321 320 322 320 323 322 323 322 321 316 315 312 314 317 312 314 313 312 314 312 315 316 321 320 318 311 312 312 312 310 309 308 309
309 317 314 314 319 321 320 326 320 322 323 324 321 321 321 319 323 324 325 321 319 320 321 317 313 316 317 315 311 311 312 313 318 317 312 313 317 310 309 309 311 311 310 307 308
310 318 314 314 325 325 324 323 322 323 325 325 320 320 317 320 326 325 325 320 320 321 321 318 318 321 324 320 317 316 313 310 311 311 313 316 317 310 307 310 311 312 311 309 307
312 319 318 316 317 320 324 323 326 322 324 322 320 319 321 322 321 322 323 320 319 320 320 319 317 318 323 321 317 319 315 312 314 315 314 313 316 314 312 312 313 313 312 309 307
307 315 315 318 317 317 320 324 326 325 322 320 323 320 321 323 321 322 320 318 317 319 316 317 319 316 313 316 317 317 317 313 314 315 318 317 314 314 312 312 311 310 309 309 308
310 311 309 310 312 315 315 318 319 317 320 324 323 320 319 323 321 322 319 320 320 316 316 313 316 313 311 311 312 316 317 313 314 313 314 314 315 311 311 311 313 313 311 310 308
306 307 309 311 311 314 316 316 316 314 314 315 318 319 315 314 310 312 310 310 314 316 314 311 311 313 315 312 313 313 310 315 313 312 313 316 312 310 314 313 314 313 311 310 307

GFSSW_925_thetae_009.txt.gz
Theta_e
313 313 313 314 315 316 316 316 317 319 318 319 319 318 317 319 318 318 316 314 314 322 323 326 329 329 324 324 317 314 323 324 323 318 322 315 321 320 318 320 319 319 323 324 326
313 313 313 313 313 314 315 316 316 316 316 317 315 317 317 318 318 316 315 315 317 314 321 326 327 324 324 324 319 321 324 324 320 317 318 317 320 322 322 320 320 320 320 324 324
313 313 313 313 313 314 314 315 316 316 316 315 315 314 316 317 314 314 314 314 317 319 320 325 328 324 325 321 320 319 325 321 321 319 317 319 322 321 321 324 320 322 320 318 323
312 311 312 313 313 313 313 314 314 314 315 314 314 314 315 315 316 316 318 318 319 319 319 323 328 325 327 325 320 323 320 320 322 321 322 323 321 323 320 323 320 318 316 315 317
312 311 312 312 312 312 312 312 313 314 315 315 314 312 313 314 313 315 314 313 316 320 319 322 327 323 329 325 322 322 323 322 320 321 321 321 323 323 320 319 318 315 315 316 315
312 312 312 311 311 312 312 312 312 313 314 313 312 312 312 314 310 311 311 311 312 318 319 321 327 320 323 324 327 323 324 324 323 324 320 321 323 318 324 317 317 315 315 313 312
312 313 313 311 312 311 311 312 312 312 313 313 310 311 312 312 309 310 310 310 310 314 318 321 324 322 322 324 321 323 326 323 322 322 323 319 322 320 321 316 317 316 312 313 314
313 313 312 311 311 312 311 312 312 312 312 312 310 311 311 310 310 310 310 311 312 310 316 318 322 325 323 320 321 325 322 330 324 318 318 319 326 319 314 315 317 314 313 315 314
313 312 311 309 310 311 312 312 311 311 311 310 310 310 311 308 310 308 309 309 313 315 317 318 321 328 325 324 322 322 330 325 326 319 320 319 321 318 314 315 316 313 314 315 315
312 312 312 308 309 310 312 312 309 310 310 309 309 310 309 311 310 310 309 309 312 318 320 322 325 330 328 328 334 324 327 321 322 318 316 317 318 316 314 315 316 313 314 315 314
311 311 310 308 309 310 311 313 309 310 309 309 310 309 311 308 310 310 310 310 311 319 319 322 329 333 329 329 325 321 324 325 322 316 316 317 316 317 316 314 314 311 314 315 314
310 310 310 309 310 312 313 309 307 307 309 308 309 309 309 311 314 312 310 311 314 320 317 324 329 328 326 326 324 321 323 322 319 315 316 319 319 318 315 315 313 312 314 315 314
310 309 309 308 312 313 313 311 308 310 310 310 308 311 311 309 312 314 311 313 318 316 318 324 328 327 327 328 330 324 324 322 324 318 316 316 320 317 314 312 311 311 313 313 314
309 309 308 309 312 313 312 310 308 307 311 313 309 309 311 312 313 311 311 314 318 316 316 325 326 328 329 328 328 331 320 323 321 325 329 316 325 318 317 313 313 313 314 314 313
309 308 308 310 313 313 312 309 307 307 316 312 310 310 312 312 313 314 312 314 319 314 319 327 331 328 330 329 325 329 323 325 322 321 316 317 321 319 312 314 315 313 313 313 313
310 308 309 310 312 311 313 310 310 313 315 314 313 314 314 313 314 314 314 315 319 315 318 325 324 328 328 325 326 315 320 320 316 316 322 318 321 321 317 315 313 312 312 313 312
311 309 309 309 314 312 311 310 313 316 312 315 315 314 313 313 315 315 315 316 319 319 319 324 329 326 327 323 319 320 327 332 328 324 326 314 317 320 315 312 314 314 312 312 312
314 311 311 310 310 311 311 312 317 317 312 313 314 313 315 314 317 316 316 316 319 319 317 328 333 322 324 324 324 326 327 329 331 326 323 313 321 320 313 312 310 312 311 312 312
313 310 310 310 312 311 310 314 316 317 311 316 314 314 317 315 318 317 317 316 319 318 319 324 325 316 317 317 323 320 328 318 319 316 322 321 318 316 313 312 310 311 311 313 311
310 309 311 311 312 309 309 316 316 313 315 314 313 314 315 317 317 318 317 319 322 320 315 320 318 314 310 314 311 320 318 326 319 327 327 321 317 322 316 314 311 310 313 311 310
310 310 314 313 309 311 314 314 316 318 314 314 317 316 316 317 317 319 318 323 323 320 313 311 314 315 311 314 314 316 321 316 317 318 324 322 321 312 313 311 313 311 311 311 310
306 318 314 311 315 313 316 317 317 318 317 317 317 320 318 317 316 323 322 323 322 318 315 312 313 315 315 314 311 312 316 317 321 318 313 315 320 310 309 308 310 310 309 310 310
309 317 314 313 318 317 317 320 321 321 322 322 320 319 317 319 324 324 323 320 319 319 318 315 316 321 322 318 316 314 310 312 312 312 314 319 320 310 310 312 310 311 310 309 309
311 322 317 314 317 320 324 322 323 322 324 323 318 318 318 321 321 324 325 320 320 320 319 317 316 319 323 320 316 318 312 310 315 316 315 314 316 314 313 313 311 311 311 309 308
308 312 317 320 319 319 322 322 324 324 323 321 322 319 321 322 322 322 322 319 318 320 316 317 320 316 312 317 316 317 316 312 314 316 319 317 314 313 311 312 311 310 309 309 308
309 309 308 312 312 319 319 324 323 321 320 323 322 319 320 323 321 321 319 321 320 315 317 314 317 312 312 312 315 318 316 314 313 312 313 313 314 310 310 309 312 311 310 310 308
306 306 308 312 312 317 318 319 320 317 318 314 318 318 320 315 312 314 315 314 318 315 314 317 312 314 316 311 312 316 313 314 314 311 314 317 316 309 313 312 312 311 310 310 308

GFSSW_925_thetae_012.txt.gz
Theta_e
313 314 314 313 314 314 314 314 316 319 318 319 320 319 318 319 319 319 318 317 316 315 321 324 329 331 330 328 324 321 328 328 328 327 327 321 325 326 324 325 324 324 325 325 327
313 314 313 313 313 314 314 315 316 316 317 317 317 318 318 317 319 319 318 317 316 319 318 325 330 330 331 329 327 327 329 328 326 326 326 324 326 327 327 326 326 324 324 323 322
312 313 313 313 313 314 314 314 314 316 316 315 315 314 316 317 317 317 316 319 320 320 318 322 328 330 332 329 328 328 329 327 326 325 323 325 327 326 328 329 326 325 324 323 322
312 312 312 313 313 313 313 314 314 314 315 315 314 315 316 316 319 317 318 319 320 320 320 318 325 330 333 332 328 328 327 326 326 325 326 327 326 327 328 329 327 326 325 322 323
313 312 312 312 310 311 311 312 312 314 314 315 314 314 315 316 315 315 313 313 315 319 320 319 326 328 332 331 329 328 327 326 326 325 325 325 327 328 328 327 327 326 324 322 322
313 313 312 312 312 308 308 310 312 312 313 313 314 313 313 314 312 312 314 313 312 317 320 318 324 324 328 330 331 328 328 327 327 327 327 327 328 325 327 327 327 325 323 322 319
314 313 313 312 311 311 309 310 312 312 311 313 313 313 313 313 310 310 310 311 312 313 318 318 320 326 326 330 328 329 329 329 328 328 328 327 329 328 327 323 321 321 321 319 320
313 314 313 312 311 310 311 312 312 312 311 312 312 312 312 310 311 311 311 311 312 311 316 317 319 323 326 326 329 330 331 333 328 328 328 325 330 327 323 320 321 320 320 321 319
313 313 312 311 308 308 309 312 312 311 310 311 311 311 312 309 310 310 310 310 313 312 312 315 318 323 327 327 330 332 334 332 329 327 327 325 328 324 320 320 321 321 320 320 320
312 312 312 312 309 308 308 312 313 310 310 310 310 312 310 310 310 309 310 309 310 315 315 318 318 326 330 329 334 331 331 329 331 326 322 326 326 324 323 321 322 321 320 321 320
311 311 311 311 310 309 309 312 309 310 309 310 310 309 310 310 311 310 310 310 311 315 318 319 321 324 329 330 327 325 327 329 327 324 323 327 328 324 325 323 322 321 320 320 320
310 311 310 310 311 309 311 310 309 309 312 309 309 309 311 310 313 311 311 311 313 314 316 319 323 322 327 328 326 329 328 328 326 321 322 327 329 327 326 323 321 321 321 320 319
311 310 310 310 309 310 313 313 310 307 310 310 309 310 310 309 312 313 312 311 312 314 314 320 319 322 328 329 328 328 327 327 328 325 325 324 329 327 320 317 316 317 320 320 319
310 309 309 309 310 313 313 311 308 307 310 311 311 309 311 311 313 310 311 310 314 315 316 318 319 324 329 329 328 331 327 327 328 331 334 325 334 328 325 321 318 319 320 319 318
310 309 309 308 312 312 311 310 306 307 317 312 311 309 310 311 312 312 312 311 314 317 315 319 318 327 330 330 326 329 327 328 329 330 328 331 330 328 320 322 319 320 320 319 318
312 309 308 310 311 311 311 308 306 312 316 314 312 312 313 312 311 313 314 311 315 317 316 316 322 321 329 327 327 324 325 326 325 325 333 329 328 328 325 321 320 319 320 319 318
314 311 309 310 312 312 309 308 313 317 312 316 315 314 312 312 312 314 315 315 316 321 321 317 324 326 327 329 322 326 330 336 336 335 333 320 324 327 322 318 319 319 320 318 318
315 313 311 310 311 312 309 311 318 316 315 313 314 313 314 313 313 316 314 314 315 318 318 321 332 330 328 328 326 326 329 331 334 333 330 319 327 325 318 317 316 319 319 319 318
315 313 312 312 311 311 310 315 317 317 313 315 314 315 314 314 314 316 314 313 315 316 319 322 327 324 327 323 324 327 331 323 324 322 327 326 324 322 318 317 316 317 319 319 318
312 310 310 310 311 311 309 316 315 314 311 315 314 313 315 315 317 315 314 312 314 316 318 319 323 321 318 323 317 327 326 328 325 331 330 327 326 326 321 319 316 317 319 319 317
311 312 313 311 310 309 313 315 315 314 312 314 312 314 313 315 316 316 315 317 315 318 319 320 322 317 318 325 327 328 329 328 325 324 329 328 326 320 319 318 317 317 319 319 317
312 318 313 311 312 311 313 314 314 316 314 314 314 313 313 315 315 319 317 320 315 319 322 319 321 327 321 316 319 325 326 326 330 326 322 323 325 316 316 316 315 317 317 317 317
313 316 311 311 317 315 313 315 314 317 316 314 317 315 314 315 318 317 320 317 318 321 322 318 322 325 325 321 316 325 323 327 324 320 325 328 326 315 317 318 315 316 316 316 316
313 320 316 315 316 317 317 318 319 319 318 319 320 320 317 316 318 318 324 321 321 321 321 317 321 322 326 324 323 324 323 325 327 328 326 324 324 319 319 319 317 316 316 316 315
312 318 316 318 316 317 318 319 322 323 321 322 322 321 319 320 322 324 324 322 322 322 320 321 323 321 320 320 321 321 322 320 323 325 326 325 323 322 320 320 319 317 316 315 315
313 314 313 318 318 319 317 322 322 322 322 323 324 321 320 322 322 325 324 323 324 322 322 319 323 318 318 318 320 321 320 321 323 324 323 322 322 319 317 317 316 316 316 316 315
308 308 312 315 315 320 321 320 322 321 319 318 321 321 321 321 320 321 322 322 322 322 322 322 321 320 324 316 318 322 321 320 320 320 320 322 322 317 315 315 316 317 315 315 314

GFSSW_925_thetae_015.txt.gz
Theta_e
313 314 315 314 314 314 314 314 314 317 319 320 322 321 320 320 320 320 320 320 318 317 323 322 322 329 330 331 329 327 329 330 328 328 327 326 326 325 326 327 326 326 326 327 325
313 314 314 314 314 314 314 313 314 315 316 318 318 319 319 318 320 321 320 320 319 321 319 321 323 325 333 331 330 329 329 328 327 327 327 326 326 328 328 328 328 328 326 325 324
314 313 313 313 314 313 314 314 313 314 315 315 316 317 318 318 319 319 319 320 321 322 320 319 323 329 331 331 330 330 330 327 327 327 326 326 326 327 329 329 329 328 327 326 325
313 313 312 313 313 313 313 313 313 313 314 315 315 315 314 317 318 319 319 319 320 322 321 319 320 327 330 333 330 331 328 327 327 327 326 327 326 327 328 329 328 328 328 328 326
314 314 313 312 313 313 313 311 310 312 315 315 314 314 315 317 317 317 314 314 317 321 321 321 319 323 327 329 331 330 328 327 327 327 327 327 327 327 328 328 328 328 328 328 327
313 314 313 313 313 312 310 310 311 309 311 314 314 313 315 316 313 314 315 315 314 318 320 320 319 320 323 326 329 329 329 328 327 327 327 327 328 327 327 328 328 328 328 327 326
313 314 312 313 313 313 312 312 312 309 307 310 313 314 314 313 311 312 312 312 313 313 318 319 319 321 324 326 325 328 330 328 328 328 328 327 329 328 327 327 327 322 322 323 323
313 313 314 313 312 312 312 313 311 312 309 310 312 313 314 311 312 312 312 312 311 312 313 317 318 319 323 326 326 328 331 334 329 328 327 328 331 327 327 326 323 322 322 323 323
314 313 313 312 310 310 310 310 312 311 313 312 311 312 313 311 311 311 311 312 312 313 312 314 318 320 323 328 331 330 334 333 332 328 328 329 330 326 326 323 323 323 322 323 323
315 312 310 312 311 310 309 309 313 313 311 311 310 312 311 312 311 311 311 311 311 312 313 315 318 321 323 329 334 333 333 329 332 328 329 329 328 327 326 325 325 323 323 323 323
314 312 309 310 311 312 309 311 310 310 311 312 312 311 311 310 311 311 310 311 311 312 316 315 320 322 322 323 326 327 330 330 329 327 328 329 327 327 325 326 326 324 323 323 323
313 312 310 310 310 311 311 312 311 310 312 310 311 311 310 311 313 312 311 312 312 314 313 316 320 319 319 322 327 331 329 329 327 327 326 326 327 327 327 327 327 324 323 323 322
312 311 309 310 310 311 311 311 311 309 311 310 310 311 310 311 311 313 312 312 312 313 313 316 317 318 318 322 329 330 330 327 328 327 325 327 330 329 328 328 325 323 323 323 321
312 311 309 310 310 310 313 312 312 310 310 312 312 311 310 310 312 310 312 312 312 313 312 314 315 314 319 322 325 333 327 327 328 330 332 328 331 328 328 323 321 321 323 323 321
314 310 309 309 313 313 311 311 309 308 320 313 312 309 310 311 312 311 310 313 313 313 313 317 316 316 322 323 328 330 327 327 329 331 332 332 333 329 328 326 324 322 323 322 321
315 311 310 311 310 312 311 308 308 312 319 315 311 312 312 313 312 312 312 312 312 312 314 314 313 318 321 323 325 328 328 329 328 329 333 330 331 329 328 325 324 322 322 321 320
315 314 310 310 311 312 309 308 313 317 313 316 314 313 314 314 313 313 313 314 316 316 318 315 315 318 322 329 328 330 331 335 335 336 331 327 330 329 322 321 322 322 322 321 320
315 315 311 309 311 311 308 310 317 316 315 313 313 313 315 313 313 312 314 315 313 314 318 319 322 317 321 326 327 329 331 330 331 331 329 324 328 327 322 320 321 321 321 320 320
315 315 313 311 311 309 309 313 317 317 314 316 315 317 317 313 312 313 313 315 314 313 320 322 323 322 325 326 325 327 332 325 328 327 330 328 327 322 321 320 319 321 321 321 320
315 311 311 313 311 311 310 314 316 315 313 314 316 314 314 313 314 314 318 315 313 312 313 318 325 321 325 325 323 328 328 330 328 331 331 329 327 327 323 322 320 320 322 321 320
311 312 314 312 312 310 312 314 315 314 313 315 316 315 313 315 315 316 315 314 312 312 314 318 316 320 323 329 329 329 331 329 328 328 331 331 328 324 322 320 320 320 321 321 320
312 315 313 311 313 310 312 312 313 315 314 314 316 313 313 313 316 316 315 313 312 314 319 321 324 325 324 321 325 326 329 328 330 329 327 326 326 319 320 320 319 320 320 321 320
313 316 312 311 315 314 311 313 313 315 315 316 314 313 313 315 316 317 316 314 316 314 321 321 323 331 328 323 321 328 326 328 328 328 329 328 327 319 321 320 318 319 320 320 319
313 320 313 313 313 315 314 315 315 315 316 315 315 314 314 316 315 316 318 317 318 315 321 320 322 325 328 326 326 329 328 327 327 329 328 328 326 321 322 321 319 319 320 320 319
312 318 315 317 316 315 316 316 319 322 316 316 320 317 316 316 316 320 317 319 318 318 319 322 324 323 322 323 324 326 327 327 328 328 328 327 325 324 323 322 321 319 319 319 318
314 314 317 318 315 317 316 317 317 318 319 323 321 320 318 318 316 321 320 322 322 322 322 321 325 322 323 322 322 324 324 325 326 327 327 326 326 324 322 321 321 320 319 319 318
310 312 314 317 319 320 320 316 319 319 321 321 322 322 321 319 317 321 321 321 322 324 324 322 324 324 325 320 323 325 323 323 323 323 324 325 325 324 319 319 320 320 319 318 317

GFSSW_925_thetae_018.txt.gz
Theta_e
314 314 315 315 314 314 315 316 316 316 319 322 323 323 322 321 321 320 321 320 321 318 315 320 321 323 329 331 331 329 331 331 330 329 328 326 325 325 325 326 325 324 324 325 326
314 314 314 314 314 314 315 315 316 316 316 317 318 319 321 320 320 321 321 321 322 319 320 319 321 321 325 332 331 331 332 330 327 326 326 326 326 326 327 327 325 326 325 325 324
314 314 314 314 313 314 314 315 315 314 316 315 316 318 318 319 319 320 320 322 323 323 321 320 320 323 329 329 331 331 333 329 326 325 325 326 326 325 325 328 327 326 326 326 326
314 314 314 313 313 314 314 314 314 314 314 316 315 314 316 318 322 319 317 318 321 322 322 321 319 323 330 330 329 332 330 328 328 326 327 326 325 325 325 325 326 325 326 326 325
314 314 314 314 313 313 312 312 313 313 315 315 314 314 315 317 317 317 316 314 317 320 322 322 321 320 325 326 328 331 331 328 326 326 326 326 326 326 325 324 324 325 326 325 325
314 314 315 313 313 313 312 312 313 313 312 313 315 314 315 316 313 315 316 316 315 317 320 321 321 319 320 322 324 328 329 330 328 327 326 326 326 325 325 324 324 325 325 324 324
314 314 314 312 312 313 313 313 312 313 313 312 314 314 314 313 312 312 313 314 314 314 314 318 319 321 320 321 323 324 328 329 329 328 327 325 327 327 325 324 325 324 323 320 321
315 313 312 314 312 313 311 311 312 312 313 313 313 314 313 312 312 312 312 312 312 312 313 313 316 319 320 322 325 328 327 331 329 328 327 326 329 327 325 325 325 323 319 320 322
314 314 312 312 313 312 310 307 308 312 312 312 312 313 312 311 312 312 312 312 312 312 312 313 314 319 320 323 326 328 330 329 330 328 328 327 328 326 325 324 324 321 319 320 320
313 315 314 311 313 311 310 308 309 311 313 312 311 312 311 312 311 311 311 312 312 312 313 314 315 320 322 322 325 327 331 328 331 329 328 329 327 326 325 323 320 319 319 319 320
313 312 315 310 311 312 311 309 311 311 311 312 312 311 312 311 311 311 311 311 312 313 314 314 317 320 320 320 321 323 326 330 327 328 328 328 327 326 325 324 323 322 321 319 319
313 312 313 310 310 311 312 311 312 310 312 311 312 312 311 311 312 311 311 313 313 314 313 315 317 315 316 318 320 323 326 329 328 327 327 327 328 326 324 324 323 322 321 319 318
314 311 313 310 311 311 312 311 311 310 312 312 311 312 312 311 313 313 312 312 312 313 313 314 315 314 315 316 320 320 326 328 331 329 326 326 327 325 323 323 322 323 322 319 318
315 312 311 310 310 311 311 311 311 310 312 312 312 312 311 311 312 311 312 313 312 313 312 313 312 313 315 316 317 321 321 325 331 330 333 324 328 325 325 325 325 322 319 319 318
315 313 311 309 313 313 312 312 311 308 318 313 313 310 311 312 312 312 310 313 314 313 312 314 313 314 316 317 317 321 323 326 328 333 333 332 329 328 325 326 325 318 317 319 317
315 315 311 310 309 312 311 310 308 313 317 315 311 312 314 312 312 312 312 312 312 313 312 312 313 314 314 315 315 316 322 327 330 332 336 330 331 328 326 324 320 318 318 319 317
316 315 311 311 311 311 310 308 312 316 313 317 315 313 312 315 313 312 314 313 314 315 315 314 314 313 314 318 316 319 324 331 336 336 332 325 328 327 320 320 321 319 319 318 317
316 315 313 310 311 310 308 310 314 315 315 313 313 313 315 314 314 314 315 314 312 313 314 315 315 315 314 314 321 323 319 329 336 333 328 325 329 326 320 318 319 319 319 318 317
316 316 314 311 311 310 311 312 315 317 315 315 314 316 316 314 313 313 314 314 313 312 315 319 318 317 314 313 321 325 320 323 330 322 327 325 325 319 318 318 318 319 319 318 317
316 315 313 312 311 309 312 315 314 314 314 314 318 315 315 314 314 313 312 312 312 313 312 313 319 320 319 319 319 327 323 332 330 331 332 328 326 324 319 318 317 319 319 318 316
313 314 313 312 310 311 312 312 314 312 312 315 316 317 314 313 315 313 314 312 313 312 312 312 315 322 321 325 324 325 329 331 329 328 331 329 325 320 319 318 317 317 319 318 317
312 316 314 312 315 313 313 312 311 313 313 314 314 316 316 314 314 313 314 314 313 312 315 313 316 322 322 321 322 323 329 328 329 330 327 325 322 317 317 317 316 316 319 318 317
313 315 313 313 316 314 312 310 311 315 315 315 316 315 315 313 316 314 315 315 312 314 315 314 317 326 327 324 327 328 327 328 328 327 329 325 321 317 316 315 318 316 318 318 317
313 317 314 313 313 314 314 311 313 312 313 315 316 315 314 313 314 317 315 316 316 314 321 320 322 321 331 328 327 330 330 328 328 329 328 326 319 320 319 317 317 316 316 317 317
312 316 313 315 314 315 312 314 315 315 315 315 316 316 316 315 316 316 316 318 317 315 317 317 327 323 323 326 326 328 328 328 327 327 327 325 322 318 319 317 316 316 317 317 317
314 313 314 317 314 314 315 315 314 317 318 319 317 320 319 315 316 316 317 319 320 318 316 316 325 324 323 324 325 328 327 327 326 325 324 325 325 322 317 316 315 315 316 317 317
311 311 313 316 319 318 319 315 316 315 315 316 317 316 321 316 316 317 317 319 321 319 319 321 323 325 322 321 322 324 324 325 325 324 325 327 324 322 317 318 316 315 315 316 315

GFSSW_925_thetae_021.txt.gz
Theta_e
314 314 314 315 314 314 315 315 316 316 316 319 323 324 324 323 322 321 320 319 321 320 318 316 317 320 321 327 329 328 328 331 329 327 326 324 323 323 322 324 324 323 322 324 329
314 314 314 315 314 314 314 315 315 315 315 316 318 320 322 321 320 321 320 320 323 322 320 319 319 319 319 327 329 329 330 331 326 324 324 324 323 324 325 325 325 323 323 324 328
314 314 315 314 313 314 314 314 315 315 314 315 315 318 318 319 319 318 319 322 324 324 321 321 321 319 324 321 328 330 334 328 326 325 324 323 324 324 324 325 325 325 323 325 324
315 314 314 314 313 314 313 313 314 314 314 314 314 314 316 318 320 319 317 318 321 324 323 321 321 319 325 328 325 331 330 330 328 327 326 325 324 324 323 323 323 322 322 323 323
315 314 314 314 314 313 311 311 313 313 313 314 315 314 315 317 317 316 315 315 317 320 322 322 321 319 320 322 323 327 328 328 328 327 326 324 324 323 324 322 322 321 322 321 322
316 315 314 314 313 312 312 311 310 312 311 311 313 314 314 315 312 313 315 315 315 319 320 321 321 319 319 319 320 323 324 326 328 329 327 325 324 323 323 321 321 321 321 321 321
316 315 313 312 312 312 313 313 312 312 311 309 312 314 314 313 312 312 313 315 315 314 313 317 320 322 321 320 320 323 326 323 324 328 329 326 326 325 322 321 322 322 320 321 318
315 315 312 310 314 311 313 312 312 312 310 311 309 313 313 311 311 311 312 312 312 312 312 312 312 317 320 320 320 323 326 327 324 325 328 327 331 325 322 322 321 321 318 317 319
314 314 313 309 311 312 312 310 308 308 313 311 310 312 312 310 312 312 312 312 312 311 311 312 312 318 319 321 321 323 325 326 326 324 327 327 329 325 322 322 323 319 317 316 318
316 314 314 313 310 313 311 309 308 310 312 313 312 312 311 311 312 311 312 312 311 311 313 313 312 315 317 321 323 320 324 324 326 324 325 328 329 325 322 322 322 319 316 315 317
316 315 313 315 310 312 311 310 309 311 312 313 312 310 311 311 311 311 311 311 312 312 314 313 314 316 316 317 317 318 320 322 323 324 327 327 328 327 325 323 320 316 315 316 317
315 315 312 314 310 311 312 309 311 310 313 312 312 311 311 311 312 311 311 312 312 315 312 313 315 313 315 317 319 319 320 321 321 323 325 327 328 326 325 323 321 320 318 316 316
315 315 312 313 310 311 311 310 311 311 313 312 312 313 313 312 313 313 312 311 312 313 313 314 313 313 314 315 318 319 320 319 321 323 325 326 329 326 323 323 321 319 319 318 317
315 315 312 312 311 311 311 310 311 311 313 313 311 312 312 312 313 312 312 312 313 314 313 313 311 312 314 315 314 317 316 318 319 324 330 327 334 326 324 321 319 317 316 318 316
315 315 312 309 310 310 311 311 311 310 314 311 312 310 311 312 312 312 312 313 314 313 313 313 312 312 313 314 313 315 315 317 318 322 324 328 334 325 321 324 323 320 314 316 316
315 315 312 308 311 312 311 311 308 313 312 314 311 312 312 313 313 312 311 312 313 315 313 312 311 312 312 311 312 314 315 316 320 323 328 326 332 326 324 323 322 320 316 316 315
315 315 312 311 310 311 310 308 312 314 311 316 314 312 311 314 314 313 314 315 316 315 315 313 313 312 314 316 313 315 316 316 323 324 326 326 330 329 321 318 322 316 317 316 315
315 315 312 311 310 310 308 311 313 312 314 313 313 311 314 312 314 314 314 315 314 312 314 312 310 313 312 314 316 316 314 317 319 325 326 328 334 326 323 316 318 317 317 315 316
315 316 314 311 310 309 310 312 311 312 315 316 314 316 316 314 312 312 312 316 312 311 311 312 313 314 312 312 313 315 316 314 324 325 329 329 322 317 316 317 318 317 317 316 315
316 316 314 311 310 309 312 314 311 314 314 313 317 315 315 313 313 315 312 311 312 310 310 313 315 312 312 314 313 317 317 319 320 330 333 327 322 321 318 317 319 318 317 316 315
314 316 314 310 310 312 311 314 313 313 313 315 316 317 316 313 313 313 311 311 311 312 310 312 314 316 312 317 317 319 319 321 322 322 331 328 325 317 317 317 319 318 316 315 315
313 317 313 310 314 311 313 313 312 313 313 313 313 316 317 315 314 312 312 311 312 312 314 312 314 316 317 320 318 318 320 320 322 330 328 321 320 314 314 314 316 317 316 315 314
314 316 312 310 314 313 312 312 312 313 313 314 315 314 314 316 316 313 312 314 313 313 314 313 315 316 325 322 322 323 322 324 322 327 329 322 319 315 313 313 312 316 316 315 314
314 316 315 314 313 315 314 313 313 311 312 314 315 314 315 316 313 315 314 315 313 313 314 312 317 320 327 327 326 326 324 321 323 330 327 323 319 318 315 315 313 316 316 315 314
313 316 313 315 314 315 314 314 314 313 312 313 315 315 315 315 314 314 315 314 314 316 316 316 319 320 319 321 325 327 325 324 328 327 328 319 320 317 315 314 313 316 316 315 315
313 314 313 313 313 314 314 315 315 314 315 317 315 316 315 316 314 316 317 316 317 317 314 315 317 323 326 326 325 329 328 326 326 325 325 324 325 316 314 312 313 315 317 316 315
311 311 314 317 315 315 315 315 315 312 313 315 315 316 316 318 316 316 316 315 318 317 315 317 320 327 323 326 327 330 327 326 326 324 324 326 323 315 315 315 314 314 317 316 314

GFSSW_925_thetae_024.txt.gz
Theta_e
313 314 314 315 315 315 315 315 315 314 315 318 321 324 325 324 323 322 320 320 320 321 319 318 316 318 319 321 327 326 329 330 329 326 326 322 324 321 320 322 323 322 320 321 327
314 314 314 314 315 314 314 314 315 314 313 314 318 320 323 322 321 322 321 321 323 324 322 318 319 319 318 323 327 329 332 331 325 325 324 323 323 321 324 324 325 324 322 325 329
315 314 314 315 314 314 314 314 314 314 313 314 314 317 319 320 319 319 318 320 324 324 322 319 320 319 321 320 325 329 334 327 326 325 323 323 322 321 323 324 323 325 323 322 324
316 315 314 315 314 314 313 312 312 312 313 314 314 314 317 318 319 319 318 321 324 325 324 321 320 320 321 326 323 326 328 329 329 327 327 326 323 323 322 321 321 321 321 322 321
315 316 315 315 314 312 312 310 311 313 311 313 314 313 315 316 317 315 315 315 318 323 323 322 321 320 319 320 321 322 325 326 327 328 327 326 326 323 322 320 319 320 320 320 319
315 315 315 314 314 312 311 311 310 310 311 310 313 314 314 314 312 314 316 315 317 320 322 321 321 318 319 318 318 319 321 323 324 325 326 328 327 322 322 320 319 320 321 319 319
315 315 315 312 313 311 312 312 312 311 311 311 312 312 313 311 310 312 312 313 315 316 316 320 321 320 320 320 318 320 322 322 321 322 325 326 329 329 322 319 320 320 319 318 318
316 316 315 312 311 312 313 312 312 312 311 311 311 312 311 310 310 309 311 311 312 314 313 312 312 313 317 318 318 321 320 324 321 322 323 327 332 327 322 319 320 319 318 317 317
316 316 314 313 310 313 312 312 308 308 310 311 310 312 309 309 312 310 311 311 311 311 311 312 311 314 317 321 321 320 321 321 324 321 324 326 328 325 322 320 320 319 317 316 315
315 316 314 313 310 311 312 311 308 308 310 314 312 312 311 311 311 311 310 312 311 311 311 311 311 314 315 319 322 321 318 319 321 322 322 325 326 324 323 320 321 321 321 314 315
315 315 315 314 313 310 313 310 308 310 312 315 313 310 310 311 310 311 311 311 311 311 313 312 313 315 314 315 316 316 317 318 318 319 321 324 324 323 323 323 321 318 316 313 314
313 315 316 313 314 311 312 307 309 310 312 311 312 311 310 311 312 312 311 311 312 314 312 314 316 312 311 313 317 318 318 318 317 316 319 323 324 323 323 323 323 323 319 313 315
313 314 315 312 314 312 311 310 310 310 313 312 311 312 312 312 313 313 311 311 312 313 313 313 312 311 313 314 316 318 319 317 318 317 316 317 319 322 323 322 322 321 320 314 317
313 314 315 313 311 311 310 310 310 310 311 312 311 312 312 313 314 312 311 312 313 313 312 313 312 312 313 314 315 317 316 318 318 318 319 321 325 321 323 323 322 322 318 316 317
313 314 314 313 308 310 309 310 310 310 306 308 312 310 311 313 313 312 312 312 315 313 313 313 312 313 313 313 313 315 313 314 316 318 319 318 322 321 321 324 324 322 319 316 316
313 314 313 310 309 310 310 310 310 304 306 314 311 311 312 313 313 313 312 312 313 315 313 311 310 312 312 311 312 313 314 314 314 316 320 315 321 321 324 324 323 322 316 315 316
312 314 313 310 312 310 311 308 308 304 310 315 313 312 311 314 313 313 314 315 316 317 313 314 314 312 313 313 312 312 314 315 318 316 315 313 318 318 320 321 320 321 315 315 315
308 315 314 309 311 311 308 309 306 308 313 313 312 312 312 311 313 313 315 315 313 313 315 316 314 313 312 313 314 314 314 314 313 315 312 321 323 322 320 318 318 317 316 315 314
307 315 313 310 311 309 309 313 306 310 313 313 312 313 314 314 313 313 314 313 311 313 314 314 313 311 311 312 312 314 316 311 312 316 322 323 324 321 321 315 315 315 315 315 315
312 315 313 309 310 308 310 314 310 314 313 313 315 315 315 314 315 313 311 309 311 310 310 309 309 310 311 312 312 313 312 315 315 315 318 325 325 325 321 318 316 316 316 316 315
311 314 312 310 309 309 311 313 312 313 312 313 315 317 316 313 312 311 311 310 310 311 309 310 309 313 312 313 313 315 315 315 313 315 320 323 327 320 319 319 317 317 317 316 315
314 311 310 309 312 309 312 312 312 313 313 314 313 315 316 315 312 311 311 309 309 310 311 311 313 313 312 312 312 314 314 315 316 315 323 323 322 315 314 316 317 317 315 315 314
315 315 310 310 311 311 313 312 312 314 314 313 314 313 314 316 317 311 312 311 312 311 313 313 315 316 316 316 314 316 316 316 318 319 317 327 323 314 312 313 316 315 314 314 313
313 312 313 312 313 312 313 314 314 311 313 312 313 314 315 314 314 314 313 313 313 312 314 313 316 316 320 324 322 320 319 318 320 322 317 318 322 316 313 313 314 314 314 313 313
313 314 313 314 314 314 313 315 314 315 311 312 313 314 315 315 314 315 313 313 315 315 314 313 319 318 317 316 317 323 321 321 316 320 321 324 324 320 314 313 315 314 314 313 313
313 314 313 313 314 315 315 316 315 313 313 314 314 315 316 315 313 314 314 314 316 315 314 314 316 313 317 318 320 323 324 322 319 317 317 320 326 315 312 310 313 314 314 314 313
311 310 313 314 314 316 316 315 315 314 313 314 314 315 315 314 312 312 313 314 316 316 316 316 316 319 327 325 325 330 327 316 316 320 319 327 321 314 315 313 313 313 315 314 313

GFSSW_925_thetae_027.txt.gz
Theta_e
314 314 314 314 315 314 315 315 315 315 315 317 320 324 324 324 323 322 321 320 319 319 320 319 317 319 319 320 325 322 328 329 327 325 324 322 323 321 320 320 322 321 322 321 325
315 314 314 314 314 314 314 314 314 314 314 315 317 320 323 324 324 323 321 321 323 324 324 319 318 319 318 321 324 329 331 329 324 323 323 323 322 320 321 321 323 323 321 325 330
316 315 315 314 315 314 314 314 314 313 313 314 313 317 320 321 319 319 320 324 324 325 323 319 320 319 320 319 323 328 332 327 327 325 323 323 322 322 323 322 321 323 322 322 327
318 316 315 314 315 314 314 313 313 312 313 314 313 313 317 318 318 317 319 322 324 325 323 321 319 320 320 325 322 324 325 328 328 327 327 327 323 323 321 320 319 319 320 321 320
317 316 315 315 314 314 314 311 311 313 311 313 313 313 316 316 316 315 316 317 323 325 323 322 320 319 319 319 320 321 323 323 324 326 326 326 327 325 323 320 319 318 318 318 318
316 316 315 315 314 313 313 312 311 312 311 310 312 314 314 312 310 313 315 315 317 323 323 321 320 318 319 317 318 318 318 319 320 322 323 326 326 325 322 320 318 318 318 318 317
316 316 315 314 313 312 312 313 312 312 311 310 310 313 312 312 310 311 312 313 313 319 319 321 321 321 320 321 317 318 320 319 320 320 321 323 325 326 324 322 320 319 317 318 317
314 316 316 315 313 312 313 314 313 313 311 311 311 312 310 308 310 310 311 310 312 313 314 313 319 314 316 317 317 320 319 322 319 320 320 322 325 324 322 324 321 318 316 316 316
314 315 316 316 313 310 311 314 311 309 310 312 311 310 308 308 311 309 310 310 311 311 311 312 311 314 316 320 321 319 320 320 320 319 322 323 324 322 322 322 321 319 317 317 316
314 314 316 316 312 309 312 312 310 308 310 314 311 312 310 310 311 311 310 311 311 310 311 311 312 316 317 320 320 318 319 318 319 320 319 321 322 320 320 321 319 318 317 317 316
314 314 315 316 312 309 313 310 308 308 311 314 313 312 310 310 311 311 311 311 310 311 312 311 312 314 314 313 315 316 316 316 317 316 316 317 319 320 319 319 321 319 318 319 314
313 313 315 315 313 311 312 308 307 309 311 310 312 310 310 310 312 311 311 311 311 313 311 313 314 311 310 310 313 315 317 317 315 315 315 315 316 315 314 315 320 320 320 320 314
310 314 314 315 314 313 311 310 310 310 310 311 310 312 312 312 313 313 311 310 311 312 312 313 311 311 312 312 313 314 315 314 316 314 314 315 316 313 313 315 318 320 320 319 316
308 314 314 314 314 313 311 310 309 310 306 309 312 312 312 312 314 311 311 311 312 313 313 313 311 311 311 312 312 314 313 315 317 318 316 315 316 314 314 315 317 319 320 319 313
307 309 313 314 311 311 310 309 310 307 302 308 312 310 312 313 313 312 311 312 314 313 311 313 312 312 312 313 312 314 313 315 316 315 315 315 316 313 314 315 317 318 319 317 314
307 308 313 312 310 310 309 309 310 308 305 312 311 312 313 313 314 313 313 312 313 314 313 310 310 311 312 311 311 312 313 314 315 315 316 312 314 313 310 313 318 318 317 316 315
306 307 313 310 310 309 309 309 311 306 308 313 312 311 310 312 312 314 313 315 316 316 315 315 314 311 312 312 311 313 315 316 317 317 313 310 312 312 310 313 317 318 317 315 313
307 309 310 311 309 309 309 309 308 308 310 312 311 311 311 311 313 313 313 313 314 315 315 316 317 313 312 313 313 313 314 316 314 313 310 310 315 313 311 311 311 312 314 312 313
307 309 310 310 309 310 310 311 305 307 311 312 311 313 313 311 313 313 314 313 312 310 314 314 310 311 312 312 313 315 315 312 314 311 315 316 314 315 311 316 315 314 313 313 313
308 308 309 310 309 309 310 309 308 311 311 311 312 312 313 312 314 314 313 308 312 309 310 310 309 309 311 311 312 313 311 315 315 314 311 308 313 321 315 313 312 311 314 313 313
308 309 312 310 309 310 312 314 310 312 311 313 313 317 314 313 313 312 310 309 308 309 310 310 309 308 311 313 313 314 314 313 312 311 309 312 308 307 315 316 314 313 313 314 314
308 308 310 309 311 309 312 312 312 313 312 313 313 314 315 314 314 312 310 309 308 309 313 311 311 311 311 311 311 311 312 313 313 312 311 312 314 313 312 312 314 315 316 315 314
308 311 310 310 309 310 312 312 312 314 314 314 315 313 314 316 318 311 310 310 309 310 311 312 314 315 316 313 312 314 313 314 313 314 312 313 311 312 311 313 314 316 316 315 313
309 309 312 309 310 310 313 313 314 312 313 313 313 313 314 316 315 314 312 312 309 310 313 311 315 316 316 318 315 316 315 315 315 316 315 314 312 311 310 314 315 315 316 315 312
312 309 309 312 313 310 311 313 314 315 312 313 313 314 315 317 313 315 313 313 313 314 314 313 317 316 315 314 314 316 319 316 316 316 318 316 314 312 314 319 316 314 313 313 313
313 314 311 312 312 314 312 315 314 313 313 313 314 313 314 316 312 313 313 313 315 315 316 313 316 313 315 315 316 319 318 318 316 315 318 318 318 315 315 312 313 313 314 314 313
311 310 312 314 314 315 315 315 315 314 313 313 313 313 315 315 313 311 311 312 314 316 316 314 314 317 319 323 321 322 319 320 319 318 318 319 317 315 315 313 314 313 314 313 312

GFSSW_925_thetae_030.txt.gz
Theta_e
318 315 314 314 314 315 315 315 315 315 315 315 318 321 323 324 323 322 320 320 319 319 320 320 317 318 318 319 324 319 327 327 325 323 323 321 322 320 319 318 319 320 322 321 324
319 318 315 314 314 315 315 315 314 315 314 314 314 319 322 323 324 324 322 322 325 324 323 319 317 318 317 320 323 327 328 327 323 320 323 321 322 320 322 321 321 321 321 324 327
319 318 317 314 314 315 314 314 314 314 313 312 312 317 320 322 320 320 320 323 325 326 325 320 319 318 319 318 322 326 329 325 325 325 324 323 322 321 322 323 320 321 318 320 327
317 318 318 315 314 315 314 314 314 313 311 312 314 313 317 318 316 317 320 322 324 325 323 320 318 318 319 322 320 324 323 326 327 327 327 327 324 324 321 320 318 319 318 318 319
315 317 318 316 314 315 314 314 313 313 311 312 314 313 316 316 317 315 316 315 323 324 322 322 319 317 318 318 319 322 321 321 320 320 323 324 326 326 324 321 320 319 318 317 316
316 314 316 316 314 314 313 313 313 313 311 310 313 313 314 310 309 312 315 315 320 323 322 321 320 317 319 317 317 317 317 317 318 319 319 322 323 323 323 321 319 318 319 317 315
316 315 316 316 315 313 312 313 313 313 310 310 312 313 311 311 310 311 311 313 313 321 320 321 319 320 320 321 317 317 319 317 317 318 318 319 322 322 320 320 322 322 319 318 317
313 315 314 316 315 314 313 313 313 312 311 311 312 312 308 308 309 310 311 311 312 314 313 313 320 317 315 315 317 320 318 320 316 317 318 320 323 319 319 320 322 321 318 317 317
312 312 314 315 316 314 311 312 313 311 311 312 311 309 307 307 309 309 309 309 311 312 312 312 312 312 314 318 319 320 320 318 318 317 319 321 322 322 317 319 319 318 316 315 315
308 311 313 314 316 314 310 312 312 308 310 312 311 309 308 310 310 311 310 310 310 310 310 311 312 315 316 318 318 317 318 317 317 317 315 317 318 316 316 317 317 317 317 315 315
308 308 310 314 315 313 312 310 309 307 310 312 314 312 309 310 310 310 310 310 310 310 311 310 312 316 316 314 315 316 316 318 315 314 314 315 315 314 313 314 316 317 318 316 316
307 307 309 313 315 313 312 309 309 308 310 308 310 311 310 310 312 311 310 311 311 312 310 312 314 310 310 310 313 315 317 316 314 312 314 314 314 313 312 313 314 316 317 317 317
306 307 309 313 315 313 311 309 309 310 309 309 309 311 312 312 313 312 310 309 311 311 311 311 310 310 311 311 312 312 312 312 312 311 312 312 313 310 309 310 311 311 312 315 317
305 305 308 309 315 312 311 310 310 308 301 307 311 311 311 312 312 311 310 310 311 311 311 311 311 311 311 311 311 313 311 312 313 314 314 313 315 311 311 310 309 309 312 316 317
304 304 307 307 313 312 311 309 309 304 306 308 312 311 312 311 312 311 310 311 313 312 311 313 311 312 313 311 310 312 311 312 314 315 314 314 316 310 308 309 309 310 311 313 315
305 305 307 307 312 312 310 309 308 303 310 313 311 312 314 313 314 312 313 312 312 314 313 311 309 310 310 310 310 312 313 314 315 315 317 313 312 311 308 308 307 310 310 314 315
307 306 307 306 311 310 309 309 310 312 308 312 312 311 312 313 313 314 314 316 316 317 316 314 315 312 311 311 311 313 316 316 317 317 314 309 312 312 307 307 309 309 311 312 312
305 306 306 306 310 309 309 308 307 307 309 311 310 309 310 310 311 312 314 315 314 314 315 316 310 313 311 311 311 313 314 316 316 314 308 308 311 310 307 308 308 308 309 310 312
305 306 307 308 309 309 309 310 307 307 310 312 311 310 311 311 312 313 314 311 310 312 315 314 311 310 311 311 311 315 315 312 316 314 316 312 310 310 310 308 311 309 308 307 308
305 307 307 308 309 309 310 309 308 308 310 310 311 311 313 312 313 314 313 309 312 311 310 311 312 308 310 310 311 313 312 315 315 316 316 309 307 309 308 306 307 307 307 309 310
307 308 308 308 308 309 311 311 308 311 310 311 311 312 313 312 313 313 309 308 308 308 308 311 311 309 311 312 312 315 314 315 313 313 308 309 306 303 304 305 309 312 309 307 311
306 309 308 308 308 309 313 311 311 311 311 312 312 313 314 313 314 313 309 308 306 308 310 310 313 313 311 311 310 311 312 312 312 311 310 307 309 308 308 310 313 314 311 310 311
308 309 310 307 309 309 311 312 312 312 312 313 313 313 313 315 317 313 310 308 307 309 310 310 313 312 312 312 311 313 313 312 312 311 311 309 309 305 306 307 312 314 314 312 310
305 310 308 308 308 310 311 313 313 311 313 313 314 313 313 316 315 315 312 311 308 309 311 311 314 313 315 315 314 316 313 314 314 315 313 313 310 309 309 310 310 314 314 312 310
308 307 306 308 309 311 311 312 313 314 312 314 313 312 315 316 315 317 312 311 311 310 312 312 317 315 315 314 314 315 317 314 314 314 316 314 312 310 310 312 313 313 313 314 312
311 311 310 308 310 310 312 314 314 313 313 313 315 313 314 316 312 312 311 312 312 312 314 314 316 313 315 315 315 316 316 316 315 314 315 314 315 314 313 313 314 311 314 316 313
308 310 312 311 312 312 313 313 313 313 313 312 312 313 314 314 313 312 310 311 312 315 316 314 314 317 318 316 318 323 319 317 317 316 315 316 314 314 315 317 315 314 315 315 313

GFSSW_925_thetae_033.txt.gz
Theta_e
318 319 319 315 314 314 315 315 315 315 315 314 314 318 322 322 324 322 320 320 320 321 321 320 317 317 318 320 323 319 330 330 326 323 323 321 322 321 319 320 320 320 321 321 324
317 317 320 318 315 313 315 315 314 314 315 314 314 317 320 322 324 323 322 322 321 324 321 319 317 317 317 320 323 328 330 328 324 321 323 322 322 322 323 323 323 322 320 322 326
318 319 318 319 317 313 315 315 313 312 314 314 313 314 318 321 320 321 322 325 324 324 324 321 318 317 319 319 323 326 330 325 325 324 325 325 324 322 323 325 323 323 322 320 327
316 317 318 319 317 314 314 314 314 313 313 313 314 311 316 318 321 317 320 321 323 325 323 318 317 317 319 321 319 324 323 325 326 325 326 327 325 328 323 324 320 320 320 319 321
313 315 316 316 317 316 312 313 313 313 313 311 313 312 315 317 317 315 315 315 322 324 322 321 318 316 319 318 319 323 321 321 321 318 319 322 325 326 326 324 322 323 322 322 321
312 313 315 315 317 315 314 311 313 313 312 310 312 313 312 310 310 311 315 315 322 322 322 321 320 316 317 318 318 317 318 318 317 318 318 321 321 322 322 322 324 322 323 321 320
309 311 313 315 315 316 314 311 311 312 311 310 311 312 311 310 309 311 311 313 318 321 321 321 319 319 319 320 317 317 320 318 318 318 319 318 321 321 320 320 322 323 322 323 322
306 309 311 313 314 315 315 314 310 312 311 311 311 311 306 308 309 309 310 311 312 314 317 320 320 319 318 314 316 319 319 320 316 317 317 319 319 319 317 318 320 320 321 322 322
305 307 308 310 314 315 315 313 312 313 311 311 311 307 308 307 308 308 310 310 311 312 313 315 313 313 315 317 317 319 318 319 317 316 318 320 322 319 317 316 318 319 320 320 320
306 307 308 310 311 315 315 312 313 310 310 311 311 310 308 310 309 310 309 310 309 309 310 311 312 315 316 316 316 316 318 316 317 315 315 316 317 315 314 315 316 316 316 317 318
305 306 307 308 309 314 314 311 309 309 310 310 312 310 309 310 310 310 310 310 309 309 312 310 314 316 316 314 313 314 316 317 317 315 315 316 315 315 314 314 314 314 314 315 316
304 305 305 307 308 312 311 309 309 308 308 307 309 311 310 310 311 310 310 311 311 312 310 312 314 311 311 313 314 316 317 315 313 312 313 313 314 312 312 312 312 313 313 314 315
303 304 305 305 308 310 311 310 309 309 307 308 308 310 311 310 312 311 309 309 310 311 311 312 311 310 311 311 312 312 314 314 313 311 311 311 312 310 309 310 310 311 312 312 314
303 303 303 305 306 311 310 309 309 308 301 306 311 310 311 312 312 311 310 310 310 312 311 311 310 311 311 311 311 313 310 312 312 313 314 311 313 310 310 310 309 309 310 310 311
302 303 304 305 307 312 311 309 309 306 303 307 311 310 311 311 310 311 310 311 312 311 311 311 312 312 312 312 310 312 310 311 312 314 313 313 314 312 309 310 309 309 308 308 311
305 305 305 305 306 306 310 309 307 308 305 312 311 313 314 312 313 311 312 311 311 312 311 309 308 310 310 310 310 310 311 313 314 314 318 314 314 314 311 309 308 309 308 309 311
304 305 307 305 307 307 309 309 309 308 307 313 312 313 313 313 313 314 314 314 315 315 314 314 314 312 310 311 310 312 316 316 317 318 316 310 314 313 309 310 309 307 308 307 309
304 305 306 306 307 309 309 309 311 308 309 309 310 311 312 312 312 313 314 315 314 314 315 314 311 313 312 312 312 313 313 316 316 314 311 307 314 312 308 309 308 308 307 309 309
302 305 306 306 307 309 308 311 307 307 310 311 310 311 310 310 311 312 313 313 312 314 316 315 311 309 310 310 311 314 315 312 315 314 317 313 309 308 307 307 307 308 309 309 308
305 305 306 307 307 309 309 312 307 308 310 309 311 309 311 312 312 313 313 309 311 310 309 310 310 307 309 310 311 313 311 315 315 315 315 313 311 310 307 308 307 306 311 311 308
304 307 306 306 308 306 311 310 310 309 309 309 311 311 311 312 311 313 310 308 309 308 310 310 310 308 311 311 311 314 313 315 313 315 315 312 310 305 306 305 306 312 312 312 311
305 306 305 308 305 303 311 311 312 311 310 311 311 312 311 311 313 312 311 307 306 307 311 309 312 312 309 308 309 310 313 313 315 314 314 312 312 307 305 307 311 308 313 313 311
307 309 307 305 308 310 311 312 312 311 312 312 312 313 312 313 314 313 310 308 307 308 308 309 312 312 308 310 309 312 312 312 314 313 315 314 311 306 305 305 307 311 314 313 310
306 309 302 307 308 311 311 312 313 311 312 313 313 313 312 314 313 314 313 310 307 308 310 310 311 310 312 312 314 314 312 312 313 315 314 314 311 309 308 308 308 311 313 312 308
307 308 306 307 309 310 310 311 313 313 312 312 313 313 312 314 313 315 312 310 310 309 311 311 316 312 312 312 313 314 315 314 314 314 315 313 313 311 310 309 311 312 313 312 309
310 311 307 307 309 310 311 311 313 313 311 313 313 312 312 314 313 313 312 310 311 310 311 312 316 314 315 315 315 316 316 315 314 314 314 314 314 311 310 312 313 315 313 314 311
304 308 311 309 310 312 311 311 312 312 312 310 312 313 313 313 311 312 310 310 311 313 313 315 314 316 318 317 318 323 321 321 317 314 313 316 313 311 312 313 315 314 314 315 314

GFSSW_925_thetae_036.txt.gz
Theta_e
317 319 319 319 316 316 314 315 315 315 315 315 315 316 319 322 323 323 323 322 321 322 320 320 318 319 320 321 327 326 325 325 324 324 323 323 323 323 323 324 325 324 325 326 326
315 317 319 319 319 316 315 314 315 315 314 314 315 315 319 322 323 323 322 321 322 324 321 320 320 318 321 322 325 327 327 324 323 324 323 323 323 325 325 324 325 326 324 325 328
313 315 317 318 319 317 316 315 313 314 313 313 313 313 318 322 323 323 323 325 324 325 322 321 319 319 320 322 324 326 327 324 326 325 326 326 326 325 325 326 325 326 325 325 326
310 313 314 316 318 318 316 316 313 312 312 311 312 311 315 319 325 320 321 321 325 325 323 322 320 321 322 322 321 325 324 325 325 326 327 327 326 327 326 325 324 324 324 326 327
307 309 313 313 316 317 316 316 314 311 312 310 312 312 316 317 318 317 315 316 321 324 324 322 322 321 322 321 322 322 321 321 321 322 322 321 323 324 324 325 325 326 326 326 327
306 306 310 311 314 315 317 315 315 312 312 310 311 312 312 314 312 314 315 317 322 323 323 322 322 318 320 321 321 320 321 321 320 321 320 321 321 321 321 321 321 322 323 324 326
306 307 307 309 312 315 316 314 314 312 310 309 310 313 313 311 310 311 313 315 319 322 323 321 319 320 321 322 320 320 322 320 320 319 320 319 321 321 320 320 320 321 321 322 322
305 306 307 308 310 313 315 315 314 312 311 310 310 311 310 308 310 310 311 313 317 319 321 320 320 320 320 317 318 319 319 322 319 319 319 319 320 318 319 320 321 321 321 321 321
304 305 306 307 309 310 314 316 313 312 312 312 311 309 313 307 309 309 311 313 314 314 314 319 318 319 318 321 321 320 322 321 320 317 319 320 322 320 320 319 320 321 321 322 322
304 305 306 307 308 309 313 316 313 312 312 313 311 312 311 311 309 310 310 311 313 314 314 316 315 316 315 318 321 319 320 319 319 317 317 318 319 319 318 318 319 320 320 320 320
303 304 305 305 307 308 310 313 308 309 310 311 312 312 311 310 311 311 310 311 312 315 317 315 317 318 316 316 316 316 318 319 318 316 316 317 317 316 316 316 316 316 317 317 319
303 303 304 304 306 307 309 311 311 311 312 310 312 312 311 311 312 311 310 312 313 316 315 315 316 314 313 315 316 316 317 318 316 314 314 314 314 313 312 313 313 314 314 314 314
303 303 303 304 304 305 308 310 310 308 312 310 310 312 312 311 313 313 311 312 313 315 315 316 314 311 313 314 316 316 317 316 316 314 312 313 314 314 313 312 312 312 312 313 313
303 303 304 304 303 305 307 308 309 310 316 311 311 310 311 312 313 311 311 312 313 314 314 314 313 312 313 314 314 315 312 313 313 314 317 313 317 315 314 314 313 313 313 313 313
302 304 305 305 304 306 310 309 308 307 320 310 311 310 311 311 312 313 310 311 313 313 313 314 313 314 313 313 312 314 312 312 313 315 314 315 316 315 314 314 313 313 314 313 313
304 303 305 305 304 305 309 309 307 314 317 313 311 314 314 311 312 312 312 311 311 312 313 312 311 312 313 312 312 312 313 313 313 315 319 315 316 315 314 314 314 312 312 312 312
303 303 305 305 305 305 305 308 311 319 310 313 312 314 313 312 314 314 314 314 315 316 316 314 314 312 312 313 312 313 315 317 319 318 317 312 314 315 312 312 312 313 312 312 312
301 303 305 304 306 305 308 308 317 311 312 311 312 313 314 312 313 313 315 315 314 313 316 317 318 314 313 313 313 314 314 317 317 315 314 311 314 313 312 312 312 312 312 311 312
302 305 306 306 305 306 306 315 314 311 311 311 311 312 312 311 312 312 314 314 313 313 316 317 314 310 313 312 312 314 316 313 316 315 317 313 311 312 311 311 311 311 311 312 313
303 306 306 306 307 306 307 315 309 311 310 311 313 311 312 311 313 312 312 312 312 312 312 313 316 310 311 312 312 314 312 315 316 315 314 313 312 313 311 311 311 310 311 312 312
303 307 305 305 303 304 312 312 312 310 310 312 312 312 312 313 312 313 313 311 312 311 313 312 311 311 310 312 313 313 314 315 313 314 316 315 314 310 310 309 310 309 311 312 314
304 308 305 307 306 305 311 312 311 311 312 313 312 312 313 313 313 314 313 311 309 311 313 311 312 313 312 310 310 311 312 313 317 315 315 316 316 310 310 310 310 310 310 312 315
307 307 306 307 310 311 309 313 312 312 313 313 314 313 312 313 315 313 312 310 309 311 312 311 313 315 314 314 311 312 312 312 314 314 317 318 315 310 309 308 309 310 310 311 315
305 309 305 305 308 310 313 314 313 313 313 314 313 313 314 314 313 314 313 311 309 310 310 311 313 313 315 316 316 317 314 313 314 316 316 317 315 312 311 311 311 311 311 314 316
308 309 307 310 310 312 312 313 313 314 313 313 313 314 313 315 314 316 313 312 311 310 311 311 315 314 314 313 314 315 316 316 315 315 316 315 315 315 313 313 312 312 314 315 316
308 311 309 308 309 312 312 313 313 313 314 314 314 313 313 314 313 314 312 312 313 311 311 312 316 316 315 314 315 317 318 318 317 316 315 315 316 313 313 313 312 312 313 316 315
304 306 311 309 309 312 312 312 312 313 312 312 313 313 313 312 311 311 312 312 312 313 314 314 315 316 320 316 318 325 323 321 320 317 316 318 315 313 313 313 313 315 315 316 315

GFSSW_925_thetae_039.txt.gz
Theta_e
314 316 318 319 320 319 317 316 315 316 316 316 316 316 316 320 321 323 324 324 323 321 321 322 320 320 321 322 324 327 329 327 325 323 324 324 323 324 323 324 325 325 325 328 328
310 313 315 318 318 319 318 317 316 316 316 315 315 315 315 321 323 322 322 323 322 323 322 321 321 321 322 323 324 328 326 324 322 322 324 324 324 324 324 324 324 326 325 326 329
308 309 311 315 317 318 318 317 316 316 315 313 313 313 316 321 323 323 323 324 325 325 323 321 320 320 322 323 324 325 327 323 323 325 325 325 323 324 325 326 324 324 326 326 328
306 308 308 311 314 316 318 318 317 315 314 311 312 312 315 320 326 323 322 324 326 325 324 322 321 321 322 323 323 325 324 324 324 325 327 327 325 325 325 325 324 325 327 327 327
305 307 307 308 311 313 316 318 317 315 314 311 311 313 315 318 321 320 317 317 322 326 325 324 323 322 324 322 321 323 323 321 322 323 324 324 324 325 325 325 324 325 325 326 327
304 306 307 308 308 311 314 316 317 315 314 311 310 312 315 318 314 316 315 317 320 324 325 323 323 322 323 322 322 322 322 322 322 322 322 323 322 321 321 321 321 322 324 324 326
304 304 306 307 308 309 311 315 316 315 314 311 309 314 314 314 311 313 314 318 321 322 324 323 322 321 322 323 321 321 323 322 322 321 321 320 322 322 321 321 321 321 321 321 321
303 304 305 306 307 309 310 314 317 314 313 313 309 312 314 311 312 311 313 317 320 322 322 321 320 321 321 319 320 321 322 324 321 320 320 320 323 320 320 321 321 321 321 321 321
303 303 304 306 307 308 309 312 315 313 313 313 312 312 315 308 309 310 312 316 317 319 321 321 320 321 321 322 323 322 324 323 322 320 320 321 324 321 321 321 321 321 321 322 321
303 303 304 304 305 306 308 309 314 314 313 313 312 313 312 313 310 310 311 315 316 316 319 319 319 320 321 323 326 324 323 322 321 320 319 319 320 319 319 320 321 321 321 321 321
303 303 303 304 305 305 307 310 314 315 314 315 314 313 313 311 310 310 311 314 315 316 317 316 318 319 319 318 319 318 319 320 319 318 318 319 318 318 317 318 318 318 319 319 319
302 303 304 304 304 305 305 308 309 310 314 312 312 312 312 311 313 311 311 314 316 318 316 317 319 317 316 316 317 318 319 319 318 316 316 316 316 315 315 315 316 315 316 316 317
302 303 304 304 304 305 305 305 307 309 314 313 312 313 313 312 314 313 312 313 315 316 316 319 316 313 315 316 317 317 317 317 317 316 315 315 316 317 316 316 315 315 314 314 315
302 303 303 302 303 305 305 305 307 308 315 313 313 312 313 313 315 312 312 313 314 316 316 317 315 313 314 316 315 317 314 314 314 316 318 315 320 316 316 316 316 315 315 314 314
302 303 304 304 305 306 306 305 308 308 322 313 312 311 313 313 314 314 311 313 314 314 314 317 314 315 315 314 313 315 313 314 314 316 316 316 318 317 315 315 315 315 315 315 315
302 303 304 304 306 305 306 308 306 310 321 314 312 312 313 312 314 313 313 312 312 313 313 315 312 313 314 313 313 313 313 313 313 314 319 316 317 316 315 314 314 315 315 314 313
302 303 304 306 306 306 305 307 310 316 312 314 313 313 313 312 314 315 314 314 316 317 316 315 314 312 312 314 313 313 315 319 321 319 318 314 315 315 314 314 313 314 314 314 313
302 302 306 306 306 306 302 308 317 315 313 311 313 314 314 312 314 314 315 315 313 314 316 316 320 315 313 314 315 313 315 318 319 315 316 315 315 314 314 313 312 312 313 312 312
301 304 307 306 306 302 305 312 319 314 312 312 313 316 315 313 314 315 315 314 313 313 317 317 316 312 313 313 312 314 315 313 315 314 316 313 313 313 313 313 312 312 312 312 312
303 305 306 306 306 305 309 315 312 311 311 312 314 312 314 314 315 314 314 313 313 313 313 315 318 312 313 312 313 314 313 315 317 317 317 315 315 315 314 313 312 312 311 312 313
304 306 306 307 306 307 312 315 312 311 311 313 313 312 312 312 313 313 314 313 313 313 312 313 313 313 312 313 314 314 315 314 314 316 318 318 317 312 311 312 311 311 311 312 312
304 306 306 304 308 306 312 313 311 311 312 313 313 313 313 313 313 314 315 313 312 312 313 312 314 314 313 311 311 312 313 313 316 316 316 318 318 313 312 311 311 311 312 311 311
303 306 306 307 312 310 311 313 312 313 314 314 315 313 313 314 315 314 313 311 311 312 313 312 313 315 316 314 312 313 312 313 314 316 319 320 318 311 312 311 311 311 311 311 311
304 308 307 309 310 312 314 314 314 313 314 314 315 314 314 315 314 314 313 312 310 311 312 312 313 314 317 319 316 319 315 315 316 318 317 318 317 315 314 314 313 311 311 312 313
309 309 308 311 311 312 313 313 314 314 314 314 314 315 315 316 315 315 314 313 312 311 311 312 315 313 314 314 314 317 317 318 318 317 318 317 317 317 316 314 314 314 313 313 313
307 310 310 310 310 312 312 314 314 314 314 315 315 314 314 315 315 315 314 313 313 312 312 312 315 317 314 314 316 319 318 319 320 320 319 318 318 315 314 313 313 314 313 313 315
303 305 310 310 311 312 312 313 314 313 313 313 313 314 314 313 313 312 312 313 313 314 313 314 315 315 317 316 317 324 324 322 321 320 320 319 317 315 314 314 315 314 315 315 315

GFSSW_925_thetae_042.txt.gz
Theta_e
309 310 312 314 316 318 319 319 317 317 317 317 316 317 316 316 319 321 321 323 324 323 318 325 322 320 320 322 322 324 329 328 327 325 324 321 323 323 323 322 322 324 323 328 335
306 308 309 311 313 316 317 318 319 317 317 316 316 316 313 316 321 320 320 322 324 325 320 321 321 321 321 322 322 327 330 330 324 322 323 322 323 323 323 322 322 322 324 328 329
305 306 307 309 309 312 315 317 319 318 317 316 315 313 312 317 321 320 321 323 325 324 324 321 320 321 322 322 322 324 327 323 322 321 326 326 324 323 323 324 323 321 323 324 329
305 304 306 307 308 310 312 314 318 316 317 315 314 311 311 317 324 323 323 324 325 325 324 323 320 321 322 323 321 323 323 323 323 323 325 326 325 325 322 322 322 321 323 325 326
305 305 305 306 308 309 310 312 315 317 316 315 311 312 313 319 321 321 321 324 325 324 325 324 321 321 322 320 321 322 322 322 322 322 322 324 324 324 323 322 322 322 322 324 325
305 305 304 306 306 308 309 311 314 318 316 315 310 312 315 317 316 318 317 317 320 325 325 325 322 321 322 322 321 321 322 321 320 321 321 321 321 321 320 318 319 320 321 321 322
305 305 304 304 305 307 308 310 312 316 316 315 310 313 314 314 311 315 315 317 320 322 325 325 323 321 322 323 321 321 322 321 321 321 321 320 321 321 320 319 319 318 318 319 319
304 304 304 304 305 307 308 308 310 314 315 314 313 313 315 313 312 311 315 317 319 321 323 323 322 321 322 319 321 322 322 325 321 321 320 320 321 319 318 318 319 318 318 318 318
303 304 304 304 304 304 307 308 308 312 315 313 312 313 314 310 311 312 314 317 319 320 322 322 321 322 321 322 324 322 322 322 322 320 320 319 321 320 320 320 319 318 317 318 317
303 304 304 302 305 305 304 306 308 310 314 312 312 313 312 313 310 311 312 316 317 320 322 322 322 322 322 323 325 323 322 321 321 320 319 319 319 318 317 317 316 318 317 317 318
303 303 303 303 305 305 305 305 311 311 313 313 313 313 312 312 311 311 313 316 315 319 319 320 322 323 322 322 322 321 319 319 317 318 317 317 317 317 316 315 315 316 315 316 317
303 302 303 303 304 305 304 305 306 308 315 313 313 313 312 311 313 312 313 316 316 318 316 317 318 317 317 317 318 317 318 318 317 316 315 315 315 314 314 314 314 314 314 315 315
302 302 303 304 302 303 304 304 305 306 310 313 313 313 313 312 313 313 313 315 316 317 317 318 316 316 317 317 317 316 317 317 316 315 313 313 314 314 315 313 313 313 313 313 312
302 302 303 304 304 303 304 304 305 304 310 316 314 313 313 314 314 312 312 314 315 317 317 317 315 314 315 317 316 317 315 315 315 315 316 314 317 314 313 313 313 311 311 311 311
301 302 303 304 304 304 305 305 304 303 315 314 313 312 313 314 314 313 312 313 315 315 316 317 315 316 315 315 314 315 314 314 314 315 314 314 315 314 314 313 313 313 312 311 311
302 302 303 303 305 304 305 305 304 308 314 316 311 314 315 315 314 313 313 312 313 314 314 315 313 313 314 313 313 313 313 314 313 314 315 314 315 314 312 312 312 311 313 312 311
302 303 303 304 305 306 306 306 307 311 312 315 314 313 314 315 315 314 314 314 315 315 317 314 314 312 313 314 313 313 314 313 318 317 313 313 315 314 312 311 311 311 313 311 311
303 303 305 306 306 305 305 308 310 313 316 311 313 313 314 313 315 314 314 314 313 313 317 315 317 314 312 313 314 313 315 313 318 317 316 313 314 311 311 311 311 311 310 310 309
302 304 306 306 306 303 305 312 313 314 312 314 314 315 314 313 314 314 314 314 313 313 317 316 317 313 313 313 313 313 314 312 315 312 310 311 309 309 310 310 310 310 310 309 308
304 304 306 305 304 304 307 315 312 312 312 313 315 313 315 313 315 316 315 313 312 312 312 316 317 313 314 312 312 313 312 315 312 308 314 313 312 312 311 311 311 309 308 308 310
304 303 306 304 303 308 311 311 313 311 312 313 312 312 313 313 314 313 312 313 312 312 312 313 313 313 312 313 314 313 314 313 313 315 313 316 314 311 312 312 312 311 310 310 309
305 307 305 305 308 307 310 311 312 313 313 313 312 311 312 312 313 312 314 313 312 312 313 312 314 314 313 311 311 312 313 312 313 312 313 313 315 312 311 309 310 309 309 309 309
305 305 305 305 309 310 308 313 312 314 314 314 314 313 311 312 313 314 314 311 312 312 313 312 314 310 315 313 311 311 312 313 313 314 315 316 314 310 310 312 312 310 308 309 310
306 309 306 309 310 309 314 314 315 315 315 314 314 313 313 314 313 314 314 312 311 312 312 312 313 313 314 315 314 312 313 312 314 316 315 315 314 313 314 315 315 314 312 311 310
309 309 309 311 312 312 313 314 313 315 314 314 315 315 314 314 314 314 313 313 311 312 311 311 314 313 313 312 312 313 315 315 317 317 318 318 318 317 317 315 314 313 312 311 312
307 309 310 310 310 313 313 314 315 315 315 314 315 314 314 315 315 314 314 313 314 311 312 311 313 310 310 312 312 313 315 316 316 318 320 321 321 316 314 312 314 314 314 314 314
303 304 307 310 311 312 313 314 314 314 314 313 314 314 315 314 313 312 312 312 312 312 312 313 312 314 316 316 316 319 319 320 321 321 320 321 319 316 316 316 315 315 314 314 314

GFSSW_925_thetae_045.txt.gz
Theta_e
306 306 307 309 310 312 314 317 318 320 318 317 317 317 316 316 315 317 320 318 321 325 320 324 321 321 321 319 320 320 323 325 326 325 323 320 320 321 321 321 320 321 324 329 338
307 306 306 306 308 310 311 314 316 318 319 317 316 316 316 315 317 319 318 320 323 324 325 321 322 320 318 319 320 321 325 326 323 322 321 322 322 320 321 321 321 321 325 330 338
306 306 306 304 307 307 309 311 313 316 319 318 316 316 315 315 319 318 317 321 325 325 324 320 320 319 320 319 319 321 325 324 325 322 322 324 323 322 321 322 319 320 320 324 330
306 306 306 305 306 306 308 309 311 314 318 317 314 315 314 316 320 323 323 322 324 326 323 323 322 321 320 321 319 321 321 322 323 321 323 325 323 324 322 320 318 319 320 322 323
306 306 306 306 305 305 307 308 310 313 315 317 314 315 314 317 319 321 324 323 325 323 324 324 323 320 320 318 318 320 320 320 320 319 320 320 322 322 321 319 317 317 318 321 321
306 306 305 305 305 304 306 307 309 312 314 317 314 314 314 318 317 318 320 323 324 324 324 324 321 317 319 320 318 318 319 320 319 319 319 320 319 319 319 317 316 315 316 316 318
305 305 304 304 304 304 306 307 308 310 312 317 312 314 313 315 313 316 316 317 318 322 324 323 324 320 321 322 320 320 321 320 319 319 319 319 320 319 317 317 317 317 315 315 315
304 304 304 304 304 305 305 306 307 308 310 315 312 313 314 312 311 314 315 316 320 321 322 323 323 321 321 318 320 321 321 323 320 320 319 319 321 318 316 316 317 317 317 314 315
304 304 304 304 304 304 304 304 306 307 308 316 314 313 313 312 312 312 314 317 320 322 321 322 321 322 321 322 322 321 321 321 321 318 320 319 320 318 316 316 314 315 316 316 316
304 304 304 304 302 304 305 305 303 307 309 313 311 313 312 311 311 312 314 316 318 321 322 322 322 323 321 322 324 322 321 319 319 318 318 318 317 316 315 314 313 312 313 312 314
303 303 303 304 303 302 304 303 305 309 310 310 311 312 313 311 311 311 312 314 318 320 321 322 321 323 320 319 319 320 319 317 315 316 315 316 316 314 314 313 314 314 311 313 315
302 303 303 303 303 303 302 303 304 305 307 308 312 312 311 311 312 312 312 316 319 320 316 318 319 318 319 320 321 319 316 316 315 314 313 312 313 312 312 312 312 313 311 312 313
302 302 303 303 304 302 302 303 305 302 305 312 313 313 312 312 313 312 313 315 317 319 317 316 315 315 316 316 316 315 316 316 315 312 310 311 313 311 311 310 311 312 311 311 311
302 302 303 303 304 303 304 303 304 303 308 312 314 314 312 313 314 312 313 314 316 317 317 317 314 314 315 316 315 317 313 314 314 313 313 310 315 310 311 310 310 308 308 310 309
301 302 303 303 302 304 304 304 303 304 311 312 315 312 313 315 313 313 312 314 316 316 316 315 315 314 314 315 314 315 313 313 313 312 311 311 312 310 309 312 310 309 306 306 308
301 302 303 303 303 303 304 304 304 307 310 315 314 315 314 314 314 312 313 312 312 314 314 313 311 312 314 313 312 312 312 312 312 310 311 311 312 309 310 311 311 310 310 309 307
303 304 305 304 305 305 305 304 302 306 307 314 316 314 315 315 313 314 315 314 312 312 310 313 313 311 312 314 312 314 312 306 318 317 311 311 313 311 310 310 309 308 308 309 307
304 304 305 306 305 305 305 305 305 307 310 313 315 314 317 315 314 315 314 313 312 312 309 309 310 313 311 312 313 313 312 308 316 315 313 310 314 311 308 310 307 308 308 307 307
305 304 305 305 305 305 304 308 309 314 313 315 314 314 315 314 315 314 314 313 311 311 312 312 314 313 312 312 311 313 313 310 313 308 302 308 306 306 307 309 307 307 306 305 305
304 303 305 305 304 303 307 313 310 311 313 312 315 313 315 315 314 314 314 311 312 311 310 315 316 313 314 312 312 309 309 309 304 303 311 310 309 310 310 311 309 308 307 306 306
302 304 304 304 303 305 309 310 310 312 312 313 312 314 311 314 313 314 313 312 310 311 311 313 312 313 314 312 312 312 315 312 310 309 309 314 312 307 309 311 309 308 309 309 308
301 306 304 304 305 306 308 306 312 312 312 313 310 311 310 312 313 313 311 312 310 311 312 312 312 315 311 310 309 310 311 309 304 307 309 306 313 309 309 308 310 311 312 309 305
305 304 304 304 308 308 307 311 313 315 315 314 313 311 311 312 312 313 313 310 312 312 312 312 313 303 314 310 310 310 311 310 310 311 306 310 312 307 307 310 312 314 313 312 311
305 305 305 307 307 308 314 314 315 314 314 313 310 310 312 313 311 314 313 311 310 311 314 311 311 307 309 310 311 309 311 310 311 312 313 312 312 311 311 315 315 313 312 312 311
305 307 307 309 310 312 313 313 315 315 313 313 312 312 314 315 313 313 313 311 310 311 310 310 310 312 311 311 311 310 311 312 312 313 315 313 315 316 317 318 316 313 313 313 312
307 307 305 307 311 312 313 314 315 314 314 314 314 314 313 314 314 313 313 312 311 310 310 309 306 308 303 309 310 310 312 312 313 313 315 316 318 317 317 316 315 315 315 313 311
302 304 307 307 308 309 311 312 314 313 312 312 312 313 314 314 311 309 309 308 310 309 311 312 311 302 306 312 313 315 315 314 315 316 317 322 319 319 318 318 312 310 308 309 312

GFSSW_925_thetae_048.txt.gz
Theta_e
308 307 307 307 306 307 309 311 313 316 317 320 318 317 317 316 315 314 317 317 317 324 320 323 321 320 321 317 318 316 321 324 324 321 321 320 321 318 319 319 320 319 326 332 337
307 307 306 307 307 306 307 309 311 313 315 317 318 317 316 315 315 315 314 317 320 323 327 321 323 320 318 318 318 318 321 323 321 321 322 320 322 321 319 320 319 325 326 336 337
308 307 306 306 306 306 306 306 309 311 313 316 319 317 315 314 315 316 313 318 320 323 325 325 321 319 320 318 318 319 323 321 323 323 322 323 322 321 322 321 318 321 327 326 333
308 307 307 306 306 306 305 305 306 309 311 314 318 316 313 314 318 321 323 320 322 325 325 322 322 321 320 321 318 321 320 322 323 322 321 322 323 323 322 320 319 318 318 318 324
307 307 306 306 305 305 305 305 306 308 310 313 315 315 314 314 316 316 323 322 324 324 323 322 323 321 320 319 319 319 319 319 319 319 319 318 320 321 321 319 317 315 317 317 318
305 306 306 306 305 305 305 305 306 308 309 312 313 314 313 314 313 315 321 323 324 324 324 323 323 319 318 318 319 318 318 319 319 319 318 320 318 318 318 317 316 316 315 314 316
305 305 305 305 305 305 305 305 306 306 308 310 312 313 313 312 312 317 320 322 323 323 323 323 323 319 319 321 319 319 320 319 319 319 319 319 320 319 317 315 316 315 314 315 313
304 304 304 304 304 304 304 305 305 306 307 309 310 314 313 311 312 314 315 317 318 322 322 322 323 321 320 318 319 320 319 322 319 319 318 318 322 318 315 315 315 314 315 314 314
304 304 304 304 304 304 304 304 305 306 307 308 311 312 312 310 312 311 315 316 320 321 321 323 322 322 320 320 320 319 320 321 320 318 319 318 320 317 317 315 314 313 312 313 313
303 303 303 303 304 304 302 303 302 306 307 309 312 311 310 311 312 312 312 315 319 321 322 322 323 324 323 321 324 322 321 319 319 317 317 318 318 316 314 314 314 312 311 311 312
303 303 303 303 304 304 304 302 301 305 309 308 309 311 311 311 312 312 313 314 319 320 323 323 324 325 324 322 318 318 320 318 315 314 313 313 312 312 312 311 312 313 312 311 311
302 303 303 303 304 304 302 302 303 303 306 308 309 310 311 311 313 312 312 317 320 320 318 322 321 319 320 320 321 321 320 317 314 313 313 312 312 311 311 311 311 312 312 312 311
301 302 303 303 303 304 302 303 303 303 306 308 308 311 311 311 312 312 313 316 319 319 316 318 315 316 317 319 320 315 315 315 315 312 310 310 311 310 309 309 309 310 311 311 311
301 301 302 303 303 303 303 304 303 303 307 311 312 314 312 313 313 312 314 315 317 319 316 315 314 316 316 316 314 316 312 313 313 312 313 310 312 310 309 309 308 306 306 307 308
303 303 304 304 303 303 304 304 303 303 311 311 314 312 313 314 312 313 312 314 316 316 315 315 314 314 314 315 313 314 312 312 312 311 310 310 312 309 307 310 309 308 306 305 304
304 304 305 305 304 303 303 304 303 303 309 313 314 315 314 312 313 313 313 311 313 316 314 312 311 312 312 311 312 311 310 310 309 307 306 309 311 309 309 311 310 309 305 306 306
305 305 306 305 304 304 303 303 302 306 306 313 316 315 314 314 314 315 315 313 313 315 315 313 313 311 311 312 311 310 307 304 307 306 309 309 311 310 308 309 308 307 305 303 303
304 304 305 305 305 304 304 304 305 307 307 312 314 315 317 313 315 315 314 314 312 310 309 312 311 312 310 312 312 311 308 305 310 315 311 308 312 310 308 306 305 304 305 305 304
303 304 305 304 305 304 304 307 310 308 310 315 314 315 317 314 315 314 314 313 311 310 310 308 312 312 310 311 310 311 306 308 308 303 302 307 305 303 306 308 307 306 306 306 306
302 303 305 303 305 303 305 312 311 309 313 313 314 313 316 314 315 314 313 311 311 309 310 312 311 313 312 312 311 309 309 307 299 300 309 308 308 308 307 310 308 307 307 307 307
303 302 303 303 303 304 306 310 308 312 313 312 312 312 313 313 313 313 312 311 310 310 310 312 308 314 313 312 311 312 312 310 306 305 307 312 310 305 308 309 308 307 308 312 311
301 305 303 304 304 306 308 306 310 312 312 313 309 311 311 312 313 312 312 312 309 309 312 312 310 311 313 310 308 310 310 309 304 305 305 304 310 307 307 307 307 310 312 311 311
301 303 304 304 307 308 306 309 312 314 313 314 311 310 310 311 312 311 312 311 310 310 311 311 310 306 312 309 309 310 310 309 307 309 302 310 310 306 306 308 309 314 314 310 310
303 300 301 306 305 308 311 312 315 314 312 310 310 310 311 312 311 312 311 311 310 312 314 311 308 306 308 307 307 305 310 309 307 307 307 308 310 310 309 311 314 316 315 310 313
301 304 305 310 312 311 312 312 314 315 312 311 312 311 313 313 312 313 311 310 310 311 310 309 309 310 309 310 311 310 310 309 306 311 311 312 313 312 313 315 316 314 314 314 314
305 305 306 308 310 310 312 314 313 313 313 313 313 313 312 313 313 313 311 310 310 309 309 307 304 308 303 308 309 308 309 310 310 311 313 313 314 312 313 316 313 311 308 308 308
302 303 306 306 306 308 310 312 313 312 313 311 312 313 314 313 310 309 308 308 308 309 309 311 310 303 305 309 312 311 312 312 312 311 313 316 315 316 317 316 309 305 302 302 304

GFSSW_925_thetae_051.txt.gz
Theta_e
307 308 308 307 307 308 307 307 309 310 313 315 317 319 317 314 315 316 315 315 315 322 326 325 325 324 320 318 316 315 321 323 321 320 320 318 321 319 317 316 318 318 328 329 336
310 309 309 308 307 306 306 306 307 307 310 313 315 317 318 315 315 315 313 314 318 318 325 321 320 319 318 318 317 318 319 322 320 319 321 319 321 320 320 317 318 324 329 333 334
309 309 308 308 308 307 306 306 306 305 307 310 312 315 318 314 313 312 310 315 318 320 324 322 322 319 319 316 317 318 320 319 322 322 322 321 320 321 321 320 317 319 320 323 332
308 308 307 307 306 306 306 306 305 305 305 309 311 315 317 313 315 317 322 319 319 320 322 324 320 319 320 320 318 321 319 321 321 321 321 321 320 322 321 320 319 318 316 316 325
306 306 306 306 306 306 306 305 306 306 306 308 311 314 315 314 313 314 319 325 319 322 322 323 321 320 321 319 319 319 319 319 319 319 319 318 318 320 320 318 317 316 315 315 314
305 305 305 305 305 305 305 305 305 305 307 308 310 313 314 312 310 310 312 324 320 323 323 321 321 318 319 317 319 318 318 318 318 318 318 319 318 317 317 315 316 314 315 313 313
304 304 304 305 304 305 305 305 305 305 307 307 309 310 313 311 311 315 315 322 322 323 323 322 320 320 317 319 317 318 320 319 318 318 318 317 319 317 316 315 315 315 313 313 312
304 304 304 304 304 304 304 304 305 305 305 307 308 309 314 310 311 316 319 321 322 322 322 322 322 319 319 317 318 319 318 321 318 318 317 318 320 317 314 314 314 313 313 312 312
304 304 303 304 304 304 304 305 305 305 306 307 308 308 312 310 312 313 313 316 318 321 321 321 322 321 318 319 319 318 320 321 320 317 318 317 319 317 314 313 313 312 312 310 311
303 303 303 303 304 304 304 304 303 305 305 306 309 311 310 312 311 311 312 317 320 321 322 323 323 324 320 319 323 321 320 318 319 316 316 317 316 316 314 313 313 312 311 310 310
304 303 303 303 304 304 304 302 300 304 306 308 311 311 311 311 311 311 311 316 319 320 325 322 324 326 323 319 318 317 319 319 316 314 313 312 311 311 310 309 309 310 312 312 312
302 301 302 303 304 304 303 302 302 303 304 307 307 309 310 310 313 312 312 318 321 322 321 323 324 321 323 323 322 321 321 320 314 313 313 311 311 311 311 310 310 311 311 311 311
301 303 302 302 304 303 302 302 302 303 305 306 306 308 311 311 313 313 313 317 319 319 318 321 317 321 322 321 323 319 316 315 315 312 309 309 310 309 308 308 308 308 308 309 309
303 304 304 304 303 303 301 303 303 303 299 307 308 310 312 312 313 311 313 316 318 316 316 315 313 318 316 319 315 315 312 313 312 313 314 309 312 309 308 307 308 306 304 304 305
304 305 306 305 303 302 302 304 303 303 307 309 310 311 312 313 312 313 312 314 316 317 314 315 314 314 316 315 312 314 311 311 311 310 309 310 311 308 306 309 309 306 304 303 302
305 306 305 305 304 303 303 303 303 304 311 312 313 314 314 313 314 313 314 312 313 315 312 312 311 312 312 311 311 310 309 308 308 307 306 308 310 308 308 309 306 305 303 303 302
304 305 305 305 305 303 303 303 297 306 306 312 316 314 314 316 316 316 315 313 316 318 315 313 312 310 310 311 310 308 307 304 306 306 309 308 310 309 308 308 308 306 305 303 303
304 304 304 305 304 303 303 300 304 306 307 310 314 314 316 315 316 316 314 315 311 311 312 314 315 312 310 311 312 310 308 305 309 313 311 307 312 309 306 305 303 306 306 306 307
303 304 304 304 304 303 304 308 309 309 309 316 314 315 317 315 316 316 314 312 311 310 311 308 312 310 310 310 310 311 307 306 306 302 304 307 305 301 306 307 307 306 306 306 307
302 304 303 303 304 303 305 309 310 308 313 310 313 314 314 315 316 315 314 311 311 310 309 309 312 313 312 311 310 309 307 308 300 299 307 305 306 305 306 308 307 306 305 306 309
302 302 303 303 304 300 303 309 310 312 313 312 312 313 312 312 313 313 313 311 309 309 309 310 308 314 312 312 312 311 309 307 305 304 304 310 307 304 306 307 307 305 306 309 312
299 303 304 304 301 304 308 306 309 313 311 312 308 311 311 311 312 312 311 311 308 309 311 310 308 314 314 309 308 309 309 307 304 304 302 302 308 305 305 305 305 308 307 313 311
300 303 304 304 304 308 309 311 311 313 312 312 310 309 309 310 312 310 310 310 309 309 310 310 306 305 309 307 307 309 309 307 305 301 302 304 308 305 304 307 307 311 313 314 309
300 300 301 306 306 309 313 313 314 313 311 309 309 309 310 311 310 311 311 311 310 310 313 309 306 306 308 306 305 306 309 308 304 303 306 305 307 308 308 308 311 315 313 312 312
299 305 305 310 310 312 311 313 312 313 311 309 310 310 312 313 312 312 310 310 310 312 309 308 309 308 308 308 309 309 309 308 303 308 305 308 309 309 309 310 313 311 309 307 306
304 304 304 308 309 307 309 311 312 312 311 312 312 312 311 312 312 312 310 309 311 309 309 306 308 308 303 307 308 308 309 309 308 309 309 310 311 309 310 313 314 308 304 304 302
302 302 305 305 305 306 309 311 312 312 311 311 312 312 313 312 309 308 307 307 308 308 309 310 310 304 305 307 310 309 309 309 309 308 311 312 311 314 315 316 310 304 300 300 298

GFSSW_925_thetae_054.txt.gz
Theta_e
310 310 311 310 310 309 308 308 307 306 307 309 312 314 316 319 316 316 317 314 316 319 324 321 322 325 320 318 315 314 320 321 321 320 320 318 319 319 316 316 316 317 322 327 334
309 308 309 309 309 309 309 308 307 307 306 307 308 312 314 317 316 316 313 315 316 318 320 325 325 319 319 318 316 317 319 321 318 317 318 319 320 320 320 318 318 322 322 331 340
308 307 307 308 308 308 307 307 307 307 306 305 306 309 311 315 315 313 314 316 317 318 319 322 322 318 319 316 317 317 319 318 321 319 321 320 321 320 321 321 317 318 317 320 334
307 307 306 306 306 307 307 307 307 306 306 306 305 309 311 315 317 312 318 317 318 318 320 322 319 321 320 319 317 320 318 318 319 319 320 320 319 321 320 319 318 318 317 316 318
306 306 305 305 305 305 305 305 305 306 306 306 307 309 312 315 312 315 317 320 318 319 321 323 321 319 322 319 318 319 319 318 319 319 318 318 318 319 318 317 316 316 315 316 315
305 305 305 305 305 305 305 305 305 305 306 306 307 308 312 315 312 312 311 316 318 320 321 322 321 318 319 318 319 318 318 318 318 318 317 318 317 316 316 314 315 315 315 314 313
305 305 304 304 304 304 304 305 305 305 305 306 306 308 312 313 311 313 314 318 319 321 321 322 320 320 316 318 316 317 319 318 317 317 318 316 318 317 314 314 314 313 312 313 312
305 304 304 304 304 304 305 305 305 305 305 306 305 307 311 312 312 311 315 320 319 322 321 321 321 319 318 316 317 318 318 321 318 317 317 317 318 316 314 314 314 312 311 310 311
304 304 304 304 304 304 305 305 305 305 305 306 305 306 312 311 312 312 311 321 321 321 320 320 320 320 318 318 319 318 319 319 320 316 317 317 318 316 313 313 312 311 310 309 309
304 304 303 302 303 304 305 304 303 305 305 305 304 308 309 311 312 311 312 318 320 320 321 321 321 322 317 320 320 320 320 318 319 316 316 317 315 312 311 313 312 311 310 309 309
303 303 303 302 303 304 304 302 299 302 304 305 306 310 311 311 311 311 312 318 319 321 326 322 322 325 322 319 317 317 318 319 316 313 313 313 311 311 310 308 308 308 308 309 310
301 302 303 304 303 304 303 301 301 302 303 305 306 308 310 311 312 311 312 318 320 324 322 324 321 322 321 319 321 319 319 320 316 312 312 311 310 310 311 310 309 310 310 309 308
304 304 305 305 304 303 303 301 302 302 303 305 305 307 311 311 313 312 313 317 319 322 321 321 321 322 323 322 323 320 319 316 316 311 308 308 310 309 308 307 306 306 306 305 305
305 306 306 306 302 303 301 303 302 303 294 307 308 310 311 313 313 311 314 317 319 319 317 315 318 323 321 321 321 321 314 313 312 313 315 308 314 309 307 306 306 302 301 301 300
306 306 305 304 302 302 302 303 302 302 301 307 310 310 311 313 312 313 312 314 317 318 315 316 318 317 321 319 318 315 311 311 310 309 309 310 311 308 306 308 306 304 303 303 303
304 305 304 303 303 303 303 302 302 303 309 311 312 314 314 313 314 314 314 312 314 314 312 311 310 311 311 310 312 309 309 307 306 306 306 308 309 307 307 308 306 305 304 304 304
304 304 305 304 303 302 303 301 301 306 305 312 313 314 314 316 316 315 315 313 318 317 315 312 312 310 310 311 309 309 311 307 304 305 308 308 310 308 307 306 306 307 305 304 305
304 303 303 303 302 303 302 303 308 308 308 310 314 314 317 315 316 315 314 313 310 311 311 312 315 312 310 311 311 309 308 306 307 311 309 306 311 309 305 304 304 306 304 304 306
302 303 303 303 304 302 304 304 310 309 307 315 313 316 316 315 316 316 314 312 311 309 313 309 312 310 310 310 309 309 305 305 303 301 302 306 304 301 305 306 306 304 304 304 306
302 302 302 303 303 303 302 311 310 308 311 309 314 313 315 317 316 314 314 311 311 309 308 308 312 312 311 310 309 309 306 308 298 300 306 304 305 304 307 308 305 305 305 304 305
302 299 302 304 304 299 306 309 311 312 311 311 312 312 312 313 312 313 312 310 309 309 308 307 309 314 311 311 310 310 307 306 304 304 305 308 304 302 305 308 307 304 305 305 309
299 300 304 304 302 306 309 308 309 312 310 309 309 310 310 311 311 311 312 311 308 308 311 309 309 314 312 308 307 308 308 306 303 304 301 303 306 305 304 305 305 304 306 308 310
299 300 304 304 309 310 310 312 311 313 312 310 309 309 309 310 311 310 309 309 308 309 310 309 306 303 311 308 306 309 308 305 303 301 301 304 306 304 303 304 305 307 311 310 310
298 303 302 306 306 309 313 313 313 311 311 308 309 309 309 311 309 310 310 311 308 309 312 307 305 306 307 306 305 306 309 306 304 306 305 303 305 306 307 306 306 308 311 308 305
298 305 305 306 309 310 310 311 312 312 309 308 309 310 311 312 312 311 310 310 309 313 308 307 309 308 308 307 308 308 308 307 302 305 303 306 306 307 307 307 307 310 306 303 301
304 306 304 307 307 305 306 310 311 311 311 311 311 311 310 311 311 311 309 309 311 308 308 305 307 306 302 307 307 308 308 307 307 308 307 309 310 309 308 309 315 307 304 302 299
301 302 305 303 303 306 307 310 311 311 311 311 312 311 311 311 309 307 306 306 307 308 308 310 309 303 306 306 308 309 309 308 307 307 310 310 310 309 313 315 312 304 301 298 298

GFSSW_925_thetae_057.txt.gz
Theta_e
309 309 309 308 309 309 310 310 309 309 308 307 307 308 310 313 314 318 317 315 315 320 323 318 323 324 320 317 315 314 324 323 323 320 320 317 317 318 316 318 316 317 323 327 332
309 308 308 308 308 308 308 308 309 309 308 308 306 306 308 311 312 315 316 317 317 317 319 323 322 321 321 318 317 320 323 322 319 318 318 319 320 320 321 320 319 324 319 335 338
308 308 308 307 307 306 307 307 307 308 308 308 307 306 306 310 314 317 317 317 318 318 319 321 322 322 322 317 317 317 322 319 320 318 320 320 321 320 321 321 319 319 320 332 338
306 306 307 306 306 306 306 306 306 306 307 307 307 307 307 311 319 315 315 318 319 318 319 321 321 323 323 320 317 320 318 318 319 320 320 321 319 320 320 320 317 318 317 317 336
306 306 306 305 305 305 305 305 305 306 306 306 306 307 308 311 314 314 314 314 319 318 319 321 322 323 323 321 317 319 318 319 319 318 318 318 319 319 319 318 317 316 316 317 317
305 305 305 305 305 305 305 305 305 306 306 306 306 306 307 314 313 314 312 311 318 318 318 321 321 318 320 320 319 318 319 318 318 318 317 318 318 316 317 315 315 315 317 316 316
305 305 305 305 304 304 304 305 305 306 305 306 306 305 307 310 311 311 314 315 318 318 319 321 319 319 316 318 317 317 320 318 318 317 318 316 319 318 317 315 316 316 315 314 315
305 305 305 304 305 304 304 304 305 306 305 304 304 304 306 310 311 312 313 316 318 319 320 321 319 317 317 315 316 319 319 321 318 317 317 318 319 316 314 314 316 315 313 313 314
305 304 305 304 303 303 304 305 305 306 306 305 304 305 308 311 311 312 313 316 318 319 320 320 319 320 317 318 320 318 321 320 319 317 317 318 318 316 314 314 315 314 312 311 312
303 303 302 303 304 303 305 303 302 304 305 305 303 304 306 311 312 312 311 314 319 320 319 319 320 321 320 320 322 322 319 319 318 315 316 317 317 316 312 311 313 313 313 313 312
303 304 304 304 305 304 304 301 299 301 303 303 304 306 310 311 312 311 311 318 319 319 320 320 322 322 322 319 316 316 317 319 317 312 314 314 313 312 311 310 311 311 311 311 310
305 305 306 305 305 303 303 300 301 301 302 304 306 306 309 311 314 312 313 318 320 321 321 321 323 321 320 318 317 317 318 318 315 312 312 311 311 311 312 311 310 310 310 309 307
306 305 306 305 306 302 302 301 301 301 303 306 305 306 310 311 312 313 314 318 320 322 317 318 320 322 321 321 322 319 319 316 317 311 308 309 313 310 308 306 304 303 304 304 305
306 306 305 304 302 302 301 303 302 302 299 306 309 309 311 312 313 311 315 317 318 319 315 316 319 323 323 323 322 324 316 313 313 314 318 309 319 312 307 307 306 305 306 307 307
305 305 303 303 301 302 302 302 302 301 304 307 310 309 311 312 312 314 313 315 317 317 317 314 321 319 320 320 318 319 311 311 310 310 310 310 314 311 305 307 306 306 306 307 307
304 304 303 303 302 302 302 302 301 297 307 311 310 311 312 313 314 315 315 313 312 314 312 312 312 315 313 318 316 310 308 308 306 307 313 308 310 308 308 307 306 306 306 306 307
303 303 303 302 301 303 302 300 298 301 304 311 313 312 314 315 315 316 316 315 317 317 315 314 312 310 310 312 310 310 314 313 310 312 313 308 310 310 306 306 306 308 306 305 306
302 303 303 303 302 303 302 298 303 307 307 309 315 315 317 314 315 315 315 313 310 311 311 312 318 312 310 311 313 309 314 312 310 312 310 307 312 309 305 304 305 305 305 304 306
302 302 303 303 303 303 299 307 311 308 308 315 314 315 316 315 315 315 313 311 310 308 314 310 313 310 309 309 309 309 309 304 304 301 307 307 305 302 305 304 306 305 307 307 306
302 301 302 303 304 302 305 313 313 309 310 309 313 312 315 316 317 313 313 310 310 309 307 308 313 311 309 310 308 309 306 310 303 306 308 303 304 304 307 308 306 307 306 307 308
301 299 303 304 303 303 308 310 312 311 310 310 311 311 312 313 313 312 311 310 309 309 307 308 310 313 311 311 310 310 309 306 305 305 307 306 305 302 304 305 307 306 306 307 311
298 301 304 304 303 306 308 307 309 311 310 308 308 309 310 310 310 311 310 310 308 308 311 308 310 314 311 308 307 308 309 305 308 307 303 305 307 304 303 304 304 306 306 311 309
298 299 304 304 309 307 308 311 310 312 311 309 309 309 308 309 310 309 309 309 308 309 310 308 307 311 312 310 307 309 307 305 303 303 306 308 306 303 303 304 304 306 310 308 305
298 303 301 304 306 310 310 311 311 310 310 307 308 308 309 310 308 310 310 310 308 309 311 307 306 307 311 308 306 307 309 305 304 306 305 305 305 305 305 306 306 308 308 305 302
298 304 304 304 306 309 310 311 311 311 308 307 309 309 310 311 311 310 309 310 309 312 307 307 309 308 308 307 307 308 309 307 304 305 307 306 306 306 306 306 306 309 306 303 300
301 305 305 304 304 305 306 311 310 311 310 311 310 310 309 310 310 310 309 308 310 308 307 305 309 303 303 307 307 308 309 308 307 307 307 307 309 308 308 308 313 308 304 300 299
301 302 304 303 302 305 307 309 310 310 311 310 310 310 309 308 308 307 305 305 307 308 308 309 305 303 307 306 307 309 309 309 307 306 309 310 309 308 310 311 313 307 302 299 298

GFSSW_925_thetae_060.txt.gz
Theta_e
310 310 310 310 309 309 308 308 309 309 309 310 309 308 307 309 311 311 316 318 316 320 323 316 321 325 320 320 319 322 324 325 325 324 323 321 321 320 320 320 321 321 325 332 334
308 308 308 308 308 308 307 307 307 308 309 309 309 308 308 307 309 311 312 317 317 317 322 317 323 324 324 321 319 320 322 321 321 322 321 321 320 322 322 322 322 324 326 338 339
307 307 307 307 307 306 306 307 307 307 307 308 309 308 308 307 309 312 315 318 319 319 317 319 322 324 325 321 320 319 320 320 321 320 320 321 322 323 322 323 322 323 326 337 339
306 306 307 306 306 305 306 306 306 306 307 307 307 308 308 308 311 315 316 320 320 319 318 319 322 325 325 324 320 321 318 319 322 322 322 322 322 322 322 321 322 323 322 325 339
306 306 306 306 306 305 306 306 306 306 306 306 307 307 307 308 308 315 313 319 320 319 318 320 323 324 324 323 321 321 320 320 320 321 321 321 322 322 322 322 321 321 321 322 322
306 306 305 305 306 306 305 305 305 306 306 306 306 306 306 308 307 309 313 313 317 319 318 320 321 322 322 322 322 320 320 320 320 321 320 321 321 321 321 320 320 320 320 321 321
306 305 306 306 304 305 305 305 305 305 306 306 306 305 306 307 310 312 313 314 318 319 317 319 320 321 321 321 320 320 321 320 320 319 319 319 320 321 319 319 319 319 319 319 320
305 305 304 304 304 304 304 304 305 306 306 306 304 305 305 305 305 309 313 313 316 318 317 319 320 320 319 319 320 320 320 322 318 319 320 319 317 318 318 319 319 318 318 318 318
305 304 304 304 303 304 304 305 306 305 306 306 305 304 306 307 310 310 313 315 315 318 318 319 319 320 320 321 322 321 319 319 320 319 318 319 317 317 317 317 318 318 318 318 318
306 306 306 305 305 305 304 304 304 305 305 305 303 305 305 308 312 312 312 316 318 319 318 320 321 322 322 321 320 321 320 320 318 319 320 320 318 318 318 317 317 318 317 317 317
306 306 306 306 305 305 303 302 303 306 305 304 304 305 307 310 313 313 312 314 319 318 320 320 321 324 323 320 316 318 319 317 318 315 318 320 320 319 318 317 317 317 317 317 317
306 306 306 304 305 304 302 302 302 303 303 304 305 305 304 310 313 313 312 319 320 320 317 320 322 321 320 320 318 318 317 318 318 315 317 318 318 317 317 317 315 315 315 315 312
305 306 305 302 303 302 303 302 301 302 304 306 306 305 307 311 313 311 314 318 318 318 320 320 319 319 320 321 320 319 318 320 319 315 313 315 318 316 310 309 309 309 311 312 313
305 305 303 303 303 302 302 303 302 302 308 306 308 307 310 312 312 312 314 318 317 318 317 317 316 321 321 321 319 321 318 318 317 320 322 314 319 315 311 312 313 314 315 315 314
303 302 303 302 303 303 303 303 302 303 313 308 310 308 311 313 312 314 314 315 317 315 316 315 317 323 323 321 320 321 317 316 315 317 316 315 319 313 311 313 313 313 313 315 315
303 303 302 302 303 302 302 302 303 310 313 312 311 311 313 313 315 315 314 312 313 315 312 312 313 315 317 319 315 311 313 313 313 315 321 315 316 312 311 312 312 311 312 313 315
304 302 303 302 304 303 302 304 311 313 308 313 314 313 315 316 316 315 316 317 319 320 318 310 313 312 316 314 314 313 317 323 322 323 321 311 312 313 310 309 311 313 313 313 315
303 303 303 303 303 303 303 308 315 311 312 310 314 315 317 315 315 316 316 316 312 316 318 321 320 314 313 314 316 314 318 323 319 315 314 310 315 313 310 308 310 309 311 313 315
302 302 303 303 304 303 307 313 313 311 309 315 313 315 315 315 316 316 314 314 312 312 318 318 317 311 311 310 312 314 318 310 313 309 314 313 311 309 308 308 310 310 312 313 315
302 303 304 303 304 304 312 313 314 310 312 311 314 314 314 315 316 316 315 312 312 311 310 313 318 312 310 311 310 313 310 316 316 318 316 310 308 312 310 311 311 312 312 314 315
302 309 304 304 304 311 310 312 313 312 311 312 313 314 314 314 315 314 314 312 311 311 310 312 315 315 313 314 314 312 314 310 311 310 314 310 309 311 313 312 311 311 311 314 314
303 314 305 305 312 309 312 310 310 314 312 311 311 313 312 313 313 314 313 313 310 311 313 311 315 316 314 310 310 311 312 311 315 314 310 313 311 308 311 311 309 310 311 313 310
307 307 305 307 316 314 312 313 312 313 311 310 311 311 310 312 314 312 312 311 310 311 312 311 314 316 314 312 310 313 311 309 308 311 314 315 311 308 309 309 309 310 314 312 309
306 313 311 311 310 313 313 313 313 311 310 309 310 310 311 312 311 312 312 311 310 311 310 310 310 312 314 314 313 314 312 309 314 317 313 313 310 310 310 310 311 312 313 311 307
305 308 306 314 313 311 312 312 313 313 312 310 311 311 311 312 312 312 312 312 311 311 309 311 314 312 310 309 310 312 312 310 311 313 319 311 310 311 310 311 311 313 310 307 305
305 306 306 308 307 309 310 313 313 313 312 312 312 312 311 312 311 312 312 311 312 310 310 309 314 309 311 309 309 311 311 311 311 311 311 312 312 311 311 311 313 314 309 305 301
302 303 304 307 308 310 312 312 312 312 312 312 312 312 312 311 310 309 309 310 310 311 311 311 311 312 314 309 310 314 312 312 311 311 312 314 312 311 311 311 314 311 307 303 300

GFSSW_925_thetae_063.txt.gz
Theta_e
310 309 308 308 308 309 309 308 308 308 310 309 309 311 310 308 308 309 313 318 318 319 321 315 322 326 323 323 320 322 328 329 328 327 326 325 325 323 322 322 322 322 326 334 341
309 308 308 308 308 308 306 307 307 308 308 309 310 310 310 309 308 307 312 316 320 318 321 315 323 325 323 323 320 323 327 326 325 325 324 324 323 323 322 322 321 322 327 335 340
309 308 308 308 307 307 307 307 307 307 307 307 308 309 309 308 309 308 309 315 322 319 319 319 319 325 324 323 321 320 320 321 321 321 321 322 322 321 322 321 321 322 324 335 338
308 307 307 307 306 306 306 306 307 307 306 307 308 308 308 308 310 309 315 317 320 320 317 318 316 324 325 325 321 322 319 319 322 320 321 321 321 323 323 323 323 325 325 330 338
307 307 307 306 306 304 306 306 306 306 306 306 307 307 307 308 308 311 315 318 320 321 317 317 317 322 324 324 321 321 320 319 321 322 321 319 320 322 322 323 323 323 323 324 326
307 307 306 306 306 306 305 306 306 306 306 307 307 305 306 308 306 307 308 314 320 321 316 317 318 320 322 322 322 321 321 320 320 322 322 322 321 322 322 322 322 321 322 322 323
307 307 306 305 305 305 305 305 306 306 306 307 307 306 306 306 306 313 311 312 316 320 318 317 317 320 320 322 321 320 321 321 320 320 321 321 322 323 322 321 321 320 320 320 320
307 307 307 306 304 304 304 305 305 306 306 306 305 305 307 304 305 306 308 312 315 318 317 316 318 321 321 320 321 322 321 323 320 320 320 320 321 320 320 320 320 320 319 319 318
307 307 307 307 307 306 304 305 305 306 306 306 306 305 306 306 305 307 310 313 315 319 318 317 319 321 321 322 322 321 321 320 319 319 320 320 318 318 318 318 319 319 318 318 318
306 307 307 307 307 306 306 304 303 305 306 305 305 306 305 307 307 310 313 314 315 319 318 319 321 322 321 321 324 321 320 318 318 320 319 319 319 318 318 318 318 318 318 318 318
306 306 305 304 306 304 305 304 305 306 305 305 305 305 307 308 310 313 313 313 317 318 318 320 322 322 320 319 317 316 318 317 317 319 319 318 319 318 318 318 318 318 317 317 317
306 306 304 305 304 304 304 304 304 304 305 304 305 306 306 306 310 313 312 318 320 319 316 321 322 319 319 318 318 318 318 318 318 317 318 317 319 319 318 318 317 318 317 317 317
306 306 304 303 303 304 304 304 303 303 306 306 306 307 307 309 313 312 314 316 319 317 319 321 320 318 322 320 319 317 318 317 318 318 317 317 319 317 316 313 312 312 313 314 315
306 305 302 303 304 304 304 304 304 304 312 309 309 309 311 312 312 312 311 313 319 318 318 319 319 319 322 322 318 319 317 316 319 318 317 317 315 318 315 314 314 315 316 316 315
305 305 302 304 304 304 304 304 304 305 314 310 311 308 312 313 312 312 313 317 318 316 318 317 320 320 323 323 319 321 319 319 319 321 319 318 319 317 314 315 315 316 316 317 317
305 303 303 306 305 304 305 304 305 312 316 313 311 313 313 314 314 314 314 313 313 314 312 311 312 315 320 316 318 319 319 318 318 319 324 320 319 316 315 315 314 314 314 316 317
305 303 304 305 306 305 305 305 314 317 310 315 315 314 316 318 316 316 316 318 318 318 318 311 311 311 313 316 314 317 321 326 327 326 325 314 316 316 313 314 313 314 314 315 316
304 302 306 305 306 306 306 313 318 314 314 311 315 315 317 315 316 317 317 318 317 317 320 322 320 310 312 315 318 320 322 327 326 323 321 312 316 315 311 311 313 313 314 315 317
304 306 306 306 306 306 312 315 315 313 312 315 315 315 315 316 316 317 316 316 315 314 320 321 320 312 314 312 315 317 321 314 317 313 317 314 313 311 310 311 311 312 314 315 317
305 307 308 306 306 308 315 314 315 313 314 313 315 315 315 316 317 317 317 313 314 312 313 316 319 314 312 312 312 316 314 319 320 321 316 314 313 314 311 311 311 313 314 315 317
307 314 309 307 306 313 314 316 314 313 312 314 314 314 313 315 315 316 315 314 313 312 313 315 316 316 314 316 317 314 316 314 313 313 318 312 311 313 312 311 313 313 314 316 316
308 317 308 309 316 314 315 313 312 314 312 312 313 313 313 314 315 315 315 315 312 312 314 314 316 318 316 312 311 313 315 315 317 317 314 316 312 312 313 312 312 313 313 316 313
311 312 310 312 318 318 315 314 313 313 312 312 312 313 313 314 315 314 313 312 312 313 313 313 316 317 315 314 312 314 314 313 311 314 320 318 314 312 313 312 310 312 315 315 312
310 316 315 313 313 315 314 314 314 312 312 311 312 312 313 313 312 314 314 313 311 312 310 311 313 315 317 317 316 315 314 313 314 318 315 314 312 311 311 312 312 314 315 315 311
308 311 307 317 315 314 314 313 314 314 312 311 312 312 313 313 313 313 313 313 312 311 311 313 315 313 312 311 312 314 314 313 314 315 321 314 313 312 312 312 313 314 314 312 309
306 306 307 310 311 312 312 314 314 313 313 312 312 312 312 312 312 313 313 313 313 312 312 312 315 313 314 311 311 313 313 313 313 312 313 313 313 312 312 312 314 315 314 311 306
303 304 305 310 312 312 315 314 313 313 313 313 312 312 312 313 312 311 311 311 311 312 312 313 314 315 315 311 311 315 313 313 313 312 313 315 313 312 312 313 313 316 313 310 306

GFSSW_925_thetae_066.txt.gz
Theta_e
311 310 310 309 309 309 308 307 308 308 308 309 310 310 309 311 310 309 309 314 319 320 313 317 319 325 326 327 322 321 329 332 333 331 328 325 325 324 323 322 322 321 333 340 344
309 309 309 309 308 308 307 308 307 307 307 308 309 309 311 311 309 308 308 311 319 321 320 316 319 324 326 326 322 321 325 328 327 326 325 325 324 323 322 321 320 322 332 340 343
309 309 308 308 308 307 307 307 307 307 307 307 308 309 308 309 309 309 308 310 318 321 318 318 316 322 325 323 322 321 323 323 323 322 321 323 323 322 321 321 320 319 326 335 340
308 308 308 308 307 307 307 306 307 307 307 307 307 307 308 308 310 314 309 310 319 322 319 320 317 322 324 325 322 321 320 320 321 321 321 321 321 321 320 321 322 322 325 334 336
308 308 308 307 307 307 306 306 307 306 306 305 305 307 307 307 307 307 312 313 318 321 319 319 317 321 324 324 322 323 320 319 320 321 321 319 319 319 321 322 322 322 322 324 329
308 308 308 308 307 306 306 305 307 306 307 306 307 306 306 307 305 306 307 309 317 320 320 317 318 317 319 323 323 320 321 320 320 322 320 319 319 318 320 321 321 322 322 321 323
308 307 307 308 308 306 305 305 305 306 306 307 307 306 306 306 306 311 311 309 313 318 320 317 316 316 320 322 321 321 321 320 319 322 322 321 321 320 319 320 320 320 318 319 319
307 307 307 307 308 307 305 305 305 306 307 307 306 306 306 305 305 305 308 307 308 315 319 317 315 320 320 320 322 322 321 323 320 320 320 320 322 320 319 319 319 318 317 316 317
307 307 306 307 307 307 306 305 306 306 306 306 306 306 305 305 306 305 306 309 310 315 318 319 317 321 321 323 324 323 323 322 321 319 320 319 321 319 318 318 318 316 316 315 315
308 307 306 307 306 306 304 303 304 304 306 306 306 306 306 305 306 305 308 310 312 317 319 319 319 321 322 324 324 323 322 318 320 320 319 320 320 317 317 317 316 315 316 316 316
307 306 304 305 305 303 305 306 306 307 305 305 305 306 306 306 308 309 310 311 314 319 323 320 320 321 321 321 319 318 318 318 317 319 319 319 320 318 316 317 316 315 314 315 315
306 306 305 303 304 304 305 305 304 304 306 304 305 305 307 307 310 311 310 313 317 315 318 320 321 318 319 320 321 319 318 317 317 319 319 318 318 317 316 316 316 315 314 314 315
306 306 305 303 304 304 304 304 304 305 306 307 307 308 309 304 310 312 312 313 314 315 318 318 318 318 318 318 320 318 317 316 318 317 316 317 316 317 316 316 313 312 311 312 313
306 306 305 304 305 305 304 305 305 305 310 310 310 310 310 306 312 311 312 315 318 317 318 318 319 319 321 321 320 321 316 317 318 318 317 315 313 316 316 313 312 311 310 312 313
305 306 305 305 306 305 304 305 304 305 313 310 311 310 312 313 312 311 313 313 317 317 319 316 319 320 318 318 320 318 318 318 318 318 319 317 317 317 313 313 312 312 314 314 315
305 305 303 306 307 305 305 305 305 310 314 312 312 313 314 313 313 314 314 313 314 315 312 313 312 316 317 318 321 319 319 318 319 319 321 319 317 315 313 313 313 313 314 315 315
305 303 303 305 307 306 305 306 315 315 311 314 316 315 314 316 315 316 316 318 318 317 316 314 312 310 314 315 317 321 318 322 322 323 321 314 317 316 313 313 313 312 312 313 315
304 303 305 307 307 306 306 312 315 314 313 314 315 315 317 316 317 316 318 319 317 317 319 320 317 313 311 317 319 319 320 320 320 322 317 312 315 312 311 312 311 312 313 314 315
307 308 308 308 307 306 311 314 315 312 313 315 315 316 316 316 317 317 316 318 316 316 321 321 319 311 313 313 317 318 320 314 316 313 314 312 312 310 309 311 310 311 312 314 315
306 308 310 307 307 308 313 314 315 313 314 313 315 314 316 316 317 317 316 314 314 314 313 316 319 314 313 314 313 318 317 318 315 315 317 312 313 312 309 310 310 311 312 314 315
309 314 309 308 308 313 312 315 315 313 313 313 314 314 313 315 316 315 316 314 313 312 312 315 317 317 314 317 317 316 317 316 312 313 316 312 309 310 309 310 309 311 313 314 314
310 318 310 310 316 316 315 313 312 313 312 312 313 313 314 314 315 315 316 314 312 312 315 314 315 317 316 312 312 313 315 315 315 316 311 311 310 309 307 309 311 311 313 314 312
310 312 312 313 320 320 315 314 314 313 312 312 313 313 313 313 314 314 314 313 312 313 313 313 315 313 315 313 312 313 314 314 312 313 317 316 309 310 308 308 309 311 313 314 311
309 315 314 315 314 316 315 314 314 313 313 311 312 312 313 313 312 314 314 313 312 312 311 312 313 315 315 316 314 313 314 313 310 310 314 312 310 310 310 310 309 311 313 313 311
309 311 307 314 315 313 314 315 314 314 313 312 313 312 313 314 313 313 314 313 312 311 312 313 314 313 312 311 313 314 314 314 310 312 309 314 312 309 309 310 310 312 313 311 309
305 305 304 308 311 312 313 315 314 314 313 313 312 312 312 313 312 313 313 312 313 312 312 312 312 309 308 311 311 311 313 313 313 312 311 312 312 310 310 310 311 312 313 311 308
301 303 304 306 310 312 314 315 314 313 314 312 313 312 313 313 312 311 310 310 311 311 311 312 311 309 312 311 311 310 311 312 312 311 311 312 311 311 311 312 312 315 313 311 306

GFSSW_925_thetae_069.txt.gz
Theta_e
309 309 310 309 309 309 309 309 309 309 309 308 310 310 311 310 311 310 308 311 317 320 316 317 316 321 324 326 321 323 330 329 330 331 330 327 325 320 319 320 321 329 337 343 344
309 309 309 309 309 309 308 308 306 308 308 308 307 309 309 309 310 309 308 309 314 320 317 316 316 321 325 325 322 322 328 325 321 325 327 323 324 324 320 319 320 335 342 344 343
309 309 309 309 308 308 308 308 306 307 307 306 307 309 308 307 309 309 309 311 312 319 319 316 316 322 324 323 323 321 323 324 324 324 325 324 323 322 318 320 319 330 340 341 342
310 309 309 308 308 308 307 307 307 307 307 305 305 307 306 307 309 310 311 315 312 318 319 318 314 321 323 324 323 320 320 320 321 321 324 324 318 320 319 320 319 318 333 337 339
309 308 308 307 307 308 306 306 306 307 306 306 304 306 306 307 308 306 307 312 313 319 319 319 315 317 323 323 322 322 320 319 319 320 320 318 318 318 317 319 319 319 322 333 336
309 308 308 307 308 308 306 306 306 305 306 307 306 306 306 307 304 306 308 307 313 318 318 318 316 317 320 321 322 321 321 321 319 321 320 319 318 318 317 318 318 319 321 320 323
309 307 307 308 307 307 306 305 306 305 306 307 307 306 306 305 305 306 310 309 313 316 318 318 317 315 316 319 319 321 322 320 319 320 321 318 319 319 317 316 318 318 317 318 318
308 307 306 308 307 306 306 305 305 306 306 307 307 306 305 304 305 305 306 308 308 314 316 317 317 317 318 318 320 323 319 322 319 320 320 318 320 318 316 317 317 316 315 314 316
308 307 305 307 307 306 304 304 305 306 306 306 305 305 306 305 306 305 305 306 310 311 316 318 316 317 319 320 321 322 324 321 321 319 320 318 319 318 317 315 316 315 313 313 312
307 307 306 306 304 304 303 302 303 305 306 306 305 305 305 306 306 305 308 307 311 314 317 319 318 318 319 321 322 325 322 320 321 318 319 320 319 317 316 315 316 314 313 311 312
306 306 302 305 304 304 304 305 303 304 305 305 305 306 305 306 307 306 310 310 311 315 320 319 320 320 319 319 319 318 320 318 317 317 319 319 319 318 316 315 313 313 313 311 312
306 306 306 304 304 304 303 302 303 303 305 306 306 307 307 306 309 310 309 310 314 315 317 320 320 316 317 319 321 319 319 317 315 315 318 319 319 318 316 314 314 314 313 312 312
306 306 306 304 304 304 303 304 304 304 306 307 307 308 308 307 309 308 310 312 315 318 316 319 317 317 319 320 321 320 318 316 316 316 315 316 318 318 315 313 313 312 311 311 311
305 306 305 305 305 305 304 304 304 304 308 311 310 309 309 307 310 311 312 313 313 317 317 319 318 318 319 319 318 320 316 316 316 316 318 314 317 313 315 313 311 309 308 309 311
305 306 304 305 305 304 304 305 305 305 313 309 310 308 312 312 311 312 312 314 316 317 317 316 319 319 319 319 319 319 318 317 316 315 316 316 315 313 314 312 310 308 308 310 310
305 306 303 306 306 305 305 305 305 300 311 312 312 314 313 313 313 314 314 313 313 313 313 313 312 315 317 316 318 320 318 317 316 317 316 316 314 314 313 315 310 310 312 312 313
304 304 303 305 306 306 305 305 305 307 309 311 315 315 315 315 316 316 317 317 317 315 315 312 313 312 314 315 315 319 320 320 320 316 315 314 315 315 312 310 311 313 312 312 312
305 305 306 307 306 306 306 306 308 313 312 311 314 316 317 317 316 315 317 318 315 312 314 311 312 315 312 315 316 315 317 313 317 318 316 311 317 314 307 310 311 311 311 312 313
306 308 307 308 307 307 307 307 310 308 310 315 314 317 316 316 317 317 317 318 316 316 315 314 314 311 312 314 314 318 319 314 313 311 310 311 310 309 310 311 311 312 312 313 313
307 307 309 307 307 307 304 308 310 312 313 313 315 314 316 315 317 316 315 314 316 314 315 316 315 314 314 314 314 318 317 318 312 314 316 311 310 310 310 312 311 312 311 313 313
308 308 310 308 308 303 309 307 314 314 312 313 313 314 313 314 314 314 314 313 312 313 313 315 315 317 314 316 318 318 319 316 313 311 312 311 309 306 309 310 310 310 310 313 311
305 309 311 310 309 305 304 310 312 314 312 312 311 312 312 312 313 313 315 313 311 311 314 313 312 316 316 315 314 315 317 316 313 315 308 307 311 307 305 307 308 310 313 312 309
303 305 312 312 309 306 312 315 314 312 311 311 312 312 312 312 313 312 314 312 311 312 312 312 311 309 313 310 311 312 312 316 312 310 312 309 309 305 306 308 309 310 313 312 309
303 306 303 306 308 312 312 313 314 311 312 310 311 310 312 312 311 313 313 312 311 310 310 310 311 311 310 312 310 311 312 312 310 310 312 310 310 309 308 308 307 309 310 311 309
301 305 304 304 308 308 310 312 314 313 311 311 311 311 311 312 311 312 313 312 311 310 310 310 311 311 311 312 313 312 312 311 307 310 308 311 309 310 308 307 306 308 311 310 307
299 300 300 302 304 309 309 312 314 313 312 312 311 311 310 312 311 312 312 311 311 310 310 309 307 303 302 310 310 311 311 311 311 310 311 311 311 308 307 307 310 311 311 309 307
298 299 299 300 303 306 309 308 312 311 312 311 312 312 311 312 311 310 308 308 309 310 310 311 306 304 307 310 309 307 310 310 311 310 311 311 309 309 310 310 311 310 311 310 307

GFSSW_925_thetae_072.txt.gz
Theta_e
310 310 310 310 310 310 309 309 309 307 309 309 309 308 310 311 311 311 309 307 315 319 319 319 316 319 323 324 324 325 330 330 329 331 329 327 326 322 318 322 328 333 340 341 344
311 310 310 309 309 309 309 308 308 307 307 308 308 309 309 308 310 310 307 309 310 318 320 316 315 320 322 325 322 326 330 328 325 327 328 326 327 323 320 322 335 343 342 343 343
310 309 308 308 308 308 308 308 307 305 306 304 307 308 307 307 309 308 307 311 312 314 319 316 316 321 323 323 323 322 324 323 323 322 324 326 326 325 321 319 330 343 342 340 341
310 309 308 308 308 308 307 307 306 306 307 305 305 306 306 307 309 308 308 313 313 314 318 317 316 322 322 324 323 323 320 323 323 325 325 326 325 323 316 320 319 335 338 338 338
309 308 307 308 308 308 307 306 306 306 305 305 304 305 305 307 307 308 307 311 315 314 318 317 315 321 322 322 323 322 321 320 319 322 324 324 325 324 316 318 320 333 336 337 337
308 308 306 308 308 306 306 305 306 306 306 307 305 304 305 306 305 308 309 310 313 314 317 317 313 315 319 322 322 322 322 320 319 318 319 325 323 322 318 316 318 319 327 333 335
308 307 306 308 308 305 306 305 306 305 306 307 307 306 306 305 304 305 306 308 312 315 317 317 315 317 317 319 319 321 323 322 320 319 319 317 321 320 316 316 317 317 316 315 323
308 307 306 307 308 305 304 305 305 305 306 307 305 306 304 303 305 304 305 306 308 314 316 317 316 314 316 316 319 322 320 323 319 319 319 317 320 317 315 316 317 316 315 315 315
307 307 307 306 306 305 303 303 304 305 306 306 306 305 304 304 306 305 305 306 309 312 316 317 316 315 318 319 320 322 322 321 320 319 320 317 318 317 316 315 316 315 314 313 312
306 307 307 307 306 305 304 304 305 305 306 306 305 303 304 305 306 307 307 308 312 315 317 318 318 315 316 317 322 322 321 320 320 319 320 319 318 317 316 314 314 314 313 312 311
305 306 306 304 304 303 304 305 302 302 304 304 305 304 305 306 307 309 308 309 311 315 319 319 320 319 317 317 316 319 320 320 319 317 319 320 319 318 317 315 313 313 312 312 311
305 306 307 304 304 303 303 302 303 303 305 305 307 307 306 305 309 309 308 310 313 315 318 320 320 316 317 318 319 319 319 319 315 315 317 318 319 317 317 315 313 313 312 312 311
305 305 306 304 304 304 303 304 304 304 306 307 307 307 307 307 308 308 309 311 313 313 317 320 318 317 318 319 320 320 317 316 316 315 315 316 317 316 315 313 313 311 312 310 309
305 305 306 306 305 305 303 304 303 304 304 310 309 308 309 306 311 310 311 312 313 312 315 318 316 317 318 320 319 322 316 317 315 316 319 314 318 311 315 316 314 311 308 308 308
305 306 304 306 305 303 304 304 304 304 311 309 310 308 311 311 311 311 311 313 314 314 317 316 318 317 320 319 317 319 319 316 315 315 315 315 315 312 311 314 314 309 306 306 307
305 304 303 305 306 306 305 305 304 300 311 311 311 314 314 313 314 312 312 312 313 315 314 314 312 314 316 315 317 318 316 315 315 317 317 314 314 313 311 312 312 307 306 307 308
304 304 304 305 306 306 305 304 301 306 306 314 315 315 314 316 316 313 313 317 317 315 317 314 314 313 312 314 314 318 315 320 323 323 318 312 314 315 311 310 311 308 309 310 309
305 306 307 307 306 306 306 300 305 309 309 308 313 315 318 316 315 316 317 316 314 312 314 315 319 316 313 314 314 318 318 313 319 318 314 311 316 315 308 306 309 311 311 311 310
307 308 307 308 307 306 302 302 304 303 307 313 313 315 317 317 316 316 317 317 315 312 313 314 315 312 312 315 314 317 319 315 309 308 307 310 309 307 310 310 311 312 312 312 312
308 307 308 307 307 306 302 305 309 309 311 313 314 313 315 316 317 315 316 315 315 313 312 312 316 313 314 314 314 316 316 317 306 311 314 311 309 312 311 311 312 313 313 313 312
308 307 308 308 308 302 303 301 312 312 311 313 312 313 312 313 313 313 313 312 313 314 313 314 311 314 315 316 317 317 318 315 312 309 311 311 309 304 308 311 313 313 313 313 310
303 306 309 308 307 301 303 309 312 313 311 311 310 312 312 311 312 313 314 312 310 309 313 312 310 315 316 315 314 316 317 314 313 316 306 305 307 304 304 308 310 310 312 312 309
302 303 309 309 306 304 309 313 312 312 311 310 311 311 311 312 312 312 313 311 310 311 311 311 307 315 315 311 313 316 316 317 312 306 303 307 308 306 305 306 308 310 312 311 308
301 302 301 302 305 309 310 311 313 311 311 310 310 310 311 312 311 312 312 311 310 310 310 310 310 308 311 309 309 309 311 315 317 314 310 308 309 308 308 308 309 310 312 311 309
297 302 302 299 302 305 307 310 312 313 310 310 310 310 310 312 311 312 312 312 311 310 309 308 310 310 309 311 310 310 311 310 309 313 314 314 309 309 308 308 308 309 309 310 308
297 298 298 299 301 304 307 311 313 313 312 311 310 311 310 309 311 310 311 310 310 310 310 307 305 302 301 309 309 309 310 310 310 309 310 309 311 309 307 306 306 305 309 310 307
296 297 297 298 300 304 305 301 306 308 310 311 312 311 312 310 310 309 307 307 308 309 308 310 305 302 305 309 307 308 309 310 310 309 310 311 310 308 307 307 309 308 309 309 306

GFSSW_925_thetae_075.txt.gz
Theta_e
311 311 310 309 309 309 309 309 309 309 309 308 309 308 308 309 311 311 309 305 313 318 319 320 318 320 324 322 324 325 328 327 326 329 329 325 326 323 322 319 330 337 339 340 342
311 310 309 308 309 308 309 309 308 306 306 308 308 309 308 308 309 310 309 311 312 314 318 316 315 321 324 323 322 327 328 327 324 325 326 326 325 324 324 321 332 341 340 341 343
311 310 307 308 309 309 308 307 307 305 306 306 307 307 306 307 306 307 306 311 312 314 315 317 315 320 324 323 321 323 327 324 324 324 325 325 326 324 322 318 322 339 341 339 339
309 308 307 308 309 308 307 307 306 307 307 306 306 305 306 307 309 309 310 311 314 313 314 315 316 319 324 326 322 322 322 324 325 325 325 325 323 323 323 318 320 319 337 337 338
309 308 307 308 308 307 306 306 306 306 305 305 304 304 305 305 306 307 307 309 312 314 314 315 316 319 322 323 323 321 321 321 324 323 321 321 321 320 321 320 318 326 336 336 336
308 307 307 308 308 306 306 306 306 306 306 306 305 304 306 304 305 306 306 312 314 315 314 315 314 317 319 320 323 321 321 323 322 323 321 322 321 322 321 319 316 334 335 333 335
307 307 307 308 308 307 305 305 306 306 306 307 307 305 305 302 304 307 306 307 312 314 315 317 314 317 317 320 319 320 323 321 320 320 321 322 326 323 320 318 316 319 330 332 333
307 307 307 307 307 305 305 305 306 306 304 306 306 305 302 303 306 305 306 306 308 314 315 317 316 314 316 315 319 320 320 323 320 320 320 322 324 324 321 321 315 315 314 315 319
307 307 307 307 307 307 303 304 305 306 306 306 306 304 303 305 305 304 304 307 308 313 315 315 316 314 316 317 319 320 319 322 321 319 320 318 319 322 321 321 316 314 314 313 312
306 306 306 306 305 306 304 304 305 305 305 305 305 302 303 305 306 307 308 308 312 314 316 318 317 315 314 318 321 320 320 320 321 320 320 319 318 317 315 313 313 312 313 312 313
306 306 306 305 304 303 303 304 301 301 303 305 306 304 305 305 307 309 308 309 311 314 316 319 318 317 315 315 316 317 318 320 319 318 320 320 319 319 317 314 312 310 311 311 311
305 305 306 305 304 303 302 302 303 303 304 306 306 306 306 305 308 308 308 311 313 316 315 318 319 315 316 316 318 318 319 318 317 315 318 319 320 318 317 315 314 312 310 310 310
305 306 306 304 304 304 302 303 304 304 306 308 307 308 307 307 308 308 309 311 312 314 314 317 318 316 318 319 319 317 317 317 318 315 314 317 318 318 316 314 312 312 310 310 308
305 306 306 305 305 304 303 303 303 304 307 310 310 308 309 306 310 309 310 312 312 313 314 318 316 317 318 319 318 320 316 316 315 316 318 315 319 313 315 316 313 312 310 308 307
305 307 305 305 305 303 304 304 304 303 306 310 311 309 310 310 309 310 310 313 313 314 313 315 317 318 319 318 317 318 318 315 316 315 315 314 316 314 309 312 314 314 311 307 305
305 305 304 306 306 305 305 304 303 300 307 312 312 313 314 313 313 311 311 312 313 313 314 315 312 314 315 315 317 317 315 315 315 314 314 315 316 314 311 310 310 310 307 307 306
305 304 304 305 305 306 305 302 300 305 304 309 315 314 314 315 314 312 312 315 315 316 316 315 315 314 313 314 314 316 317 322 320 320 317 311 314 317 310 309 309 308 305 304 306
305 305 306 306 306 306 305 298 305 306 306 307 312 315 317 315 315 315 316 317 314 312 316 315 320 315 312 313 315 317 313 315 318 318 314 310 315 314 309 308 306 307 305 306 307
306 307 307 307 306 306 301 302 302 300 304 311 311 314 317 316 316 316 316 315 314 310 312 311 314 312 313 314 313 316 320 310 308 306 306 310 308 306 306 307 308 308 309 309 309
307 307 308 307 306 305 301 306 308 307 309 312 314 312 314 317 318 317 316 313 314 312 310 310 312 313 314 314 314 315 314 317 308 314 313 310 309 311 309 309 309 311 311 311 311
308 306 308 307 307 301 304 301 311 311 311 312 312 312 311 313 315 313 314 312 312 312 311 310 310 314 313 317 317 317 319 318 315 308 311 312 309 303 305 306 309 311 312 313 312
302 305 308 307 305 300 302 307 311 312 310 311 310 310 311 310 311 311 312 311 310 311 314 312 310 314 315 315 313 314 316 317 311 314 304 303 308 305 303 303 309 310 313 312 310
301 303 307 307 304 303 307 312 311 312 311 310 310 310 310 311 312 311 312 310 309 310 311 312 312 316 315 313 315 316 316 317 312 304 301 308 310 305 304 306 308 309 311 311 309
299 299 298 299 302 308 309 310 312 311 310 310 309 309 310 311 309 311 312 310 309 309 311 311 309 311 313 311 311 316 314 315 316 309 308 306 310 309 308 307 307 308 310 310 309
295 300 299 296 298 303 306 308 312 312 310 309 310 309 311 311 310 310 310 311 310 310 309 308 310 309 307 306 309 309 310 313 315 316 314 315 310 310 307 307 308 309 309 309 308
295 296 295 296 299 302 305 307 310 308 311 311 310 309 311 309 309 310 310 310 309 308 308 306 305 302 303 308 309 309 309 310 313 314 315 314 309 308 307 305 306 308 310 310 308
295 297 295 297 298 300 303 300 302 304 307 310 311 311 311 310 309 309 306 307 308 308 307 307 304 301 305 308 307 307 309 308 310 309 311 311 312 308 307 306 306 305 307 309 309

GFSSW_925_thetae_078.txt.gz
Theta_e
312 310 309 308 308 310 309 310 309 309 308 309 309 309 308 308 308 311 309 306 310 317 318 319 320 321 323 321 323 322 325 323 324 327 326 325 326 322 321 320 317 338 337 337 343
310 309 308 309 309 310 309 308 308 307 307 307 307 308 307 308 308 308 310 312 313 314 316 316 317 318 323 322 322 324 325 324 322 325 327 326 325 324 323 321 323 326 333 340 344
309 308 308 309 309 309 307 307 307 308 308 307 307 306 306 307 307 307 307 311 313 314 314 316 316 318 322 321 320 323 325 323 325 324 326 325 326 323 323 322 318 321 320 332 342
309 308 308 309 309 308 306 307 307 307 307 306 306 305 306 307 309 309 310 311 313 313 314 315 315 318 322 323 320 324 322 323 326 324 325 326 322 321 321 322 319 318 318 327 338
309 308 307 309 308 307 305 306 307 307 307 307 305 305 305 304 305 306 307 309 310 313 313 314 316 317 321 323 321 320 323 324 324 322 321 320 322 320 320 319 317 317 327 334 334
308 307 307 308 308 306 305 306 306 306 307 307 307 303 305 303 306 306 306 308 313 314 313 315 314 315 320 322 322 320 321 324 323 322 321 322 323 322 322 318 319 319 317 332 333
308 307 307 307 307 307 306 306 305 306 305 307 307 305 304 302 304 306 306 307 312 314 314 316 314 317 317 320 320 321 324 320 322 322 322 321 323 324 320 318 319 319 315 326 332
307 307 307 308 308 307 305 305 305 304 305 307 306 305 301 303 306 305 305 306 311 314 314 315 315 314 316 316 319 322 322 325 320 322 322 321 324 323 321 321 321 319 316 313 326
306 306 306 307 307 306 307 304 304 305 304 304 305 304 303 304 305 306 306 307 310 314 315 316 316 314 316 317 319 320 324 321 321 321 324 323 322 322 321 321 322 320 316 313 312
306 306 306 306 304 303 303 304 305 305 305 305 305 301 302 304 305 306 308 307 310 314 314 316 316 314 315 317 321 323 320 320 320 319 322 323 318 323 322 322 321 320 313 312 312
305 305 306 306 304 303 303 304 301 300 304 305 305 303 305 305 307 307 308 308 311 313 315 314 317 317 314 315 314 316 317 319 318 318 319 322 319 321 320 320 320 320 318 311 311
305 305 306 306 304 303 302 301 302 302 304 306 306 305 306 305 306 307 308 311 312 315 313 316 318 313 315 315 317 317 317 318 317 316 318 319 320 318 317 317 317 317 315 309 310
305 305 306 306 304 303 302 303 303 303 305 309 308 308 307 306 308 307 310 311 313 313 313 316 317 315 317 317 318 316 316 316 317 314 315 317 318 318 317 315 314 313 311 309 308
305 306 306 305 304 304 302 303 303 304 300 310 310 308 308 305 308 309 310 311 311 314 312 316 316 317 317 319 316 319 315 315 316 316 320 315 321 315 317 317 314 315 313 310 308
305 307 307 305 304 302 304 304 304 303 304 310 311 309 309 308 307 310 310 312 313 313 313 315 318 316 317 318 316 317 317 315 315 314 315 314 316 315 310 312 315 315 312 309 307
304 306 305 306 305 304 304 304 303 300 307 312 312 313 313 312 311 311 311 312 311 314 315 315 312 314 315 315 316 316 315 314 313 312 318 313 315 316 313 311 310 310 311 312 306
303 305 304 305 305 305 305 301 300 304 303 310 315 313 314 314 313 311 313 313 312 311 317 316 315 314 312 314 315 315 317 315 315 320 318 310 313 316 311 309 308 309 307 306 305
305 305 306 305 306 305 305 298 305 306 306 307 312 314 316 315 313 313 315 315 314 313 317 318 320 316 313 313 316 315 315 313 316 316 313 309 315 314 309 308 307 307 306 304 304
306 306 306 306 305 306 301 300 303 300 302 311 311 316 315 316 315 315 314 315 313 310 313 312 315 312 314 314 313 316 315 309 311 304 305 310 308 306 305 305 305 305 305 305 305
307 307 306 307 305 305 299 306 305 305 308 311 313 311 315 315 314 315 316 313 314 310 308 310 311 313 313 314 313 315 312 316 312 315 314 310 308 310 308 307 306 308 307 306 307
308 305 306 307 306 299 301 299 309 309 310 311 311 312 310 314 314 313 313 312 312 312 310 308 309 314 314 316 318 318 318 314 311 308 310 312 310 303 306 305 303 306 308 308 308
302 304 307 307 303 298 301 306 309 311 309 310 310 310 310 310 312 312 312 311 309 311 313 310 308 310 314 314 312 315 316 316 318 314 305 302 311 304 303 302 301 306 310 309 309
301 302 304 306 302 300 304 309 310 312 310 309 310 309 309 310 312 309 310 309 309 312 311 310 309 312 316 313 314 316 315 315 313 308 303 315 313 304 304 304 306 308 310 310 308
297 299 297 298 299 306 306 308 310 309 310 309 308 308 309 309 307 310 311 310 308 309 313 313 310 309 310 310 310 316 313 314 316 317 315 310 310 308 307 307 307 308 309 308 308
293 299 297 296 297 301 304 307 309 311 309 308 309 308 309 310 309 309 309 310 309 310 310 311 311 309 309 307 310 311 313 314 316 316 317 312 310 310 310 307 306 306 308 309 307
295 295 293 295 297 300 303 307 305 305 307 309 309 308 309 310 308 309 309 309 309 307 307 306 310 304 304 307 308 310 308 309 313 314 315 314 314 311 308 305 305 306 309 310 308
294 297 294 296 297 297 300 300 300 300 301 305 301 300 306 310 308 307 306 307 307 307 306 306 306 304 307 307 306 306 308 308 308 310 312 315 313 309 308 307 306 306 308 310 309

GFSSW_925_thetae_081.txt.gz
Theta_e
311 310 309 310 311 310 309 309 308 308 308 309 308 308 309 308 308 310 310 308 311 315 317 318 319 322 322 322 323 321 326 329 326 324 326 325 326 323 321 322 323 330 333 336 340
310 309 309 309 310 309 308 308 308 308 308 307 308 308 306 308 306 307 306 312 314 314 315 317 318 319 323 322 323 325 327 324 321 324 328 326 325 325 324 319 321 322 320 320 341
310 308 309 309 308 308 307 308 308 307 307 307 307 306 305 308 307 307 306 310 314 314 314 316 315 317 321 321 322 324 327 324 325 325 325 326 325 323 324 322 321 322 319 321 333
309 308 308 308 308 307 305 308 307 307 307 307 307 306 305 306 309 308 309 309 311 314 314 316 315 318 321 323 320 326 322 324 325 324 324 325 322 322 322 324 319 318 317 323 325
309 307 307 307 307 306 306 306 307 307 308 308 307 304 305 303 304 306 307 308 310 313 314 315 315 316 321 322 320 321 324 325 323 320 320 321 323 322 322 319 318 318 319 320 332
307 307 307 307 307 307 306 306 306 307 307 307 306 303 303 303 305 306 306 308 311 313 314 315 315 314 318 321 322 320 323 324 321 321 321 322 323 323 321 318 320 319 319 318 325
307 306 307 307 308 307 307 306 306 305 306 308 306 303 302 302 304 304 305 306 311 314 313 315 314 316 317 321 320 321 323 321 323 322 323 320 323 324 321 320 321 320 319 318 315
306 306 306 307 308 307 308 306 303 302 304 307 304 303 301 303 305 305 305 307 311 314 313 315 314 314 316 316 320 323 322 325 322 321 322 320 325 320 321 321 321 321 320 319 316
305 306 306 306 307 307 304 304 304 303 305 305 304 302 302 304 305 306 308 307 310 313 313 315 314 314 315 319 322 321 324 322 323 321 323 321 323 320 320 321 322 321 320 320 318
305 305 305 306 306 305 302 304 305 304 304 305 304 300 302 305 305 307 307 307 310 313 314 316 315 316 317 318 323 323 323 321 322 322 322 323 323 322 320 322 322 321 320 320 319
305 305 305 306 306 305 302 304 300 300 304 305 305 303 304 305 307 307 307 308 310 313 312 315 317 319 315 315 314 317 319 320 318 318 323 324 322 321 322 320 321 321 320 320 319
305 305 305 306 306 304 302 300 301 302 305 305 306 305 305 306 306 306 308 309 311 313 312 314 318 313 314 316 317 317 318 319 317 316 321 321 323 319 322 321 321 321 320 320 315
305 305 306 306 305 303 302 303 303 303 305 308 307 307 307 306 308 307 310 311 311 312 313 314 316 314 316 317 317 316 317 316 318 315 316 319 321 319 318 319 320 320 319 319 315
305 306 306 305 304 303 302 303 303 303 305 311 310 308 308 305 307 309 309 310 311 313 313 316 315 316 316 316 315 319 315 315 316 318 323 314 325 317 319 319 317 318 318 318 313
306 307 306 305 303 302 303 304 303 302 309 309 311 310 308 306 306 308 310 311 312 311 313 316 317 317 317 317 314 316 315 314 313 314 316 315 319 316 313 319 318 316 316 316 313
306 306 304 305 305 304 304 303 302 300 307 312 312 312 312 311 310 310 310 310 311 313 313 315 312 314 315 315 315 314 314 313 312 313 319 315 317 317 315 313 312 315 317 316 314
304 305 305 305 304 305 304 301 300 305 302 309 312 312 313 312 311 311 313 312 313 313 316 316 316 313 312 315 315 316 315 319 317 319 318 310 314 317 314 311 310 311 310 311 312
305 305 305 305 305 305 304 300 305 306 306 307 311 313 315 313 312 312 314 313 312 312 316 318 318 316 313 313 316 316 316 315 317 318 315 309 316 315 310 308 309 308 307 306 306
305 306 306 306 305 306 299 301 302 300 302 310 310 316 313 315 314 312 315 313 312 310 315 316 316 313 314 313 313 315 318 310 312 305 310 311 309 307 306 307 306 306 306 306 306
307 306 306 306 305 304 299 306 305 304 306 310 312 309 314 315 313 314 313 311 313 310 308 311 313 314 314 314 313 315 311 316 315 316 317 311 309 312 309 308 307 306 306 307 306
307 304 306 306 305 298 301 300 307 307 308 310 310 311 309 313 313 312 311 311 311 311 309 308 309 314 314 316 318 317 317 314 312 310 315 313 311 305 307 306 305 304 303 307 307
302 303 306 306 301 297 300 307 308 310 308 310 309 309 310 309 315 311 311 310 309 310 313 309 309 314 315 313 313 315 315 316 318 314 306 306 314 305 303 303 302 303 306 309 308
301 302 302 305 299 297 302 307 310 311 309 309 309 308 308 310 311 310 309 308 309 311 311 310 311 314 314 313 313 316 315 316 311 310 305 315 313 303 304 305 305 307 308 310 308
296 299 296 297 297 304 306 306 309 308 310 309 308 307 308 309 308 310 309 309 308 311 313 312 311 310 312 309 309 314 314 314 315 316 313 313 312 311 310 308 306 307 309 309 309
293 298 296 295 297 300 303 305 308 310 307 307 309 305 308 310 308 308 307 309 308 309 313 314 315 311 310 307 311 311 312 312 314 314 315 312 312 311 310 309 306 305 307 309 309
295 296 292 294 296 300 302 305 305 304 303 307 308 301 307 310 310 310 310 309 309 307 308 307 313 307 307 308 307 309 309 311 312 312 313 313 314 311 310 306 308 307 305 309 309
294 296 293 294 295 296 298 301 300 298 298 302 300 299 301 303 307 305 305 306 309 308 306 307 308 309 313 307 306 307 308 310 311 310 312 314 313 311 311 310 311 311 307 307 310

GFSSW_925_thetae_084.txt.gz
Theta_e
311 310 310 310 310 309 308 308 308 308 308 308 308 309 309 308 308 309 310 310 313 313 316 319 320 322 325 326 325 324 331 331 328 328 327 327 326 326 324 328 328 327 330 329 339
311 309 310 309 309 308 307 308 309 308 308 308 308 308 307 307 308 308 307 310 314 316 316 318 320 321 324 326 327 327 330 329 326 326 326 327 326 327 325 327 327 326 325 325 343
310 308 308 308 307 307 307 308 308 307 308 307 307 308 306 308 308 309 308 309 313 314 315 317 318 320 321 325 326 326 329 325 325 324 325 327 327 326 325 327 326 325 325 328 334
309 307 308 307 307 307 306 307 307 308 308 308 307 307 305 307 310 307 308 309 311 313 315 317 318 320 321 324 324 327 325 325 327 327 327 327 326 326 326 326 323 323 323 329 327
308 308 308 307 307 307 307 307 307 307 308 308 307 304 305 305 306 306 307 307 310 312 315 317 318 318 319 321 324 325 325 325 325 324 325 325 327 325 325 323 322 322 323 324 328
307 308 307 307 308 308 307 307 306 307 307 308 307 302 304 306 304 305 305 308 310 314 315 316 317 316 319 322 323 322 325 326 324 323 323 325 326 325 325 323 323 323 324 324 322
307 307 306 306 308 308 308 307 306 305 306 308 304 304 306 306 305 305 305 307 309 313 315 315 316 318 318 322 321 322 325 326 325 325 325 323 326 327 324 323 324 324 324 324 323
306 307 306 306 307 307 308 307 303 304 303 305 304 304 305 303 305 306 307 308 312 313 314 315 315 317 319 320 322 322 322 325 325 325 324 323 328 324 323 323 324 324 324 324 323
306 305 306 306 307 307 304 304 304 304 305 304 305 304 305 305 306 307 308 309 312 314 314 315 315 317 319 322 323 323 323 322 326 324 324 324 325 322 322 322 323 323 324 324 324
306 305 305 305 306 305 302 304 304 304 304 303 305 304 306 307 307 307 308 309 312 313 314 315 317 319 320 322 323 323 322 321 322 324 324 324 324 322 322 322 323 323 324 324 324
305 305 305 305 306 305 302 304 304 306 306 307 307 306 306 307 307 308 308 309 312 313 314 312 319 319 317 319 318 320 321 322 321 322 323 323 323 322 321 322 322 323 324 324 324
305 305 305 306 305 304 301 304 304 304 309 307 307 307 306 306 306 309 309 311 313 314 313 313 318 316 317 318 318 319 319 319 319 320 323 323 324 322 321 322 321 322 323 324 323
305 305 306 306 305 303 303 304 303 303 310 309 309 308 308 307 309 310 310 311 312 313 314 315 316 315 317 318 319 318 318 319 320 319 322 321 322 322 321 321 321 321 322 324 324
305 305 306 305 304 303 303 303 303 303 315 311 310 310 309 308 310 310 311 311 311 312 313 316 315 316 317 318 318 320 318 319 319 321 322 320 323 321 321 321 321 321 321 321 323
305 306 305 305 304 305 303 303 303 304 318 310 312 310 309 308 309 311 311 313 313 313 315 317 316 316 318 318 317 318 317 319 319 321 320 320 322 320 318 320 321 320 320 320 321
306 305 305 305 305 304 303 303 304 314 317 313 313 313 312 311 310 310 312 312 313 315 314 315 314 315 315 317 316 316 317 318 317 318 321 317 320 319 318 317 318 319 320 319 318
304 305 305 305 307 304 304 305 316 319 306 312 312 312 312 312 312 311 313 314 316 317 318 316 317 316 316 318 317 318 319 321 323 323 319 315 318 316 316 317 316 316 316 318 318
305 305 305 305 305 304 305 308 321 311 313 310 312 312 315 313 312 311 312 314 314 315 317 320 319 317 316 317 319 317 317 317 317 317 316 314 317 315 315 315 315 315 314 311 312
306 306 306 305 305 305 306 321 314 312 309 312 313 315 314 315 314 313 312 312 313 315 319 319 317 314 315 314 316 319 321 315 318 312 317 316 315 315 315 314 313 313 312 313 313
306 307 307 306 305 305 311 313 312 307 308 312 315 313 314 315 314 313 313 312 314 313 312 315 317 315 315 314 315 317 315 319 320 321 319 316 315 314 313 313 312 312 311 310 311
307 311 306 305 305 307 319 312 311 309 310 313 313 313 313 315 314 314 314 313 314 314 311 313 315 316 316 318 320 317 317 317 316 317 319 315 314 313 312 312 311 312 310 310 311
307 313 305 305 311 307 314 310 309 311 310 312 311 312 312 312 315 314 316 314 313 312 314 311 313 317 316 315 315 316 316 316 318 317 316 316 315 310 310 309 309 311 312 313 312
309 309 301 305 314 311 307 308 311 313 312 311 311 311 310 312 313 313 313 312 313 313 314 312 317 318 316 315 314 317 316 316 316 315 319 318 316 308 309 310 310 313 314 314 312
305 310 302 303 303 307 306 308 310 309 311 311 311 309 310 311 311 312 312 311 311 313 313 312 315 316 316 314 314 316 315 316 318 321 316 317 314 313 312 313 312 312 311 314 314
301 304 301 309 303 304 305 306 308 309 310 308 311 310 311 310 310 311 311 311 311 312 313 313 317 315 313 311 313 314 314 315 317 317 317 315 314 313 312 313 312 312 310 311 314
303 303 298 299 300 303 303 306 308 307 305 307 310 307 305 309 310 313 309 311 313 311 314 313 316 314 315 314 313 313 313 314 314 315 315 314 315 313 312 312 312 312 311 311 312
295 296 301 298 300 301 301 304 303 300 301 301 302 302 302 302 303 305 306 305 302 309 313 313 313 314 317 312 312 315 312 312 313 313 314 317 315 313 313 312 313 313 312 313 313

GFSSW_925_thetae_087.txt.gz
Theta_e
312 310 310 310 309 308 308 309 310 309 308 308 308 309 309 309 308 310 311 311 314 315 317 319 320 319 322 325 326 326 333 332 327 327 327 326 327 327 326 330 329 330 333 334 340
311 309 309 309 308 308 307 309 308 308 308 308 308 308 308 307 310 309 309 308 312 316 318 319 319 319 323 324 327 329 332 329 326 326 327 328 325 326 327 329 329 329 331 339 343
310 310 310 308 308 308 307 308 308 308 309 309 308 308 306 308 309 310 308 308 312 315 315 318 318 318 320 323 325 327 330 327 327 327 327 328 327 327 325 329 328 328 330 337 344
310 310 308 310 307 308 307 307 308 308 309 309 308 306 305 308 311 308 309 310 311 313 315 318 319 318 319 324 324 328 326 327 325 327 327 328 327 326 325 328 326 325 328 335 338
309 309 307 309 309 308 308 308 307 307 307 309 308 302 306 307 306 304 307 307 310 312 316 319 318 318 318 320 324 326 326 325 327 327 326 326 327 326 327 326 324 325 326 330 336
308 307 307 306 308 309 309 308 307 307 307 309 306 304 306 307 306 306 306 308 310 314 316 317 317 317 317 318 322 324 327 326 326 326 326 327 326 327 325 325 325 324 325 327 327
307 307 307 306 307 308 309 309 307 306 303 307 306 305 306 306 306 306 307 307 310 315 316 316 317 316 317 319 319 321 325 325 325 326 326 325 327 328 325 325 325 325 325 325 326
306 306 306 306 307 308 308 307 305 305 304 306 303 306 306 305 306 307 308 309 312 314 315 315 316 318 319 319 321 321 323 328 325 325 325 325 325 325 324 325 325 325 325 325 326
307 306 306 306 306 307 306 303 304 304 304 305 306 306 306 306 307 308 309 311 313 314 315 314 316 317 320 322 323 322 323 324 325 324 324 325 324 322 324 325 325 324 324 325 325
306 305 305 306 306 305 303 303 305 305 306 305 306 307 306 307 307 308 309 312 313 314 313 313 317 318 319 320 322 322 320 319 322 325 324 326 324 323 323 324 324 324 324 324 325
306 305 305 306 306 305 304 306 308 309 307 308 308 307 307 307 307 309 309 312 313 315 314 312 319 319 318 318 318 317 319 318 318 321 324 324 323 323 322 323 323 323 323 323 324
306 305 306 306 305 304 303 306 306 308 310 308 308 307 307 308 309 310 310 312 313 315 315 316 320 317 316 317 319 320 319 320 319 320 321 321 321 320 321 322 322 323 323 323 324
306 305 306 306 305 305 305 306 305 306 312 310 309 308 309 308 310 311 311 312 313 314 316 317 318 316 317 318 319 319 319 321 320 320 320 321 322 321 321 321 321 321 321 322 323
306 305 306 305 306 305 306 305 305 305 316 311 310 310 310 309 311 311 312 313 313 313 315 316 316 317 317 317 317 319 318 317 319 321 322 320 320 318 319 321 321 321 321 321 323
305 306 306 306 307 308 306 305 305 307 321 311 312 310 310 310 310 312 312 313 312 313 315 318 317 317 318 316 316 318 318 319 319 320 321 321 322 319 319 321 321 321 321 320 322
305 305 305 306 307 306 306 305 306 315 318 313 313 312 311 310 310 311 313 313 312 314 315 316 316 315 316 317 317 318 318 318 319 320 325 320 321 319 319 319 319 319 320 320 320
305 305 307 307 309 305 306 307 315 322 310 314 313 313 312 312 312 311 313 314 317 318 319 316 318 316 316 318 317 317 318 322 322 323 321 316 317 318 317 317 317 317 318 319 320
306 306 305 307 307 306 307 311 322 314 315 313 313 313 314 313 312 311 313 314 314 316 319 319 321 317 316 317 316 316 318 319 319 318 317 316 316 315 315 315 315 316 316 315 316
306 308 309 307 307 307 311 318 317 317 314 314 315 316 315 315 314 313 313 313 313 314 319 322 322 316 317 316 317 318 321 316 319 316 317 316 315 314 314 315 315 315 315 316 315
309 310 310 307 306 308 314 316 315 311 311 313 315 314 314 315 315 314 313 312 312 313 315 319 321 317 316 316 317 319 316 319 320 319 316 313 315 314 314 314 314 314 313 313 312
310 313 308 307 306 311 314 315 313 312 312 314 314 313 313 314 314 315 314 313 312 313 312 314 317 318 317 318 316 318 318 318 317 314 317 315 315 314 314 314 313 314 314 314 313
311 315 307 307 315 313 315 311 309 312 312 313 313 313 313 313 313 314 314 315 313 313 315 314 317 322 317 316 316 316 315 315 319 317 316 317 317 312 312 312 312 315 315 315 314
311 312 304 307 317 314 309 309 311 313 313 313 313 312 311 312 312 312 313 312 313 315 314 313 317 318 319 318 316 319 319 318 316 316 323 319 317 312 312 312 312 315 313 314 315
309 312 305 307 307 308 307 307 308 311 312 311 312 311 311 310 310 310 311 312 312 314 315 315 316 316 318 317 315 317 316 316 319 323 318 319 315 314 313 312 312 313 314 313 314
306 308 307 311 306 306 306 306 306 307 310 310 310 310 310 309 306 306 307 309 311 313 314 312 317 317 315 312 314 316 316 315 318 318 319 317 316 314 314 313 313 314 313 312 312
306 306 302 304 303 305 304 307 307 306 307 303 307 306 306 304 302 303 306 308 311 312 312 314 317 315 317 316 314 315 314 315 315 315 316 316 317 314 313 313 313 313 313 313 312
300 300 306 302 304 304 304 305 304 303 302 302 303 303 301 301 302 302 303 304 307 306 309 310 313 316 319 316 315 317 315 315 315 314 315 318 315 314 313 313 313 313 313 312 312

GFSSW_925_thetae_090.txt.gz
Theta_e
311 312 310 310 309 308 308 310 309 309 309 309 309 309 309 310 309 311 311 312 313 315 316 315 318 319 320 325 326 327 333 332 331 328 327 325 328 326 325 329 328 330 334 339 344
311 311 309 309 309 309 308 308 309 309 309 309 309 308 309 309 310 310 311 311 310 314 316 316 319 320 321 323 326 328 332 331 327 327 326 325 326 325 328 329 329 332 340 343 344
310 311 310 310 309 308 308 308 308 308 309 309 309 308 308 307 309 308 309 311 311 313 314 315 318 319 324 321 325 327 330 328 327 329 329 327 325 324 327 330 328 328 340 343 345
309 310 309 308 310 310 309 308 308 308 308 308 309 307 303 308 309 306 309 308 309 310 313 317 318 320 321 322 321 327 326 326 328 328 329 330 327 326 325 327 325 327 337 341 345
309 309 309 308 308 310 309 309 308 308 307 308 309 306 307 307 307 307 306 308 309 311 313 318 319 319 319 322 321 323 322 326 327 327 328 328 329 326 326 324 324 325 334 338 340
308 307 307 307 307 308 309 309 309 308 307 307 308 305 308 307 306 307 306 308 309 313 316 318 318 317 318 320 323 321 320 325 326 328 326 326 328 327 326 323 324 325 327 331 337
308 307 307 307 307 307 309 309 309 306 307 307 307 307 305 305 307 307 308 309 309 314 316 317 317 319 318 318 321 321 322 325 327 326 326 326 327 328 325 324 324 324 324 326 327
307 307 307 307 307 307 308 308 305 304 305 304 306 307 305 305 306 308 309 310 312 315 316 315 316 318 319 319 320 324 325 326 324 325 326 326 326 326 324 324 324 323 322 323 325
307 307 306 306 307 307 307 303 303 304 304 304 307 306 306 306 307 308 309 312 314 314 313 314 316 318 319 320 321 321 325 324 325 325 325 325 325 321 324 322 323 322 321 322 323
307 306 306 306 307 306 305 302 304 305 307 306 307 307 307 307 307 309 310 312 314 313 313 314 316 319 319 322 324 322 320 321 324 325 324 327 324 321 321 324 323 322 321 320 322
306 306 306 306 306 305 304 306 309 310 307 307 307 307 307 308 309 310 310 313 313 314 315 313 319 320 317 318 316 318 318 318 320 324 325 323 324 322 320 322 322 320 320 319 320
307 306 306 306 306 304 305 308 307 308 310 308 307 307 308 308 311 311 312 313 314 315 314 316 320 316 316 317 318 319 316 317 320 322 324 322 322 320 319 320 321 320 319 319 319
306 305 306 306 304 306 306 307 306 307 313 310 309 308 309 309 311 312 312 313 313 314 316 316 319 317 318 318 319 320 319 319 321 320 319 319 319 318 318 317 318 319 318 319 318
306 305 306 305 307 307 307 305 306 307 314 311 310 310 310 309 311 311 312 314 312 314 315 317 316 317 318 319 318 320 318 320 321 320 321 318 320 318 318 318 317 317 317 317 317
305 305 305 307 308 309 307 306 306 308 319 312 313 310 310 311 311 312 312 314 313 313 315 318 317 317 319 317 316 319 318 320 320 319 318 321 321 316 317 318 318 317 316 317 316
304 305 305 307 308 307 306 306 307 316 314 312 312 313 312 310 310 312 313 313 313 313 314 315 315 317 316 317 316 318 319 318 318 318 321 320 319 318 315 316 318 316 317 317 316
304 306 308 308 309 306 307 308 317 320 311 314 313 312 312 312 311 312 314 314 315 316 314 315 317 316 317 319 318 318 319 321 321 322 318 315 318 317 315 315 316 315 314 315 315
306 306 307 308 307 306 308 313 319 314 314 313 314 313 314 312 313 311 312 312 313 315 317 313 318 317 316 318 318 317 318 321 319 318 315 314 316 313 313 313 313 314 314 314 312
307 308 308 308 307 308 311 318 319 317 314 314 313 314 316 314 313 313 312 312 312 313 318 317 316 315 316 316 316 316 316 316 320 316 314 316 314 312 311 313 314 315 315 314 313
309 310 309 308 306 308 313 317 315 312 312 313 314 314 314 316 315 314 313 312 311 312 314 318 319 316 316 316 317 319 317 319 316 315 316 311 310 313 313 312 313 312 312 312 312
310 313 309 307 307 311 311 317 313 312 312 313 314 313 312 313 315 314 314 312 311 312 313 316 318 318 316 317 318 319 321 320 317 314 312 314 313 309 311 311 311 311 313 312 312
312 316 308 307 314 316 319 312 310 312 312 312 313 313 313 312 311 311 314 311 314 314 314 313 316 317 318 316 315 316 317 319 321 318 314 312 314 312 309 309 311 313 314 313 313
313 311 306 308 319 318 310 308 310 313 313 313 313 312 311 311 311 309 310 313 313 315 315 313 314 319 320 317 317 318 316 316 316 316 315 315 313 310 310 311 311 313 312 312 312
311 311 306 308 308 309 309 308 309 311 312 311 311 310 310 310 308 309 309 310 311 312 315 313 315 313 315 317 316 317 317 317 317 320 316 317 316 313 311 311 310 311 310 310 310
307 311 310 310 307 308 306 307 306 307 309 309 310 310 307 309 306 305 302 302 306 310 312 310 313 315 314 314 315 316 316 317 318 318 317 316 316 314 313 312 311 309 309 311 310
307 306 302 304 304 305 305 306 307 307 307 304 306 304 304 304 303 301 302 303 305 307 309 307 314 311 316 316 316 316 315 315 315 316 317 316 316 313 313 312 312 310 310 310 311
302 302 306 303 304 304 305 306 306 304 303 303 302 301 301 301 301 301 300 300 304 305 305 306 309 312 317 315 313 316 314 314 314 314 315 317 314 312 312 312 311 310 310 310 310

GFSSW_925_thetae_093.txt.gz
Theta_e
311 312 312 311 309 309 309 308 309 309 310 310 309 309 309 309 309 309 311 312 313 314 316 314 315 317 319 323 325 325 329 331 329 327 326 324 326 324 325 329 332 330 335 344 345
310 311 312 309 312 309 309 308 308 308 309 309 309 309 309 308 309 306 309 312 313 314 314 316 318 319 319 323 325 328 329 330 327 328 323 325 324 325 328 328 337 344 341 344 345
310 311 310 310 309 311 310 309 308 308 308 308 309 309 308 306 308 304 308 311 313 313 313 314 316 318 321 322 325 327 329 327 329 329 328 326 323 324 327 329 328 344 344 343 345
309 310 310 310 309 309 310 309 310 308 308 307 308 310 308 307 307 306 308 309 312 310 312 314 315 320 321 323 324 328 326 327 328 328 327 329 327 323 325 326 326 339 342 344 344
309 308 309 308 308 308 309 310 310 309 308 306 308 306 307 306 306 306 307 309 309 310 313 315 316 318 321 321 322 324 322 325 326 328 327 328 329 327 324 323 325 338 341 344 344
309 308 307 308 308 308 308 309 309 309 307 306 307 306 307 306 306 307 307 308 309 311 314 315 317 318 317 320 321 321 322 321 324 326 327 328 329 328 324 321 322 335 338 338 342
310 309 307 308 308 307 308 309 309 305 304 303 305 308 305 305 306 308 309 309 309 313 316 316 315 318 317 320 321 321 322 321 321 326 327 326 330 329 323 321 323 323 329 336 337
310 309 307 306 307 307 306 303 305 304 303 305 306 308 304 306 307 308 309 311 314 314 315 314 314 317 318 317 321 324 323 324 323 325 325 327 330 328 324 321 321 321 322 324 327
309 308 307 306 307 306 303 302 303 305 306 305 307 307 306 306 307 309 310 314 312 312 312 313 315 316 317 317 321 321 326 323 323 323 325 326 326 323 323 321 321 319 319 322 323
309 308 307 306 307 305 302 303 303 304 307 307 306 305 306 307 308 309 310 313 313 312 311 312 314 315 314 316 321 322 323 323 322 323 324 327 325 322 320 320 320 319 317 318 322
308 307 306 306 306 304 303 306 307 306 307 307 307 307 307 308 310 310 311 313 313 311 311 311 314 316 316 317 317 318 318 319 321 323 322 325 325 323 320 321 319 318 319 318 317
308 307 306 306 305 303 306 306 306 307 308 307 308 308 308 309 311 311 311 313 313 313 313 313 316 316 316 315 316 318 317 318 321 324 324 324 324 323 321 320 319 319 318 317 316
307 306 305 305 304 306 306 306 306 307 310 310 308 308 308 309 310 311 312 312 313 315 316 314 317 317 317 317 318 318 317 317 322 322 322 322 321 318 319 316 318 318 317 316 316
307 305 305 305 308 306 306 305 305 307 302 309 312 309 310 309 311 310 311 313 311 314 314 315 316 316 317 319 317 320 319 319 320 321 321 316 318 314 316 315 315 315 316 316 315
306 305 305 307 308 308 306 304 305 307 302 308 312 310 311 311 310 312 311 314 313 314 313 314 316 317 318 317 315 318 318 319 320 318 317 319 318 316 313 314 315 312 312 313 314
305 305 305 306 308 306 306 305 306 305 301 311 313 314 313 310 311 312 313 312 313 312 313 315 314 315 315 316 316 316 318 317 316 316 315 317 319 316 313 314 315 313 313 313 314
304 305 306 308 309 306 306 306 306 302 306 309 313 312 312 312 311 312 314 313 313 313 313 310 313 315 315 317 317 317 318 319 314 313 314 314 316 317 313 311 312 312 312 312 312
304 306 307 308 306 306 307 304 302 311 308 309 313 313 313 312 312 312 311 314 312 313 313 306 305 315 315 316 316 317 316 315 318 317 313 312 315 312 310 310 312 311 310 309 309
306 306 307 307 306 307 306 306 305 310 310 314 313 314 314 313 312 312 311 310 310 312 317 311 312 315 315 315 315 314 315 314 316 315 309 312 312 310 310 312 311 312 312 311 309
308 309 308 307 307 308 309 311 311 312 312 312 313 312 313 313 313 312 312 310 310 309 310 315 314 315 315 315 316 317 315 316 316 321 317 310 312 312 311 309 311 309 308 309 308
310 310 308 307 307 309 300 310 312 311 311 312 313 312 311 310 313 312 312 311 311 311 311 315 316 317 316 316 317 318 318 318 315 313 311 312 310 308 308 309 310 311 311 311 310
309 311 307 306 310 309 306 311 310 311 310 311 312 312 312 311 310 309 313 311 312 313 314 314 316 318 320 316 314 316 317 318 312 316 311 309 312 308 307 309 311 312 312 311 311
310 308 307 307 312 309 309 307 310 311 311 312 312 311 310 310 310 308 307 310 309 312 314 313 315 316 318 316 315 317 317 317 317 313 307 311 311 307 307 308 310 312 312 310 310
307 308 303 307 306 308 309 307 309 308 310 311 310 309 309 309 307 307 305 307 306 309 312 311 310 314 316 316 316 318 316 316 317 318 313 310 314 310 309 309 309 309 308 308 309
305 307 304 307 306 305 303 306 307 309 309 308 309 309 305 307 305 305 301 301 305 307 309 309 311 314 313 313 315 316 316 317 317 316 314 314 314 314 312 311 309 308 308 308 308
304 303 300 302 303 304 306 303 305 306 306 304 307 302 301 302 301 300 301 301 302 303 305 305 311 310 311 313 315 314 316 316 317 317 316 315 315 312 311 310 310 309 308 308 308
303 302 300 301 300 301 302 303 306 302 301 302 300 299 299 301 299 299 298 298 297 300 303 303 306 302 312 315 313 315 313 315 314 315 316 317 315 313 313 311 310 309 309 308 308

GFSSW_925_thetae_096.txt.gz
Theta_e
310 311 312 312 310 312 309 309 309 309 309 309 309 310 310 309 309 307 309 310 313 311 313 314 314 316 317 318 322 326 331 328 328 326 325 323 326 324 326 333 337 332 341 342 344
310 310 311 311 310 310 312 310 310 309 309 309 309 310 310 310 308 305 306 311 313 312 313 315 317 317 319 317 325 328 329 328 327 327 324 324 324 327 329 335 342 342 345 345 344
310 309 310 310 310 309 310 310 310 310 309 308 308 309 309 308 308 305 307 310 312 311 310 315 315 318 320 319 324 327 328 328 329 330 329 323 324 325 328 330 339 343 343 343 342
310 310 308 309 310 309 309 310 310 310 309 308 308 308 306 307 305 306 308 311 311 311 311 314 315 319 321 320 320 328 327 328 328 329 329 329 325 324 325 326 335 340 341 341 341
311 310 309 308 309 308 308 308 309 310 309 309 308 306 306 305 305 306 308 307 309 313 312 313 317 318 320 322 321 325 326 324 325 326 327 328 328 327 325 325 337 340 342 343 340
310 310 309 308 308 308 308 309 309 310 309 309 309 306 306 305 306 307 308 308 309 312 312 311 316 316 318 321 320 321 323 322 323 326 328 329 328 326 324 324 337 340 341 342 340
310 310 308 308 308 308 308 307 306 307 305 307 309 307 307 305 306 308 309 309 309 314 314 314 314 317 316 320 320 321 323 321 323 325 327 327 329 327 323 321 331 336 337 339 341
310 309 308 307 307 308 305 302 303 305 305 305 308 307 304 306 307 309 312 314 314 315 316 314 314 316 317 317 321 322 320 322 323 325 325 326 332 327 325 320 321 325 331 335 337
310 309 308 307 307 308 303 302 304 304 306 306 306 306 305 307 308 309 310 313 312 311 312 314 315 316 317 319 321 321 323 322 324 323 326 326 327 324 324 322 320 319 322 326 330
309 308 306 305 307 307 303 302 304 306 307 307 306 303 304 307 308 309 311 312 312 311 310 311 311 314 313 314 322 321 322 321 322 323 325 327 326 325 323 322 320 318 317 319 322
308 308 305 304 307 306 305 306 306 305 306 306 306 306 306 308 309 310 311 312 311 310 310 311 311 315 316 316 316 317 322 323 320 321 324 324 324 325 323 322 319 317 316 315 318
307 308 305 305 305 304 306 305 306 307 307 307 307 307 307 308 310 309 311 312 311 313 312 310 312 316 316 316 316 317 318 317 321 321 322 322 320 321 323 321 318 316 316 316 315
306 307 304 304 304 306 306 306 306 307 307 309 307 307 307 309 310 310 311 312 312 315 313 310 315 316 316 317 317 316 315 317 323 323 322 321 322 322 320 320 316 317 316 316 316
306 306 305 304 307 306 306 305 305 306 298 307 311 309 309 308 309 309 311 312 310 314 313 314 314 315 316 318 316 319 317 317 322 324 326 321 322 314 315 317 317 315 315 315 314
305 306 305 307 308 307 306 305 304 305 299 305 312 309 310 310 309 311 311 313 312 313 310 312 315 316 317 317 315 317 317 319 320 318 317 318 319 315 313 314 315 311 312 315 314
305 305 305 307 307 307 306 305 306 301 297 310 313 314 313 310 310 311 311 311 312 312 312 313 313 314 315 315 316 315 317 316 319 318 321 316 319 317 314 313 313 311 311 313 315
306 305 306 308 308 306 306 305 303 297 304 308 312 312 311 311 311 311 312 312 310 306 304 308 312 314 315 316 315 316 320 322 322 322 322 313 318 317 313 311 310 310 310 309 310
305 305 308 308 307 306 307 302 295 306 306 307 311 312 312 311 311 311 310 312 311 311 310 305 305 313 314 314 315 316 318 317 318 318 315 313 317 314 310 311 309 309 309 309 309
305 307 307 306 306 307 306 302 299 306 309 313 313 313 312 312 311 311 310 309 309 310 314 310 310 312 314 315 313 315 316 314 314 312 310 311 311 309 310 310 310 310 309 309 309
306 307 308 307 307 308 309 307 309 311 311 312 311 311 312 313 311 311 310 309 309 308 309 312 317 313 314 315 316 314 314 319 316 320 318 310 312 312 310 309 310 309 308 308 307
309 309 308 307 308 308 306 304 311 310 310 311 311 312 310 310 311 311 311 310 309 310 308 311 314 314 315 316 315 317 316 316 314 313 314 311 309 304 307 307 309 308 308 308 308
308 313 307 306 310 310 309 309 310 310 310 311 311 311 311 310 310 310 311 310 310 311 312 312 316 317 315 316 314 315 316 316 316 314 309 308 311 308 308 309 310 311 310 310 309
308 309 307 307 310 311 309 307 309 310 310 310 311 310 309 309 310 307 307 306 307 310 312 313 314 316 316 315 315 317 316 316 313 312 308 311 310 306 306 310 310 310 309 309 309
306 308 304 307 307 309 308 306 308 308 310 310 310 309 308 308 306 308 303 303 305 308 310 310 309 312 312 314 314 316 317 316 316 316 311 307 309 309 307 308 309 310 309 310 309
305 305 305 308 307 306 305 305 308 309 308 307 308 305 306 306 304 305 300 300 303 304 307 308 306 310 311 312 313 314 316 316 317 315 313 312 312 312 307 308 308 308 308 307 307
306 304 301 303 304 305 303 303 304 306 307 306 306 301 300 302 301 301 300 300 301 301 304 303 307 300 305 310 312 313 315 316 316 316 315 314 314 311 310 308 309 309 308 307 305
303 301 301 301 301 301 302 301 304 302 301 301 300 299 299 299 299 299 298 298 296 298 301 300 299 296 301 307 312 310 310 314 314 314 316 317 315 313 314 312 310 308 307 307 306

GFSSW_925_thetae_099.txt.gz
Theta_e
311 310 311 312 312 310 312 311 311 311 309 309 309 309 310 311 308 305 306 308 312 311 309 312 314 316 317 316 315 323 330 325 324 323 323 320 325 325 329 334 338 336 341 343 344
311 311 309 311 311 311 310 311 311 310 310 309 308 309 310 311 307 307 307 311 313 310 309 314 316 317 316 316 315 326 329 326 328 329 322 322 326 328 334 340 341 344 343 343 343
312 310 310 309 311 311 309 309 311 310 310 309 308 309 310 306 306 305 308 311 313 311 310 314 315 316 318 315 315 326 328 329 329 330 328 323 325 325 333 334 341 347 346 342 342
311 311 310 309 309 310 309 309 309 310 310 309 309 309 305 306 305 306 309 309 311 312 310 312 315 318 320 316 315 322 327 328 328 328 328 329 324 324 325 327 331 343 343 342 343
311 311 311 309 308 309 309 309 309 310 310 310 310 307 305 304 305 306 308 308 309 313 311 313 317 317 320 318 316 316 320 324 326 327 327 326 326 324 324 336 338 340 342 343 343
311 311 311 309 308 308 308 309 309 309 310 310 311 307 305 305 306 307 309 309 309 311 312 312 313 315 318 318 314 317 323 322 325 325 326 327 326 324 321 333 340 340 341 339 339
311 311 310 309 308 308 309 309 308 305 305 309 311 308 305 305 306 308 312 311 309 312 313 313 314 316 317 317 317 321 319 320 322 325 325 325 327 326 322 324 338 340 338 337 337
311 311 310 308 307 308 305 307 304 304 305 306 311 307 304 305 307 309 311 312 313 315 315 314 314 315 316 318 321 322 317 320 323 324 323 326 330 326 321 320 322 329 333 336 338
311 310 309 308 307 306 302 302 303 304 306 306 307 305 305 308 308 310 310 310 312 311 311 314 314 315 316 319 321 321 323 319 320 323 323 326 328 322 321 320 319 319 321 330 333
311 309 309 307 307 306 302 302 303 306 306 307 306 302 305 307 308 309 311 312 311 310 309 311 309 315 313 315 320 322 322 322 321 323 322 322 325 324 322 321 320 317 317 318 325
307 309 308 306 306 305 304 306 306 304 305 305 306 305 306 308 308 309 311 311 310 309 311 310 311 317 315 314 315 318 321 322 321 321 323 322 323 324 324 321 319 317 315 316 317
308 308 308 306 306 304 306 305 306 305 306 306 306 306 307 308 309 308 311 311 311 311 311 308 311 315 315 316 315 316 319 318 320 322 321 324 324 322 322 321 320 318 315 315 316
309 309 307 305 305 304 306 306 306 307 306 308 307 306 307 308 309 309 310 311 312 313 311 308 313 314 315 316 316 315 316 316 320 322 321 322 323 322 320 322 320 319 314 314 315
309 309 307 305 306 306 305 305 305 307 297 305 310 309 309 308 308 308 310 311 310 313 313 313 313 315 316 317 315 317 316 315 323 323 323 320 322 315 320 321 321 319 314 314 313
309 306 306 305 307 306 306 304 304 304 299 303 311 308 309 309 308 311 310 312 312 313 309 310 314 315 316 316 315 316 316 317 322 319 317 323 319 317 313 318 318 319 313 312 313
308 304 306 306 307 307 305 304 306 302 298 309 312 313 312 310 309 310 311 310 311 311 311 311 311 313 314 315 315 314 315 317 318 318 323 317 319 317 315 314 313 313 312 311 313
306 305 306 306 307 306 305 305 306 301 304 308 311 312 311 310 310 310 311 311 308 305 300 306 310 313 314 315 314 316 316 322 322 324 317 313 319 317 314 311 310 311 310 309 310
305 306 306 308 307 306 306 306 307 303 306 306 310 311 311 310 310 310 310 310 309 309 305 306 305 311 313 313 314 315 318 315 318 319 318 314 320 316 311 309 309 308 307 307 307
306 306 307 307 306 306 307 308 306 303 307 311 312 312 312 311 310 310 309 307 308 309 308 310 310 309 312 314 314 316 313 314 318 311 309 315 310 308 308 308 309 308 309 309 309
306 306 307 306 306 308 308 312 305 309 309 310 310 310 310 312 310 309 309 308 309 308 308 310 310 311 313 314 315 314 313 317 315 320 319 311 310 310 309 309 309 309 309 309 307
307 309 307 306 307 307 308 307 308 309 310 311 309 310 309 310 309 309 310 309 309 309 307 309 312 311 314 315 314 316 314 315 314 316 313 312 308 305 308 307 308 308 308 308 307
307 312 307 307 308 308 309 307 309 309 309 310 309 310 309 308 309 309 310 308 306 310 310 310 311 312 311 313 314 315 317 316 317 315 307 304 309 307 305 306 306 308 309 309 308
309 308 307 306 310 311 310 309 309 310 309 310 310 309 308 308 309 306 307 305 304 307 310 311 311 311 308 315 314 318 315 315 313 311 309 310 310 305 306 310 310 309 308 308 308
306 309 307 306 307 309 309 306 307 308 309 309 309 308 308 308 307 307 304 303 304 306 310 308 308 308 307 312 311 314 316 315 315 315 311 311 310 309 308 310 311 310 310 309 309
305 306 307 309 308 308 306 306 308 308 307 307 307 306 306 305 305 305 300 299 302 304 303 307 306 307 308 309 311 311 314 316 315 315 312 311 310 310 307 307 307 307 307 308 308
305 303 303 305 306 307 306 303 306 307 306 307 305 301 301 303 302 300 299 299 300 300 302 301 297 303 298 305 309 311 311 313 315 316 316 313 313 309 310 307 307 308 308 308 306
303 300 302 303 305 306 304 301 303 302 300 301 302 298 299 298 299 298 297 296 295 297 300 299 299 301 297 302 305 306 309 310 312 313 315 316 313 312 314 312 309 308 307 306 305

GFSSW_925_thetae_102.txt.gz
Theta_e
312 312 312 310 311 312 311 310 311 311 310 310 309 309 310 311 311 306 305 309 313 312 310 310 313 314 316 315 316 316 321 328 325 324 320 319 325 327 328 332 336 331 338 340 343
312 312 312 311 310 312 311 310 310 310 310 309 309 309 311 312 308 307 307 312 313 311 311 314 314 315 314 316 316 316 324 324 323 324 322 322 326 330 335 341 341 343 342 341 342
312 312 312 311 310 310 310 309 309 310 310 310 309 311 311 309 305 305 308 311 313 312 310 313 314 316 314 315 315 315 324 323 325 328 329 323 326 325 336 338 340 341 346 343 342
313 312 311 312 311 309 311 309 309 309 310 310 310 311 311 306 305 306 308 310 310 312 311 313 315 317 317 317 316 317 315 315 328 327 328 326 322 325 325 331 337 342 343 342 339
312 312 311 312 310 309 309 309 310 309 310 310 311 311 307 304 304 307 309 310 309 312 311 314 316 317 318 317 315 315 313 319 324 326 326 325 324 326 325 329 340 342 341 340 339
312 312 311 311 310 309 309 310 310 310 310 306 311 311 305 306 306 307 310 311 309 309 312 313 314 315 316 313 314 313 316 316 321 325 325 326 324 325 324 321 340 342 342 340 339
315 311 311 310 309 309 309 310 309 305 305 305 311 311 305 305 307 309 311 313 312 311 313 314 314 316 315 315 314 315 316 313 322 324 324 323 327 326 321 325 334 337 341 340 338
316 310 311 309 310 309 309 309 305 304 304 305 310 307 303 305 308 309 311 312 312 315 314 314 314 315 317 316 319 318 312 315 317 323 323 324 330 321 319 319 320 324 332 336 338
318 312 309 307 309 307 308 304 303 304 306 306 307 305 304 307 308 309 310 310 312 311 310 314 313 314 316 320 322 320 320 317 317 320 323 323 327 322 320 319 318 317 320 327 334
317 313 308 304 307 306 307 303 303 305 306 306 306 302 304 307 307 309 310 311 311 309 309 312 310 315 313 315 321 323 321 320 318 321 321 320 321 320 318 320 319 317 315 318 323
317 312 307 303 307 306 306 306 305 305 305 305 305 304 305 307 308 308 310 310 309 309 312 310 316 318 316 314 314 318 320 320 320 321 319 320 319 321 319 318 318 317 316 315 317
312 313 307 307 306 306 306 304 306 305 306 305 305 305 306 307 309 308 310 310 310 310 309 308 315 315 314 315 315 317 320 320 321 322 321 321 319 321 319 319 318 318 317 315 315
309 314 306 306 305 306 306 305 306 307 306 307 306 306 306 308 308 308 309 310 310 312 310 308 313 314 315 315 315 315 316 316 321 323 321 321 322 322 320 318 318 318 316 314 314
307 311 305 304 305 306 305 305 306 306 299 304 310 308 308 307 307 308 310 310 309 312 312 312 312 314 315 316 314 317 315 315 322 322 322 319 320 320 320 320 320 318 315 315 313
308 309 305 305 306 305 306 304 305 304 304 303 310 307 308 308 307 310 310 310 311 312 309 309 314 314 316 316 314 316 316 316 321 318 320 322 320 316 318 321 320 318 316 314 311
308 309 305 306 306 307 305 303 305 306 306 308 311 312 311 309 308 309 310 309 310 310 308 309 309 313 313 314 314 313 316 316 316 317 321 317 320 318 315 316 317 317 314 314 312
305 307 306 306 307 307 304 305 307 309 305 309 311 312 311 310 309 310 310 310 307 304 300 305 308 310 313 315 313 315 316 320 322 323 318 312 320 319 314 312 310 311 310 310 309
307 306 305 305 307 306 304 307 309 307 305 305 310 310 310 309 309 310 309 309 308 307 303 305 305 309 312 313 313 315 314 312 318 318 314 314 320 317 311 309 308 308 307 307 306
306 306 306 305 306 305 306 309 309 305 306 310 311 310 311 311 309 310 309 306 307 307 307 309 309 308 310 313 313 315 314 313 311 309 306 313 311 307 308 308 308 307 308 308 307
306 306 305 307 306 306 308 311 307 305 309 309 308 308 308 310 309 309 308 307 308 307 307 308 308 309 312 313 314 314 312 317 318 320 318 311 309 310 309 309 309 309 309 309 306
305 306 304 306 306 307 308 309 306 308 309 310 307 309 308 310 308 308 309 308 308 309 306 309 312 307 311 313 313 317 319 315 314 314 314 313 309 304 307 306 307 307 308 307 307
305 308 307 306 309 309 309 308 308 309 308 309 308 308 307 306 308 308 309 307 303 309 309 309 311 309 309 311 314 315 317 316 316 315 307 304 309 305 305 306 305 307 308 308 307
306 308 306 306 309 309 309 311 309 309 309 309 309 308 307 307 307 307 306 303 303 304 308 309 306 307 302 311 313 316 315 315 314 310 305 309 310 305 306 308 307 308 308 307 308
307 308 308 307 308 308 311 309 309 308 308 308 308 307 307 308 306 306 304 302 303 305 307 306 304 301 302 302 309 308 311 311 316 316 309 310 310 308 307 310 310 309 308 308 308
307 307 306 308 308 309 307 306 307 308 307 307 307 307 307 307 304 305 300 299 301 302 302 303 296 303 305 305 308 310 310 310 314 315 313 310 310 309 308 307 308 308 307 308 308
306 305 305 306 307 308 308 306 307 307 306 307 305 303 303 303 301 301 299 298 299 298 300 299 294 300 297 301 303 306 309 310 312 311 315 313 312 308 309 305 307 307 308 308 308
305 300 303 305 306 307 307 304 306 302 300 299 302 298 299 298 297 296 294 294 295 295 298 298 299 296 299 300 306 303 307 309 310 313 313 315 313 312 313 311 311 309 307 306 307

GFSSW_925_thetae_105.txt.gz
Theta_e
314 313 313 312 312 311 312 312 311 311 311 311 309 309 310 311 311 308 305 308 313 313 310 310 312 313 314 315 315 316 322 320 323 324 324 318 321 328 329 333 334 331 333 333 342
315 314 313 312 312 311 310 312 310 310 310 311 310 310 311 311 309 307 306 311 313 312 311 313 314 314 315 316 315 318 322 320 321 322 325 326 323 332 335 339 333 333 332 335 337
317 314 313 312 313 312 310 312 310 310 310 311 310 311 311 311 305 305 307 311 312 312 311 311 313 314 314 315 315 317 321 318 319 322 323 326 325 327 335 339 334 334 337 340 340
319 316 313 312 312 311 310 310 310 310 310 311 311 311 311 306 305 307 309 312 311 311 311 312 314 316 315 317 315 317 316 315 317 316 326 326 324 327 332 333 334 334 338 338 337
320 316 314 312 312 311 310 310 310 310 310 311 310 311 309 303 304 307 308 312 309 310 312 314 316 316 316 315 315 317 315 316 315 318 326 325 324 327 327 324 336 339 340 342 336
319 317 313 309 311 311 310 310 310 311 310 309 309 310 306 305 307 307 309 312 309 309 313 312 314 315 314 315 314 312 314 315 315 317 318 326 325 324 325 321 338 338 341 342 336
316 319 313 309 310 311 310 310 310 310 307 308 310 310 305 304 307 308 310 312 313 313 313 314 314 316 312 314 313 314 316 315 317 315 320 323 328 324 321 324 336 338 340 340 337
314 318 316 310 309 308 309 307 308 309 306 308 312 307 304 305 308 310 310 311 311 314 313 314 314 315 316 314 317 316 315 317 316 314 314 324 330 323 320 322 324 331 336 336 338
310 312 316 310 306 307 308 306 304 304 307 309 307 304 304 306 308 309 309 310 311 311 310 311 313 315 317 320 321 318 319 317 317 314 317 323 327 321 318 320 321 321 324 334 335
307 310 315 310 306 305 307 306 303 303 306 306 306 302 303 307 307 308 309 310 311 309 310 312 312 317 315 315 321 322 321 318 318 315 318 321 322 318 318 319 320 318 319 324 335
307 308 310 310 306 307 307 305 304 305 304 304 304 304 304 307 307 308 310 310 308 310 313 310 317 319 317 314 314 318 319 319 317 316 319 319 319 318 318 319 319 319 318 319 323
305 305 311 308 306 306 306 305 305 304 306 304 305 305 305 307 308 307 310 310 309 310 308 310 316 315 314 314 314 318 320 321 320 319 319 318 319 318 319 318 319 318 319 319 316
304 305 312 308 305 305 304 306 306 306 306 306 305 305 305 307 308 308 309 309 310 311 310 310 312 313 315 314 315 315 318 319 320 321 321 319 320 320 319 318 317 317 317 317 318
303 307 308 305 305 305 305 305 306 305 302 306 309 307 308 307 307 307 309 310 309 311 311 311 311 313 314 316 313 317 314 316 323 323 323 320 322 319 318 319 318 318 318 318 317
302 304 308 305 306 305 306 305 305 303 305 305 309 307 307 308 307 309 309 309 311 312 308 310 313 313 315 315 313 315 315 319 321 319 321 322 321 320 316 319 318 317 319 318 316
302 303 307 306 305 307 305 304 305 306 307 308 310 310 310 309 308 308 309 308 309 309 307 309 308 312 312 313 314 314 315 316 317 318 323 318 320 318 319 319 318 317 318 316 316
300 303 308 305 306 307 305 304 308 310 305 309 311 311 310 309 309 309 309 308 307 303 301 304 307 308 312 315 312 314 315 319 323 323 320 311 320 318 314 313 313 314 314 314 314
305 307 307 305 307 306 304 307 310 309 305 305 310 310 310 308 309 309 308 307 307 305 304 306 302 308 311 313 314 315 314 314 317 319 317 314 321 319 313 312 311 310 309 307 310
306 307 306 305 306 305 305 310 311 309 305 309 310 310 310 310 308 309 308 306 306 306 307 309 308 307 309 313 313 315 318 312 311 307 312 314 312 309 308 308 308 307 307 308 308
305 305 305 305 305 306 308 310 309 304 308 309 308 307 309 310 309 309 308 306 308 306 306 307 308 309 311 312 313 315 313 320 319 318 318 312 310 312 309 308 307 309 309 307 307
305 305 305 306 305 306 310 309 308 306 308 309 306 309 306 309 307 308 307 307 306 308 306 308 311 307 308 311 312 316 317 316 316 316 316 313 311 304 307 306 307 305 307 307 307
305 307 305 305 307 307 309 308 308 309 308 309 306 307 306 306 307 307 309 306 302 307 308 308 310 309 307 310 312 313 315 314 318 317 307 308 311 304 304 306 307 306 308 307 306
305 307 305 306 309 309 309 310 309 309 309 309 308 308 306 306 306 307 305 302 302 306 307 308 304 298 301 305 309 310 309 309 311 311 306 314 313 304 306 308 307 308 308 307 307
306 307 307 307 308 308 309 309 310 307 308 307 307 307 307 307 304 304 304 301 301 305 306 305 301 300 301 298 307 307 308 310 308 317 312 309 310 308 306 309 309 308 307 307 307
303 306 306 307 309 308 307 307 307 309 307 307 307 307 306 307 304 304 299 298 300 300 300 299 296 300 303 302 304 305 307 309 306 309 316 310 309 309 307 306 307 307 306 306 307
305 306 305 307 307 308 308 309 307 306 307 309 306 305 303 302 300 301 299 298 298 297 299 297 294 294 293 300 302 304 304 305 308 309 309 311 312 309 309 306 305 306 307 308 307
302 301 305 306 307 308 307 307 305 304 299 298 302 299 301 298 296 294 293 294 294 294 297 297 296 294 298 300 303 302 307 307 309 309 311 311 313 312 312 311 310 309 306 307 307

GFSSW_925_thetae_108.txt.gz
Theta_e
321 317 316 314 313 313 312 311 313 311 311 311 311 310 311 312 312 309 307 307 310 314 312 312 312 312 312 314 314 316 318 321 322 322 324 321 325 323 323 331 334 334 334 335 337
322 319 317 315 313 313 313 311 313 311 311 311 311 311 312 312 310 308 307 310 313 313 312 312 314 313 314 312 315 317 318 319 319 321 322 323 324 324 323 329 335 335 334 337 342
318 321 318 315 313 313 312 311 311 311 311 311 311 311 312 308 307 307 308 312 313 312 311 313 314 314 315 316 316 316 318 319 319 319 320 322 322 324 325 328 332 335 336 335 331
316 318 320 316 314 312 312 311 310 311 311 311 311 312 308 306 312 308 308 312 313 310 312 313 315 315 316 317 317 316 318 318 318 319 317 322 320 324 326 328 331 332 334 335 334
315 317 320 317 312 309 311 310 311 311 311 310 311 312 309 307 307 307 307 310 310 311 313 315 316 316 317 317 318 319 318 317 317 318 317 319 324 324 326 329 329 332 334 336 334
311 313 319 317 314 308 311 311 311 311 311 308 311 311 308 309 307 307 308 310 310 311 313 314 315 316 316 317 319 317 317 318 316 315 316 320 324 325 325 326 327 335 336 334 333
307 311 312 317 314 310 311 310 311 310 311 307 311 311 308 308 306 307 309 310 312 311 313 315 315 316 315 315 315 317 319 318 317 316 316 315 325 327 324 324 328 336 336 336 332
306 309 311 315 313 308 307 307 308 309 308 307 311 309 307 305 306 309 309 311 312 314 313 314 315 316 317 315 316 317 318 322 318 316 315 316 327 326 323 325 331 333 336 339 335
305 308 310 312 311 308 306 304 306 305 307 308 311 306 307 306 309 309 309 311 311 312 311 311 314 317 316 319 319 318 320 321 317 317 318 318 325 325 322 326 330 333 336 336 335
305 306 307 308 311 308 307 305 304 304 306 307 305 306 306 309 308 308 309 310 312 311 312 314 314 319 317 320 322 320 319 317 319 317 318 319 320 323 322 325 327 329 332 333 335
305 304 304 305 311 307 305 305 306 307 305 307 306 307 306 307 308 310 309 311 311 311 316 312 321 319 317 318 318 319 319 316 319 317 319 319 318 320 320 325 326 325 327 330 334
305 303 310 310 310 306 305 307 307 307 309 306 306 306 306 307 310 310 310 313 313 314 312 316 320 317 316 317 318 321 321 322 320 318 319 320 319 320 320 324 324 323 323 327 328
305 303 306 309 306 305 306 306 306 306 310 308 306 307 307 308 310 310 311 311 313 313 314 317 316 315 316 317 319 321 321 322 321 320 319 321 322 321 320 322 322 321 321 320 325
305 303 304 307 305 306 306 305 306 306 313 310 310 309 309 309 309 308 310 312 313 314 314 314 314 315 316 317 317 319 317 319 322 323 325 320 325 323 320 324 324 325 323 322 321
305 304 303 306 306 306 306 305 306 305 316 309 310 307 308 310 309 311 310 311 312 314 313 315 315 315 316 316 316 318 318 318 321 321 320 322 322 324 320 320 323 325 324 323 322
305 304 303 307 306 306 305 304 305 315 315 310 311 310 311 310 309 310 311 310 311 312 311 313 310 314 315 315 315 317 320 321 321 321 323 318 321 317 322 323 322 322 322 324 323
305 302 305 304 306 307 304 306 315 316 306 312 313 312 311 311 310 310 310 310 310 311 313 309 309 311 313 316 316 318 319 322 321 324 320 316 322 317 317 318 317 318 320 319 321
301 302 308 306 305 306 305 310 316 312 310 308 312 311 311 310 311 311 311 311 310 310 312 313 311 311 312 316 317 317 318 319 317 318 319 317 322 318 316 316 316 315 315 314 315
301 306 306 305 306 305 307 315 314 311 307 311 311 312 312 311 311 311 311 310 309 310 311 311 311 309 310 313 315 319 320 316 318 313 319 318 317 314 312 313 314 313 311 313 313
304 305 305 305 306 305 309 311 311 307 308 310 310 310 310 312 311 311 310 309 310 309 309 311 313 311 313 313 314 315 315 321 322 322 318 315 314 315 313 312 311 313 313 312 312
305 306 304 305 305 307 311 311 310 308 308 311 309 311 308 312 311 311 309 310 308 310 309 311 312 311 310 312 311 313 315 317 316 320 318 315 314 309 311 312 312 311 312 312 314
305 308 305 306 307 308 310 309 308 310 309 310 308 309 309 311 311 311 311 309 304 309 311 311 312 311 309 309 311 312 313 315 319 319 316 314 314 309 311 312 310 310 311 311 311
305 306 305 306 311 310 309 309 310 310 310 310 310 309 308 310 308 309 309 304 306 309 310 309 310 308 305 311 308 309 309 310 311 315 318 317 315 310 312 312 311 312 312 311 311
305 307 306 307 307 309 309 309 310 309 309 308 308 308 308 308 307 308 307 303 303 307 305 306 308 308 306 307 307 308 307 308 310 313 315 316 313 311 312 312 312 312 312 311 311
303 306 306 309 309 309 308 309 309 309 308 308 309 309 308 308 308 307 303 302 301 301 303 304 304 304 303 303 303 304 305 305 308 309 313 315 315 314 313 313 309 311 310 311 312
304 304 306 308 308 308 308 309 308 307 309 310 309 308 306 305 302 304 304 302 301 301 302 301 305 301 302 303 306 304 304 305 307 307 309 309 311 310 311 312 312 310 309 310 311
302 301 301 308 308 309 308 308 306 306 301 300 305 306 305 301 299 299 299 299 300 301 302 301 303 303 307 304 306 309 310 310 310 310 310 312 312 312 312 313 313 313 312 313 312

GFSSW_925_thetae_111.txt.gz
Theta_e
318 321 322 319 316 314 314 314 312 314 311 311 312 312 311 312 311 310 310 308 309 315 314 314 313 313 313 314 313 313 316 317 315 316 318 319 324 323 324 326 326 325 334 337 344
316 318 320 320 316 314 314 313 312 312 311 311 311 311 312 313 311 309 308 309 313 315 313 314 315 314 314 314 313 315 317 316 314 318 322 320 320 322 324 326 326 330 332 341 347
314 317 319 320 318 315 314 313 311 311 311 312 312 311 312 311 309 309 309 311 314 314 313 314 315 314 314 313 313 314 317 315 318 318 319 319 320 320 325 328 326 328 338 340 346
310 312 315 317 318 315 312 313 311 311 312 312 311 311 311 309 314 309 309 311 313 313 313 314 315 315 316 316 315 316 315 317 319 319 319 319 319 322 324 325 325 326 330 340 344
308 308 312 314 319 316 312 312 311 311 312 312 311 311 311 309 310 309 309 310 312 312 315 316 316 316 317 316 317 317 317 318 319 318 318 318 318 318 323 324 323 326 330 339 342
307 307 311 312 317 315 310 312 312 311 312 312 311 311 311 310 309 310 310 311 313 313 314 315 316 316 318 317 317 317 318 319 318 318 318 318 317 319 324 323 325 327 330 337 337
307 306 309 312 315 315 313 311 311 311 311 311 311 311 311 310 308 309 311 311 313 312 314 315 315 316 317 316 315 317 319 320 319 317 318 318 321 324 323 324 325 327 333 336 336
307 306 306 309 310 314 312 308 309 309 309 311 312 311 310 308 308 309 311 312 313 313 314 314 316 317 318 316 316 318 320 323 320 318 318 318 323 323 323 325 326 328 333 335 335
307 306 306 306 308 311 312 308 308 310 311 311 311 310 309 307 308 311 311 311 312 313 314 312 314 318 317 318 320 318 321 323 319 319 319 318 320 321 320 325 326 329 332 334 335
307 306 305 307 305 308 311 308 310 308 309 309 308 308 309 308 309 310 311 312 313 314 313 314 315 319 318 320 327 322 319 318 319 320 318 319 322 320 319 325 327 331 330 335 336
307 306 305 308 311 308 310 306 308 309 306 308 309 308 308 308 309 311 311 312 313 314 317 315 320 322 318 318 319 319 320 318 316 318 318 321 322 321 320 327 328 332 336 336 335
307 307 305 306 309 309 306 307 308 308 309 308 307 307 307 308 311 311 311 314 315 316 316 316 320 318 317 318 320 320 320 320 321 319 319 322 323 324 321 326 328 331 335 336 334
306 307 304 305 307 306 307 306 306 307 310 310 308 308 308 309 311 312 312 313 314 315 316 318 318 316 317 318 318 320 321 320 321 321 320 322 325 325 322 325 326 327 330 333 334
307 306 305 304 307 307 307 306 306 307 316 312 310 310 309 310 311 310 311 314 314 316 315 315 315 315 317 317 317 319 318 320 321 322 323 320 331 327 324 327 327 326 327 328 331
306 305 305 303 305 307 306 307 307 307 321 310 311 308 310 311 310 311 311 313 314 313 315 317 315 316 316 315 317 318 318 319 320 321 320 320 322 327 326 327 328 327 326 325 327
304 305 305 303 305 307 306 306 306 315 319 312 311 310 311 310 310 311 311 311 312 312 312 312 312 313 316 315 316 317 319 318 319 320 324 319 320 325 326 327 327 327 326 325 323
303 304 303 304 306 307 306 307 314 320 308 313 313 311 311 311 311 311 311 311 312 314 315 312 310 310 314 316 315 317 319 323 322 325 321 318 320 319 318 319 324 325 326 325 324
303 302 304 306 305 305 306 311 318 314 312 310 313 312 312 311 311 312 312 311 311 311 313 312 314 311 311 315 317 317 317 321 324 321 318 318 320 320 317 317 318 318 319 320 322
303 302 306 306 306 306 308 316 316 314 308 312 312 312 313 311 312 312 310 310 311 311 312 311 311 309 311 313 314 317 319 317 319 316 317 317 317 314 314 315 316 316 315 316 315
304 303 306 307 306 306 310 314 313 309 310 312 310 311 311 313 312 311 309 310 312 311 310 311 312 311 310 312 313 314 315 319 319 320 317 315 314 315 314 314 314 314 315 315 314
306 305 304 306 305 307 313 313 311 309 310 312 310 310 309 311 311 310 309 311 310 312 311 310 311 311 309 311 311 312 314 314 315 319 323 319 314 312 314 314 314 313 314 314 316
306 308 304 305 308 309 312 311 308 311 310 311 310 310 310 311 311 310 311 310 308 311 310 311 310 311 307 308 310 311 311 312 316 320 318 318 317 314 314 312 312 313 313 313 314
306 305 305 306 312 311 310 310 310 311 311 311 310 310 309 310 309 309 309 305 307 310 310 309 310 311 309 311 309 309 309 309 312 314 319 319 318 313 313 314 313 314 313 313 312
305 308 306 307 305 310 310 309 311 310 310 310 309 309 309 309 308 308 308 305 305 307 305 307 311 309 307 307 307 307 307 306 309 315 312 316 317 315 314 313 313 313 313 312 312
304 306 306 309 309 310 310 310 311 310 310 309 310 309 308 308 308 307 306 305 303 302 304 305 307 305 304 304 304 304 305 305 308 309 312 312 312 314 313 313 313 312 313 313 313
305 305 301 308 309 310 309 310 310 308 309 310 309 309 308 306 303 304 305 304 303 302 304 304 308 304 305 305 305 304 304 304 306 308 309 310 312 311 312 313 314 313 312 313 313
303 302 302 307 309 310 310 309 308 308 304 303 307 308 307 303 302 302 302 302 302 304 304 303 305 307 308 307 308 312 310 310 311 311 311 312 312 311 311 311 312 312 313 313 313

GFSSW_925_thetae_114.txt.gz
Theta_e
312 316 317 319 321 319 316 315 314 313 314 312 312 312 312 312 313 312 311 310 309 309 316 315 314 314 313 314 314 314 316 316 314 315 313 311 319 317 318 320 322 324 326 325 334
310 312 313 316 318 319 317 315 314 312 313 312 312 312 312 313 312 311 310 308 312 316 315 313 314 315 315 315 315 315 315 314 313 313 313 316 319 319 319 319 320 324 324 324 332
308 309 309 313 316 319 317 314 314 313 312 312 312 312 312 312 312 311 309 310 314 316 315 314 315 315 315 314 314 314 315 314 314 315 317 319 318 318 320 320 320 323 325 328 329
308 308 308 311 314 319 317 314 314 312 312 312 312 312 310 312 314 311 309 311 312 314 313 314 315 314 314 315 314 314 314 314 315 317 318 318 317 316 316 317 318 319 322 327 330
308 308 308 309 312 315 317 313 311 312 312 312 312 312 312 311 310 310 310 311 312 312 314 316 316 316 317 316 317 317 315 316 316 317 318 317 317 317 316 315 319 321 322 326 327
308 307 307 307 310 312 316 312 313 313 312 312 312 311 312 312 310 310 311 312 314 314 314 315 316 316 317 318 318 318 318 317 317 318 318 317 316 317 316 317 321 322 324 326 325
309 308 307 307 307 309 314 314 312 312 311 312 312 311 311 311 309 309 310 312 313 313 314 316 315 316 316 318 316 316 319 319 319 319 319 317 318 316 316 319 324 325 327 327 326
309 309 307 307 306 308 309 314 311 310 310 311 311 312 311 309 308 308 311 312 313 314 315 315 315 316 317 317 317 317 317 321 319 320 318 319 319 316 321 321 325 326 327 328 329
310 309 308 307 306 309 308 311 312 309 310 310 311 311 309 307 307 309 311 312 312 313 315 314 314 317 318 319 320 318 320 320 321 320 320 320 320 320 322 324 326 326 327 329 332
309 308 308 306 307 310 309 309 310 310 309 310 310 308 309 308 310 310 310 311 313 314 316 315 316 319 318 319 326 325 325 320 321 321 320 320 320 317 321 324 325 325 326 332 334
308 307 307 306 306 310 309 307 309 310 309 309 310 309 308 309 309 311 311 312 313 315 316 317 320 321 320 318 317 319 319 319 317 319 320 320 318 320 321 321 323 324 326 333 333
307 307 305 306 305 306 307 308 307 308 309 308 307 308 307 308 311 312 311 314 315 317 317 318 318 317 318 317 317 318 320 321 320 319 318 319 320 321 321 321 324 326 329 333 332
306 305 304 305 303 307 308 307 306 307 310 310 309 308 308 308 311 313 312 314 314 315 316 315 316 316 316 316 317 318 321 320 321 320 319 320 322 321 323 321 324 327 329 330 332
306 304 304 304 304 307 307 307 307 307 314 313 310 309 308 310 311 310 312 314 314 315 315 315 314 314 315 316 316 319 319 318 318 320 325 320 321 325 324 322 326 325 329 332 333
305 304 304 304 303 306 307 307 307 307 319 312 311 308 310 311 311 312 311 313 313 314 314 315 315 315 316 316 315 317 317 317 318 319 319 320 319 328 324 326 326 325 326 329 331
303 303 304 304 305 305 307 307 307 313 318 312 310 311 310 310 310 311 311 311 312 311 311 311 310 312 314 313 314 314 316 317 317 320 319 318 318 324 325 326 327 325 324 326 327
303 302 303 304 306 306 307 308 313 318 308 313 312 310 312 310 310 311 311 312 311 311 314 312 311 310 312 314 314 315 316 317 317 315 317 317 318 319 316 319 324 323 325 323 324
303 303 305 305 304 304 306 310 317 313 311 311 312 311 312 310 312 311 312 312 311 310 312 311 310 310 309 312 314 314 317 321 325 325 324 317 322 314 313 314 319 320 318 321 322
304 304 305 307 305 304 308 313 315 312 309 313 311 313 313 310 312 312 310 310 311 310 311 312 310 309 310 309 313 314 315 314 321 316 316 315 313 311 312 312 313 315 316 314 313
305 304 305 306 306 306 311 315 312 310 311 312 311 311 313 312 312 311 309 310 312 310 309 311 311 311 309 310 312 313 314 317 317 314 317 313 312 315 313 312 312 312 312 313 315
307 306 305 305 305 308 313 312 311 310 310 312 310 309 310 311 310 309 309 309 310 311 310 310 311 310 309 310 310 313 312 313 314 316 322 323 319 312 311 310 311 311 312 313 314
306 307 303 305 308 310 313 310 310 311 311 311 310 310 310 310 310 310 311 308 309 310 310 309 309 308 309 309 309 309 310 310 312 312 315 320 318 311 310 311 312 311 311 311 312
305 305 304 305 311 313 310 309 310 310 311 310 310 309 309 310 310 309 309 305 306 309 307 307 307 303 309 311 307 308 307 307 308 311 310 317 319 313 310 310 310 311 309 309 310
306 308 307 306 307 311 311 311 311 310 311 310 309 308 308 308 307 308 308 305 305 305 306 306 306 305 304 303 304 305 306 305 307 309 305 314 315 313 311 312 310 310 310 310 309
304 306 304 309 310 311 310 311 310 311 310 309 309 309 308 307 307 306 306 305 303 302 304 305 300 304 304 304 305 304 304 305 301 306 304 308 308 311 311 311 311 309 310 312 311
305 304 303 307 308 311 310 310 310 308 306 309 310 308 305 304 304 305 304 304 301 303 304 303 303 299 298 305 305 304 304 304 305 307 309 310 312 310 310 310 309 310 311 311 311
302 302 305 307 308 309 310 309 308 307 305 303 305 307 305 302 301 301 300 301 302 304 303 302 301 301 305 307 305 303 309 309 311 309 310 310 310 309 310 310 310 308 309 309 308

GFSSW_925_thetae_117.txt.gz
Theta_e
310 309 311 311 315 317 319 318 316 314 314 314 313 312 312 312 312 312 312 312 313 312 314 315 314 314 314 314 313 313 317 314 313 314 314 311 311 312 315 317 316 319 321 322 323
308 309 310 309 311 315 316 319 316 314 313 313 312 312 312 312 312 312 311 311 311 313 315 315 314 315 315 314 314 314 317 314 312 312 312 311 313 316 318 317 318 318 317 319 322
309 308 309 308 310 313 315 319 316 315 313 312 312 312 312 312 312 311 312 312 313 316 315 313 314 315 315 314 314 313 314 313 312 312 312 316 316 316 319 320 318 318 317 319 322
309 309 308 308 308 311 313 318 315 313 313 313 312 312 311 312 310 310 313 313 314 314 315 313 315 317 314 315 314 314 314 313 312 312 313 314 316 317 317 317 316 317 318 319 322
310 309 309 308 308 308 311 315 314 312 313 312 312 312 310 312 311 311 310 312 312 312 313 315 317 317 316 315 316 316 316 314 314 315 314 317 318 317 315 314 315 315 317 320 320
311 310 310 308 308 307 309 312 314 313 312 312 312 310 312 312 309 310 311 311 313 313 314 315 316 316 317 316 317 317 318 317 315 315 316 318 318 316 316 314 315 315 317 321 322
310 311 310 309 308 307 309 311 314 312 310 311 311 310 312 310 309 309 310 311 313 313 313 315 315 315 315 315 315 316 318 317 318 317 318 318 320 319 315 314 315 315 320 322 324
309 309 310 310 308 307 310 310 310 312 310 310 310 311 311 309 309 309 309 310 312 314 314 315 315 315 316 314 317 317 316 318 317 319 318 317 320 316 317 320 320 324 325 326 326
308 308 309 308 308 306 310 310 308 311 310 310 310 311 311 308 307 307 307 311 313 314 313 314 313 315 317 319 318 318 317 318 318 316 320 318 319 316 316 321 321 324 325 326 328
307 308 307 306 306 305 309 308 310 309 310 311 310 309 307 308 309 310 311 311 312 314 315 314 313 315 318 317 319 323 321 321 322 320 320 320 319 318 317 320 323 323 323 324 332
306 307 306 305 305 304 307 308 308 308 309 308 309 308 309 307 309 310 310 311 313 313 314 314 317 317 317 317 318 319 318 320 320 319 321 321 320 318 315 320 320 321 322 325 331
305 305 304 304 305 304 306 306 306 306 307 309 308 308 307 307 310 311 311 312 314 315 314 317 316 314 316 318 318 317 318 321 323 319 319 318 319 317 318 320 319 321 321 330 331
305 305 304 303 305 305 307 307 307 307 309 310 309 308 308 308 310 313 311 313 312 313 313 314 313 314 315 315 316 315 319 320 320 317 318 319 319 319 319 321 321 320 327 330 330
304 304 303 303 304 305 307 307 307 307 312 311 309 309 308 309 311 310 311 312 313 313 313 313 313 314 314 315 315 317 316 316 317 317 319 320 322 321 322 323 322 323 329 330 329
303 303 303 303 303 305 306 307 307 307 314 311 310 308 309 311 310 311 311 312 313 313 310 309 312 312 312 315 313 315 314 314 316 316 316 317 321 322 325 326 325 325 328 329 330
304 303 303 304 304 305 305 307 307 310 313 311 309 311 310 310 309 310 310 310 310 311 309 309 309 310 312 311 312 313 314 314 315 317 314 318 321 320 317 323 325 321 323 328 330
303 303 303 303 306 304 307 306 312 309 306 312 311 311 311 310 310 310 311 310 307 304 304 307 309 309 310 310 311 312 313 308 313 309 314 315 317 314 312 322 321 320 318 325 326
304 305 306 304 304 304 306 310 312 310 309 311 311 310 311 310 310 311 310 309 308 308 303 304 305 308 309 310 312 312 315 319 322 323 319 316 314 314 310 312 319 320 318 319 322
304 305 305 304 305 305 307 312 313 309 309 312 311 311 311 309 311 310 308 308 309 308 309 307 307 308 308 309 312 311 312 313 319 319 319 314 313 310 311 310 313 317 317 316 316
305 305 304 305 306 307 310 312 310 310 310 311 310 308 311 311 311 309 309 307 310 309 307 309 307 308 309 307 308 312 311 311 310 315 322 317 316 316 312 311 311 313 314 314 316
305 306 305 305 305 307 312 311 311 310 309 310 309 308 308 309 307 307 307 307 308 310 307 305 307 306 306 309 309 309 309 310 305 313 321 319 319 313 310 309 310 309 310 311 313
303 307 305 305 305 306 306 310 310 310 309 309 308 308 308 306 307 308 307 305 304 308 307 305 306 301 310 307 306 307 307 306 305 309 316 313 319 312 311 307 308 308 308 308 308
305 305 305 305 310 305 308 310 309 310 309 309 308 307 306 306 307 307 306 304 303 305 304 305 301 293 301 300 301 305 304 306 305 307 304 316 318 312 307 310 308 308 308 308 307
301 304 302 301 304 309 309 309 310 309 309 308 307 306 306 306 304 305 306 304 303 303 306 305 300 297 298 299 302 302 303 304 302 297 308 308 308 310 308 309 309 309 308 307 307
300 304 304 301 305 308 308 309 308 307 305 306 307 305 304 303 303 304 305 303 301 302 302 301 295 301 302 303 304 303 303 304 297 303 301 307 312 311 309 308 309 306 308 308 307
300 298 299 304 305 307 307 307 308 307 304 305 306 303 301 302 302 303 302 301 301 301 302 300 297 294 296 304 304 304 303 303 304 306 308 308 313 309 309 306 306 306 307 307 307
302 302 300 304 304 306 307 308 306 304 303 301 301 303 301 301 299 299 298 299 300 302 300 299 295 296 301 305 299 299 307 308 310 309 308 306 309 308 309 310 307 306 305 306 305